[[{"header":{"parameterUnit":"m.s-1","parameterCategory":1,"la1":30.6,"la2":29.2853,"lo1":-89.7004,"lo2":-87.6739,"dy":0.0162,"dx":0.0183,"nx":112,"ny":82,"refTime":"2025-02-27T18:00:00:Z","depth":0,"parameterNumber":2,"parameterNumberName":"U-component_of_WINDS"},"data":[0.0,0.0,0.0,0.0,0.0,0.0,0.0,0.0,0.0,0.0,0.0,0.0,0.0,0.0,0.0,0.0,0.0,0.0,0.0,0.0,0.0,0.0,0.0,0.0,0.0,0.0,0.0,0.0,0.0,0.0,0.0,0.0,0.0,0.0,0.0,0.0,0.0,0.0,0.0,0.0,0.0,0.0,0.0,0.0,0.0,0.0,0.0,0.0,0.0,0.0,0.0,0.0,0.0,0.0,0.0,0.0,0.0,0.0,0.0,0.0,0.0,0.0,0.0,0.0,0.0,0.0,0.0,0.0,0.0,0.0,0.0,0.0,0.0,0.0,0.0,0.0,0.0,0.0,0.0,0.0,0.0,0.0,0.0,0.0,0.0,0.0,0.0,0.0,0.0,0.0,0.0,1.3012,1.4543,1.558,1.5736,1.5229,1.4345,1.3046,0.0,0.0,0.0,0.0,0.0,0.0,0.0,0.0,0.0,0.0,0.0,0.0,0.0,0.0,0.0,0.0,0.0,0.0,0.0,0.0,0.0,0.0,0.0,0.0,0.0,0.0,0.0,0.0,0.0,0.0,0.0,0.0,0.0,0.0,0.0,0.0,0.0,0.0,0.0,0.0,0.0,0.0,0.0,0.0,0.0,0.0,0.0,0.0,0.0,0.0,0.0,0.0,0.0,0.0,0.0,0.0,0.0,0.0,0.0,0.0,0.0,0.0,0.0,0.0,0.0,0.0,0.0,0.0,0.0,0.0,0.0,0.0,0.0,0.0,0.0,0.0,0.0,0.0,0.0,0.0,0.0,0.0,0.0,0.0,0.0,0.0,0.0,0.0,0.0,0.0,0.0,0.0,0.0,0.0,0.0,0.0,0.0,0.0,0.0,0.0,0.0,0.0,0.0,0.0,1.1893,1.4183,1.506,1.5513,1.5536,1.4851,1.3915,1.2817,0.0,0.0,0.0,0.0,0.0,0.0,0.0,0.0,0.0,0.0,0.0,0.0,0.0,0.0,0.0,0.0,0.0,0.0,0.0,0.0,0.0,0.0,0.0,0.0,0.0,0.0,0.0,0.0,0.0,0.0,0.0,0.0,0.0,0.0,0.0,0.0,0.0,0.0,0.0,0.0,0.0,0.0,0.0,0.0,0.0,0.0,0.0,0.0,0.0,0.0,0.0,0.0,0.0,0.0,0.0,0.0,0.0,0.0,0.0,0.0,0.0,0.0,0.0,0.0,0.0,0.0,0.0,0.0,0.0,0.0,0.0,0.0,0.0,0.0,0.0,0.0,0.0,0.0,0.0,0.0,0.0,0.0,0.0,0.0,0.0,0.0,0.0,0.0,0.0,0.0,0.0,0.0,0.0,0.0,0.0,0.0,0.0,0.0,0.0,0.0,0.0,0.0,0.0,1.1274,1.2395,1.4473,1.4926,1.5131,1.5266,1.4465,1.349,1.2549,1.0788,0.0,0.0,0.0,0.0,0.0,0.0,0.0,0.0,0.0,0.0,0.0,0.0,0.0,0.0,0.0,0.0,0.0,0.0,0.0,0.0,0.0,0.0,0.0,0.0,0.0,0.0,0.0,0.0,0.0,0.0,0.0,0.0,0.0,0.0,0.0,0.0,0.0,0.0,0.0,0.0,0.0,0.0,0.0,0.0,0.0,0.0,0.0,0.0,0.0,0.0,0.0,0.0,0.0,0.0,0.0,0.0,0.0,0.0,0.0,0.0,0.0,0.0,0.0,0.0,0.0,0.0,0.0,0.0,0.0,0.0,0.0,0.0,0.0,0.0,0.0,0.0,0.0,0.0,0.0,0.0,0.0,0.0,0.0,0.0,0.0,0.0,0.0,0.0,0.0,0.0,0.0,0.0,0.0,0.0,0.0,0.0,0.0,0.0,0.0,0.0,0.0,0.0,1.2561,1.3082,1.4471,1.4674,1.4744,1.4835,1.387,1.2954,1.2177,1.0073,0.0,0.0,0.0,0.0,0.0,0.0,0.0,0.0,0.0,0.0,0.0,0.0,0.0,0.0,0.0,0.0,0.0,0.0,0.0,0.0,0.0,0.0,0.0,0.0,0.0,0.0,0.0,0.0,0.0,0.0,0.0,0.0,0.0,0.0,0.0,0.0,0.0,0.0,0.0,0.0,0.0,0.0,0.0,0.0,0.0,0.0,0.0,0.0,0.0,0.0,0.0,0.0,0.0,0.0,0.0,0.0,0.0,0.0,0.0,0.0,0.0,0.0,0.0,0.0,0.0,0.0,0.0,0.0,0.0,0.0,0.0,0.0,0.0,0.0,0.0,0.0,0.0,0.0,0.0,0.0,0.0,0.0,0.0,0.0,0.0,0.0,0.0,0.0,0.0,0.0,0.0,0.0,0.0,0.0,0.0,0.0,0.0,0.0,0.0,0.0,0.0,0.0,1.2778,1.3827,1.4376,1.4581,1.4541,1.4115,1.2986,1.2106,1.1667,0.9302,0.0,0.0,0.0,0.0,0.0,0.0,0.0,0.0,0.0,0.0,0.0,0.0,0.0,0.0,0.0,0.0,0.0,0.0,0.0,0.0,0.0,0.0,0.0,0.0,0.0,0.0,0.0,0.0,0.0,0.0,0.0,0.0,0.0,0.0,0.0,0.0,0.0,0.0,0.0,0.0,0.0,0.0,0.0,0.0,0.0,0.0,0.0,0.0,0.0,0.0,0.0,0.0,0.0,0.0,0.0,0.0,0.0,0.0,0.0,0.0,0.0,0.0,0.0,0.0,0.0,0.0,0.0,0.0,0.0,0.0,0.0,0.0,0.0,0.0,0.0,0.0,0.0,0.0,0.0,0.0,0.0,0.0,0.0,0.0,0.0,0.0,0.0,0.0,0.0,0.0,0.0,0.0,0.0,0.0,0.0,0.0,0.0,0.0,0.0,0.0,0.0,0.0,1.2074,1.3086,0.0,1.4064,1.3983,1.3828,1.254,1.1507,1.0896,0.0,0.0,0.0,0.0,0.0,0.0,0.0,0.0,0.0,0.0,0.0,0.0,0.0,0.0,0.0,0.0,0.0,0.0,0.0,0.0,0.0,0.0,0.0,0.0,0.0,0.0,0.0,0.0,0.0,0.0,0.0,0.0,0.0,0.0,0.0,0.0,0.0,0.0,0.0,0.0,0.0,0.0,0.0,0.0,0.0,0.0,0.0,0.0,0.0,0.0,0.0,0.0,0.0,0.0,0.0,0.0,0.0,0.0,0.0,0.0,0.0,0.0,0.0,0.0,0.0,0.0,0.0,0.0,0.0,0.0,0.0,0.0,0.0,0.0,0.0,0.0,0.0,0.0,0.0,0.0,0.0,0.0,0.0,0.0,0.0,0.0,0.0,0.0,0.0,0.0,0.0,0.0,0.0,0.0,0.0,0.0,0.0,0.0,0.0,0.0,0.0,0.0,1.0563,1.169,1.2658,0.0,1.3457,1.3277,1.3149,1.1756,1.0651,1.0086,0.0,0.0,0.0,0.0,0.0,0.0,0.0,0.0,0.0,0.0,0.0,0.0,0.0,0.0,0.0,0.0,0.0,0.0,0.0,0.0,0.0,0.0,0.0,0.0,0.0,0.0,0.0,0.0,0.0,0.0,0.0,0.0,0.0,0.0,0.0,0.0,0.0,0.0,0.0,0.0,0.0,0.0,0.0,0.0,0.0,0.0,0.0,0.0,0.0,0.0,0.0,0.0,0.0,0.0,0.0,0.0,0.0,0.0,0.0,0.0,0.0,0.0,0.0,0.0,0.0,0.0,0.0,0.0,0.0,0.0,0.0,0.0,0.0,0.0,0.0,0.0,0.0,0.0,0.0,0.0,0.0,0.0,0.0,0.0,0.0,0.0,0.0,0.0,0.0,0.0,0.0,0.0,0.0,0.0,0.0,0.0,0.0,0.0,0.0,0.0,0.0,0.0,1.042,1.175,1.2758,1.3134,1.2816,1.2395,1.193,1.0504,0.9514,0.0,0.0,0.0,0.0,0.0,0.0,0.0,0.0,0.0,0.0,0.0,0.0,0.0,0.0,0.0,0.0,0.0,0.0,0.0,0.0,0.0,0.0,0.0,0.0,0.0,0.0,0.0,0.0,0.0,0.0,0.0,0.0,0.0,0.0,0.0,0.0,0.0,0.0,0.0,0.0,0.0,0.0,0.0,0.0,0.0,0.0,0.0,0.0,0.0,0.0,0.0,0.0,0.0,0.0,0.0,0.0,0.0,0.0,0.0,0.0,0.0,0.0,0.0,0.0,0.0,0.0,0.0,0.0,0.0,0.0,0.0,0.0,0.0,0.0,0.0,0.0,0.0,0.0,0.0,0.0,0.0,0.0,0.0,0.0,0.0,0.0,0.0,0.0,0.0,0.0,0.0,0.0,0.0,0.0,0.0,0.0,0.0,0.0,0.0,0.0,0.0,0.0,0.0,0.9612,1.1123,1.2303,1.2773,1.2394,1.216,1.2233,1.0633,0.943,0.9048,0.0,0.0,0.0,0.0,0.0,0.0,0.0,0.0,0.0,0.0,0.0,0.0,0.0,0.0,0.0,0.0,0.0,0.0,0.0,0.0,0.0,0.0,0.0,0.0,0.0,0.0,0.0,0.0,0.0,0.0,0.0,0.0,0.0,0.0,0.0,0.0,0.0,0.0,0.0,0.0,0.0,0.0,0.0,0.0,0.0,0.0,0.0,0.0,0.0,0.0,0.0,0.0,0.0,0.0,0.0,0.0,0.0,0.0,0.0,0.0,0.0,0.0,0.0,0.0,0.0,0.0,0.0,0.0,0.0,0.0,0.0,0.0,0.0,0.0,0.0,0.0,0.0,0.0,0.0,0.0,0.0,0.0,0.0,0.0,0.0,0.0,0.0,0.0,0.0,0.0,0.0,0.0,0.0,0.0,0.0,0.0,0.0,0.0,0.0,0.0,0.0,0.0,0.8922,1.0349,1.1431,1.1935,1.1541,1.1351,1.1564,1.0162,0.9017,0.8418,0.0,0.0,0.0,0.0,0.0,0.0,0.0,0.0,0.0,0.0,0.0,0.0,0.0,0.0,0.0,0.0,0.0,0.0,0.0,0.0,0.0,0.0,0.0,0.0,0.0,0.0,0.0,0.0,0.0,0.0,0.0,0.0,0.0,0.0,0.0,0.0,0.0,0.0,0.0,0.0,0.0,0.0,0.0,0.0,0.0,0.0,0.0,0.0,0.0,0.0,0.0,0.0,0.0,0.0,0.0,0.0,0.0,0.0,0.0,0.0,0.0,0.0,0.0,0.0,0.0,0.0,0.0,0.0,0.0,0.0,0.0,0.0,0.0,0.0,0.0,0.0,0.0,0.0,0.0,0.0,0.0,0.0,0.0,0.0,0.0,0.0,0.0,0.0,0.0,0.0,0.0,0.0,0.0,0.0,0.0,0.0,0.0,0.0,0.0,0.0,0.0,0.0,0.8324,0.9519,1.0438,1.0864,1.0551,1.0312,1.0333,0.9432,0.8527,0.7753,0.0,0.0,0.0,0.0,0.0,0.0,0.0,0.0,0.0,0.0,0.0,0.0,0.0,0.0,0.0,0.0,0.0,0.0,0.0,0.0,0.0,0.0,0.0,0.0,0.0,0.0,0.0,0.0,0.0,0.0,0.0,0.0,0.0,0.0,0.0,0.0,0.0,0.0,0.0,0.0,0.0,0.0,0.0,0.0,0.0,0.0,0.0,0.0,0.0,0.0,0.0,0.0,0.0,0.0,0.0,0.0,0.0,0.0,0.0,0.0,-0.5307,0.0,0.0,0.0,0.0,0.0,0.0,0.0,0.0,0.0,0.0,0.0,0.0,0.0,0.0,0.0,0.0,0.0,0.0,0.0,0.0,0.0,0.0,0.0,0.0,0.0,0.0,0.0,0.0,0.0,0.0,0.0,0.0,0.0,0.0,0.0,0.0,0.0,0.0,0.0,0.0,0.0,0.789,0.9316,1.0438,1.0864,1.0551,1.0396,1.0607,0.9791,0.9035,0.849,0.0,0.0,0.0,0.0,0.0,0.0,0.0,0.0,0.0,0.0,0.0,0.0,0.0,0.0,0.0,0.0,0.0,0.0,0.0,0.0,0.0,0.0,0.0,0.0,0.0,0.0,0.0,0.0,0.0,0.0,0.0,0.0,0.0,0.0,0.0,0.0,0.0,0.0,0.0,0.0,0.0,0.0,0.0,0.0,0.0,0.0,0.0,0.0,0.0,0.0,0.0,0.0,0.0,0.0,0.0,0.0,0.0,0.0,0.0,0.0,0.0,-0.5473,0.0,0.0,0.0,0.0,0.0,0.0,0.0,0.0,0.0,0.0,0.0,0.0,0.0,0.0,0.0,0.0,0.0,0.0,0.0,0.0,0.0,0.0,0.0,0.0,0.0,0.0,0.0,0.0,0.0,0.0,0.0,0.0,0.0,0.0,0.0,0.0,0.0,0.0,0.0,0.0,0.773,0.8984,0.9946,1.0291,1.0125,1.0058,1.0221,0.9639,0.8959,0.8319,0.7793,0.0,0.0,0.0,0.0,0.0,0.0,0.0,0.0,0.0,0.0,0.0,0.0,0.0,0.0,0.0,0.0,0.0,0.0,0.0,0.0,0.0,0.0,0.0,0.0,0.0,0.0,0.0,0.0,0.0,0.0,0.0,0.0,0.0,0.0,0.0,0.0,0.0,0.0,0.0,0.0,0.0,0.0,0.0,0.0,0.0,0.0,0.0,0.0,0.0,0.0,0.0,0.0,0.0,0.0,-1.0735,-1.0241,-1.0048,-0.9507,-0.8689,-0.7639,-0.6749,-0.602,0.0,0.0,0.0,0.0,0.0,0.0,0.0,0.0,0.0,0.0,0.0,0.0,0.0,0.0,0.0,0.0,0.0,0.0,0.0,0.0,0.0,0.0,0.0,0.0,0.0,0.3688,0.3759,0.0,0.0,0.0,0.0,0.0,0.0,0.0,0.0,0.0,0.0,0.0,0.0,0.7569,0.8564,0.9328,0.9585,0.9683,0.9703,0.9703,0.9409,0.8821,0.7956,0.7689,0.6877,0.0,0.0,0.0,0.0,0.0,0.0,0.0,0.0,0.0,0.0,0.0,0.0,0.0,0.0,0.0,0.0,0.0,0.0,0.0,0.0,0.0,0.0,0.0,0.0,0.0,0.0,0.0,0.0,0.0,0.0,0.0,0.0,-0.9482,-0.9537,0.0,0.0,0.0,0.0,0.0,0.0,0.0,0.0,0.0,0.0,0.0,0.0,0.0,0.0,-1.1082,-1.1378,-1.1516,-1.1533,-1.197,-1.2114,-1.2035,-1.1556,-1.1209,-1.0911,-0.9674,0.0,-0.6167,-0.6022,0.0,0.0,0.0,0.0,0.0,0.0,0.0,0.0,0.0,0.0,0.0,0.0,0.0,0.0,0.0,0.0,0.0,0.0,0.0,0.0,0.0,0.0,0.262,0.3067,0.3194,0.3308,0.0,0.3751,0.3687,0.3397,0.0,0.0,0.0,0.0,0.0,0.0,0.0,0.0,0.695,0.8102,0.899,0.9328,0.9565,0.9703,0.9703,0.9648,0.9254,0.8378,0.7757,0.7082,0.6325,0.5704,0.0,0.0,0.0,0.0,0.0,0.0,0.0,0.0,0.0,0.0,0.0,0.0,0.0,0.0,0.0,0.0,0.0,0.0,0.0,0.0,0.0,0.0,0.0,0.0,0.0,0.0,0.0,0.0,0.0,-1.0123,-1.0879,-1.0419,-1.0566,-1.052,0.0,0.0,0.0,0.0,0.0,0.0,0.0,0.0,0.0,-1.167,-1.1755,-1.1973,-1.2417,-1.2642,-1.2746,-1.2746,-1.3168,-1.3237,-1.2985,-1.2475,-1.1846,-1.1178,-1.0017,-0.8739,-0.7461,-0.6934,-0.6396,-0.5881,0.0,0.0,0.0,0.0,0.0,-0.4448,-0.4432,0.0,0.0,0.0,0.0,0.0,0.0,0.0,0.0,0.0,0.0,0.0,0.0,0.0,0.0,0.2746,0.2883,0.3014,0.347,0.3571,0.3544,0.0,0.3955,0.4284,0.3987,0.0,0.0,0.0,0.0,0.0,0.7093,0.7772,0.8264,0.8545,0.8744,0.8866,0.8866,0.8886,0.8591,0.7821,0.751,0.695,0.6092,0.5715,0.5297,0.0,0.0,0.0,0.0,0.0,0.0,0.0,0.0,0.0,0.0,0.0,0.0,0.0,0.0,0.0,0.0,0.0,0.0,0.0,0.0,0.0,0.0,0.0,0.0,0.0,0.0,0.0,0.0,-1.1154,-1.1871,-1.1288,-1.1559,-1.1593,0.0,0.0,0.0,0.0,0.0,0.0,-1.1938,-1.2459,-1.2821,-1.3113,-1.3281,-1.342,-1.3647,-1.3787,-1.3833,-1.3819,-1.411,-1.4093,-1.3771,-1.3181,-1.2461,-1.1645,-1.0386,-0.9547,-0.8938,-0.796,-0.7287,-0.6834,-0.6482,-0.6171,-0.5965,-0.6114,-0.5823,-0.5274,-0.5139,-0.4692,-0.4088,-0.3442,0.0,-0.2913,-0.238,0.0,0.0,0.0,0.0,0.0744,0.1333,0.0,0.1652,0.2306,0.246,0.2607,0.3113,0.334,0.3487,0.0,0.4086,0.4404,0.4231,0.0,0.0,0.0,0.0,0.6477,0.7078,0.7397,0.7662,0.7889,0.8054,0.8157,0.8198,0.8255,0.7988,0.7339,0.723,0.6691,0.5621,0.5573,0.5293,0.4713,0.0,0.0,0.0,0.0,0.0,0.0,0.0,0.0,0.0,0.0,0.0,0.0,0.0,0.0,0.0,0.0,0.0,0.0,0.0,0.0,0.0,0.0,0.0,0.0,0.0,0.0,0.0,0.0,0.0,-1.2036,-1.2386,0.0,0.0,0.0,0.0,-1.2024,-1.2753,-1.3186,-1.3204,-1.3956,-1.4519,-1.478,-1.4785,-1.4778,-1.4815,-1.48,-1.477,-1.4624,-1.4641,-1.4641,-1.4624,-1.3835,-1.3439,-1.3275,-1.1563,-1.0658,-1.0304,-0.8849,-0.8017,-0.7616,-0.7333,-0.6985,-0.6661,-0.6672,-0.6314,-0.5803,-0.5416,-0.4944,-0.4367,-0.376,-0.335,-0.3008,-0.26,-0.2142,0.0,0.0,-0.0128,0.0187,0.0774,0.095,0.109,0.1706,0.1846,0.2014,0.2619,0.3174,0.364,0.0,0.4067,0.4292,0.422,0.0,0.4853,0.5178,0.5474,0.587,0.6475,0.6943,0.7349,0.7682,0.7889,0.8054,0.8177,0.8198,0.7941,0.7335,0.7004,0.6339,0.528,0.5238,0.5068,0.4711,0.4495,0.0,0.0,0.0,0.0,0.0,0.0,0.0,0.0,0.0,0.0,0.0,0.0,0.0,0.0,0.0,0.0,0.0,0.0,0.0,0.0,0.0,0.0,0.0,0.0,0.0,0.0,0.0,0.0,-1.3268,-1.3827,0.0,-1.3681,-1.3644,-1.3644,-1.3644,-1.4157,-1.4451,-1.4451,-1.4983,-1.5331,-1.5414,-1.5541,-1.5608,-1.5619,-1.5733,-1.5789,-1.5738,-1.5635,-1.5343,-1.4808,-1.4679,-1.38,-1.2443,-1.2096,-1.133,-1.0334,-0.9805,-0.9056,-0.819,-0.7914,-0.7722,-0.7588,-0.7447,-0.7051,-0.6511,-0.6385,-0.5604,-0.4585,-0.3828,-0.3523,-0.3372,-0.3157,-0.2697,-0.2144,-0.1666,-0.0898,-0.0193,0.0112,0.0476,0.0841,0.1149,0.1233,0.1373,0.1986,0.2293,0.2682,0.3509,0.4214,0.4605,0.4307,0.5078,0.5705,0.565,0.6216,0.6642,0.669,0.684,0.6915,0.6864,0.6964,0.7091,0.7217,0.712,0.6791,0.6244,0.5935,0.5404,0.4598,0.4549,0.4353,0.3938,0.3911,0.3595,0.0,0.0,0.0,0.0,0.0,0.0,0.0,0.0,0.0,0.0,0.0,0.0,0.0,0.0,0.0,0.0,0.0,0.0,0.0,0.0,0.0,0.0,0.0,0.0,0.0,0.0,-1.4286,-1.4286,-1.5129,-1.5551,-1.5166,-1.5129,-1.5129,-1.5129,-1.5368,-1.5515,-1.5515,-1.601,-1.6303,-1.6303,-1.6551,-1.6665,-1.663,-1.6741,-1.6706,-1.6493,-1.6368,-1.5944,-1.5294,-1.4835,-1.3812,-1.2428,-1.204,-1.1348,-1.0418,-1.0334,-0.981,-0.9072,-0.865,-0.8414,-0.8274,-0.8006,-0.7647,-0.722,-0.6743,-0.5672,-0.4406,-0.3846,-0.3671,-0.3632,-0.351,-0.316,-0.2738,-0.2404,-0.1539,-0.0644,-0.0335,0.0168,0.0617,0.0701,0.0785,0.0953,0.1343,0.1623,0.2041,0.2845,0.3778,0.4468,0.4498,0.5227,0.5819,0.5746,0.632,0.6696,0.6521,0.6586,0.6611,0.6407,0.6297,0.6328,0.6617,0.619,0.5823,0.5577,0.5222,0.4728,0.4048,0.4093,0.3928,0.3507,0.3547,0.325,0.261,0.0,0.0,0.0,0.0,0.0,0.0,0.0,0.0,0.0,0.0,0.0,0.0,0.0,0.0,0.0,0.0,0.0,0.0,0.0,0.0,0.0,0.0,0.0,-1.2868,-1.4197,-1.5148,-1.5166,-1.623,-1.6798,-1.6379,-1.6343,-1.6343,-1.6343,-1.6343,-1.6343,-1.6343,-1.7092,-1.7513,-1.7513,-1.7917,-1.8007,-1.7803,-1.7803,-1.753,-1.6936,-1.6808,-1.6489,-1.6035,-1.4366,-1.3535,-1.3375,-1.1565,-1.0779,-1.0695,-1.043,-1.0322,-1.0262,-0.9589,-0.9075,-0.8676,-0.8263,-0.8114,-0.7906,-0.6422,-0.5063,-0.395,-0.383,-0.3815,-0.3769,-0.3654,-0.3504,-0.3276,-0.271,-0.1955,-0.1202,-0.0589,-0.0028,0.0364,0.0393,0.0561,0.0701,0.0701,0.1259,0.1762,0.179,0.2738,0.3808,0.4715,0.4901,0.5019,0.5336,0.5695,0.0,0.5881,0.6179,0.6364,0.6352,0.5943,0.5889,0.6413,0.5572,0.5121,0.5434,0.496,0.4387,0.3716,0.3878,0.3823,0.3496,0.3476,0.3264,0.2819,0.0,0.0,0.0,0.0,0.0,0.0,0.0,0.0,0.0,0.0,0.0,0.0,0.0,0.0,0.0,0.0,0.0,0.0,0.0,0.0,0.0,0.0,-1.4845,-1.4521,-1.5331,-1.6193,-1.6762,-1.7403,-1.7715,-1.7642,-1.7587,-1.7587,-1.7587,-1.7587,-1.7587,-1.7587,-1.7789,-1.7954,-1.7954,-1.8027,-1.8081,-1.8007,-1.8007,-1.7952,-1.7769,-1.7297,-1.6648,-1.5875,-1.5535,-1.4366,-1.2622,-1.2722,-1.2181,-1.1248,-1.0972,-1.09,-1.0791,-0.9946,-0.9526,-0.9367,-0.8908,-0.8691,-0.8374,-0.6693,-0.5864,-0.5375,-0.4254,-0.3882,-0.386,-0.3775,-0.3708,-0.3629,-0.338,-0.2822,-0.215,-0.1455,-0.084,-0.0252,0.028,0.0449,0.0477,0.0477,0.0645,0.0952,0.1539,0.1927,0.2532,0.3741,0.464,0.5198,0.5174,0.0,0.0,0.5566,0.5614,0.5601,0.5393,0.5265,0.5265,0.5469,0.5147,0.4843,0.0,0.4348,0.3999,0.3577,0.3472,0.3306,0.3067,0.3025,0.3036,0.0,0.0,0.0,0.0,0.0,0.0,0.0,0.0,0.0,0.0,0.0,0.0,0.0,0.0,0.0,0.0,0.0,0.0,0.0,0.0,0.0,0.0,-1.5479,-1.6254,-1.6551,-1.6933,-1.7364,-1.7935,-1.8375,-1.8614,-1.8614,-1.8467,-1.8338,-1.8338,-1.821,-1.8081,-1.8081,-1.8246,-1.8338,-1.8338,-1.8484,-1.8614,-1.8614,-1.8614,-1.854,-1.8338,-1.7895,-1.709,-1.5916,-1.5518,-1.4273,0.0,-1.2475,-1.205,-1.1309,-1.131,-1.1286,0.0,0.0,0.0,0.0,0.0,-0.881,-0.8151,-0.676,-0.6077,-0.5638,-0.439,-0.3981,-0.3959,-0.3865,-0.3827,-0.3835,-0.3715,-0.3251,-0.2614,-0.188,-0.1231,-0.0617,0.0084,0.028,0.0308,0.0308,0.0364,0.0533,0.1008,0.0,0.0,0.2956,0.3953,0.4641,0.4816,0.5248,0.5446,0.0,0.5319,0.533,0.51,0.4915,0.4866,0.5046,0.4647,0.0,0.0,0.0,0.3715,0.3396,0.3282,0.0,0.0,0.0,0.0,0.0,0.0,0.0,0.0,0.3861,0.4304,0.0,0.0,0.0,0.0,0.0,0.0,0.0,0.0,0.0,0.0,0.0,0.0,0.0,0.0,0.0,0.0,-1.6845,-1.7414,-1.8673,-1.877,-1.8769,-1.8854,-1.9203,-1.9405,-1.9366,-1.9017,-1.8779,-1.8779,-1.8449,-1.8228,-1.8228,0.0,0.0,0.0,0.0,-1.9292,-1.9292,-1.9213,-1.9009,-1.8779,-1.8454,-1.7564,-1.6161,-1.5056,-1.3851,-1.2617,-1.1714,-1.1266,-1.1178,-1.1357,-1.1441,-1.1405,-1.0948,-1.0575,-1.0239,-0.9718,-0.8787,0.0,0.0,0.0,0.0,-0.4396,-0.4137,-0.4083,-0.3959,-0.3927,-0.39,-0.3835,-0.3411,-0.283,-0.2022,-0.1408,-0.0842,-0.0169,0.0084,0.0168,0.0168,0.028,0.0364,0.0364,0.0952,0.1648,0.2289,0.3067,0.3788,0.4388,0.4668,0.0,0.481,0.5056,0.5189,0.5082,0.0,0.0,0.4842,0.418,0.3907,0.43,0.3897,0.3511,0.3197,0.3205,0.3188,0.3097,0.2804,0.2814,0.312,0.3332,0.3455,0.354,0.3978,0.444,0.0,0.0,0.0,0.0,0.0,0.0,0.0,0.0,0.0,0.0,0.0,0.0,0.0,0.0,0.0,-1.7531,-1.8585,-1.9369,-1.962,-2.0242,-2.0483,-1.9956,-2.0052,-2.0009,-1.9806,-1.9439,-1.9182,-1.9182,-1.9109,-1.9072,-1.9072,-1.9146,0.0,-1.9182,-1.9256,-1.9292,-1.9292,-1.8598,-1.8581,-1.9182,0.0,0.0,-1.6901,-1.6332,-1.4911,-1.2917,-1.2728,-1.2158,-1.1405,-1.1262,-1.119,-1.1202,-1.1285,-1.0912,-1.031,-1.0302,-0.943,-0.8149,-0.7263,-0.622,-0.5173,-0.4499,-0.4268,-0.424,-0.4089,-0.4051,0.0,-0.3905,-0.3768,-0.3358,-0.2257,-0.1806,-0.1353,-0.0261,0.0029,0.0028,0.0028,0.0056,0.0112,0.0224,0.0364,0.0756,0.162,0.279,0.3759,0.4201,0.4293,0.4303,0.4177,0.4236,0.4257,0.4221,0.4147,0.4083,0.4036,0.4023,0.3965,0.3834,0.355,0.3282,0.3039,0.2835,0.2651,0.2468,0.2411,0.2471,0.2637,0.2843,0.3214,0.3765,0.4431,0.4802,0.0,0.0,0.0,0.0,0.0,0.0,0.0,0.0,0.0,0.0,0.0,-1.6074,-1.7148,0.0,-1.8359,-1.9416,-2.0042,-2.0527,-2.0832,-2.1365,-2.1343,-2.0472,-2.0393,-2.0352,-2.0228,-1.9861,-1.9622,-1.9622,-1.9622,-1.9622,-1.9622,-1.9201,-1.8958,-1.8958,-1.8342,-1.7997,-1.7997,-1.7553,-1.7553,-1.7997,-1.7369,-1.6669,-1.6015,-1.5724,-1.4554,-1.2759,-1.2529,-1.2056,-1.1437,-1.1323,-1.1285,-1.1347,-1.1585,-1.1273,-1.0707,-1.0693,-0.9916,-0.8694,-0.7678,-0.6547,-0.5413,-0.4584,-0.43,-0.4289,-0.423,-0.4208,-0.4186,-0.4029,-0.3985,-0.364,-0.2349,-0.1948,-0.1564,-0.03,0.0,0.0,0.0,0.0,0.0028,0.0084,0.014,0.0449,0.1229,0.2289,0.3247,0.3821,0.4166,0.4328,0.4253,0.4239,0.4212,0.4112,0.4105,0.4045,0.3921,0.4124,0.4226,0.4153,0.3797,0.3526,0.3352,0.2931,0.2626,0.2498,0.2264,0.2201,0.2301,0.2506,0.2968,0.3678,0.4373,0.4794,0.0,0.0,0.0,0.0,0.0,0.0,0.0,0.0,-1.5089,-1.6309,-1.6992,-1.7662,-1.8773,-1.9375,-2.0039,-2.1132,-2.1264,-2.1378,-2.187,-2.2171,-2.1945,-2.0967,-2.0813,-2.0716,-2.0631,-2.0241,-2.0003,-2.0003,-2.0003,-2.0003,-2.0003,-1.9129,-1.8579,-1.8579,-1.7384,-1.6698,-1.6698,-1.6535,-1.6535,-1.6698,-1.6535,-1.5945,-1.4999,-1.4892,-1.4029,-1.2622,-1.2131,-1.1726,-1.1391,-1.1435,-1.1417,-1.1429,-1.1645,-1.1489,-1.1164,-1.1099,-1.0361,-0.9228,-0.8059,-0.6941,-0.5797,-0.4714,-0.4367,-0.4367,-0.43,-0.43,-0.4278,-0.4181,-0.4137,-0.3774,-0.2377,-0.2009,-0.1652,-0.0316,0.0,0.0,0.0,0.0,0.0,0.0,0.0084,0.0336,0.0838,0.176,0.2651,0.3428,0.4098,0.4491,0.4491,0.4491,0.4443,0.4274,0.426,0.42,0.4102,0.4285,0.4462,0.4593,0.4189,0.3888,0.3785,0.3233,0.2882,0.2839,0.2475,0.2292,0.2356,0.2553,0.3,0.3666,0.424,0.4741,-1.5449,-1.4543,-1.4114,-1.4434,-1.4531,-1.498,0.0,0.0,-1.7285,-1.813,-1.8948,-1.9727,-2.0292,-2.0723,-2.1151,-2.1719,-2.2087,-2.2298,-2.2186,-2.251,-2.2629,-2.2221,-2.1857,-2.1483,-2.1078,-2.0686,-2.0406,-2.0406,-2.0406,-2.0406,-2.0406,-1.927,-1.8579,-1.8579,-1.7384,-1.6698,-1.6698,-1.5918,-1.5918,-1.6698,-1.5918,-1.5462,-1.5335,-1.5335,-1.453,-1.3155,-1.2296,-1.1726,-1.1378,-1.1216,-1.1116,-1.1166,-1.119,-1.1323,-1.1477,-1.1706,-1.0923,-0.9616,-0.8641,-0.7564,-0.6361,-0.5008,-0.4561,-0.4528,-0.4367,-0.43,-0.43,-0.4284,-0.4202,-0.3776,-0.2427,-0.2031,-0.1653,-0.0308,0.0,0.0,0.0,0.0,0.0,0.0,0.0,0.0084,0.028,0.1287,0.2348,0.3206,0.3987,0.4491,0.4491,0.4491,0.4484,0.447,0.4464,0.4429,0.4357,0.4394,0.4462,0.4593,0.4264,0.4076,0.4056,0.3587,0.3328,0.3317,0.3268,0.3243,0.3268,0.3458,0.3791,0.421,0.4479,0.4915,-1.6375,-1.5723,-1.5371,0.0,-1.6113,-1.6574,-1.7519,-1.8125,-1.873,-1.959,-2.0254,-2.0859,-2.1582,-2.1855,-2.2109,0.0,-2.2711,-2.2828,-2.2761,-2.2853,-2.2785,-2.2337,-2.1727,-2.1456,-2.1808,-2.0873,-2.0207,-2.0207,-1.9557,-1.9164,-1.9164,-1.8169,-1.7608,-1.7608,-1.6372,-1.5605,-1.5418,-1.5049,-1.4993,-1.5186,-1.4824,-1.4657,-1.4657,-1.4657,-1.4074,-1.3082,-1.2565,-1.2001,-1.1447,-1.1554,-1.1395,-1.1129,-1.1248,-1.1018,-1.0674,-1.1405,-1.0684,-0.9329,-0.8808,-0.7551,-0.6054,-0.5356,-0.4932,-0.4705,-0.4608,-0.4456,-0.43,-0.43,-0.4262,-0.3898,-0.2457,-0.2062,-0.1699,-0.0314,0.0,0.0,0.0,0.0,0.0,0.0,0.0,0.0028,0.0084,0.0868,0.1732,0.2428,0.3572,0.4353,0.4491,0.4491,0.4491,0.4491,0.4491,0.4491,0.4456,0.4527,0.4598,0.465,0.4353,0.4161,0.4161,0.3738,0.3492,0.3471,0.3471,0.3431,0.3407,0.3538,0.3881,0.4485,0.4599,0.5038,-1.6699,-1.6406,0.0,-1.6953,-1.75,-1.8047,-1.8594,-1.9297,-2.0039,-2.082,-2.1289,-2.1736,-2.2402,-2.2617,-2.275,-2.3042,-2.3101,-2.3101,-2.3101,-2.2766,-2.2312,-2.1897,-2.0931,-2.0634,-2.1423,-2.0377,-1.9652,-1.9652,-1.8864,-1.8369,-1.8369,-1.7417,-1.6904,-1.6904,-1.5639,-1.4856,-1.4643,-1.4563,-1.4416,-1.4202,-1.4122,-1.4082,-1.4082,-1.4082,-1.3754,-1.3136,-1.2849,-1.2368,-1.1817,-1.1881,-1.1685,-1.1347,-1.1441,-1.0908,-1.0111,-1.0797,-1.0207,-0.9036,-0.8617,-0.7526,-0.6221,-0.5662,-0.5285,-0.4979,-0.4944,-0.4717,-0.445,-0.445,-0.4361,-0.3953,-0.2501,-0.2097,-0.1755,-0.0321,0.0,0.0,0.0,0.0,0.0,0.0,0.0,0.0,0.0,0.0591,0.1203,0.1679,0.2933,0.3993,0.4353,0.4463,0.4491,0.4491,0.4491,0.4491,0.4491,0.4629,0.4691,0.4691,0.4512,0.4401,0.4457,0.4181,0.3993,0.4001,0.4001,0.3977,0.3926,0.3977,0.4274,0.4786,0.4845,0.5152,-1.6359,-1.6387,-1.6882,-1.7754,-1.8613,-1.949,-2.0331,-2.084,-2.1268,-2.1758,-2.2187,-2.248,-2.25,-2.2808,-2.3081,-2.3101,-2.3101,-2.3101,-2.3101,-2.187,-2.0941,-2.0941,-1.9609,-1.8806,0.0,-1.8982,-1.8826,-1.8826,-1.8826,-1.878,-1.878,-1.7584,-1.6904,-1.6904,-1.5639,-1.5008,-1.4995,-1.4669,-1.4522,-1.4496,-1.4215,-1.4082,-1.4082,-1.4082,-1.3921,-1.3559,-1.3136,-1.2819,-1.2512,-1.2086,-1.1874,-1.1838,-1.1585,-1.1012,-1.0268,-1.0013,-0.9568,-0.8978,-0.7962,-0.7587,-0.7331,-0.5938,-0.5489,-0.544,-0.5333,-0.5056,-0.4781,-0.4781,-0.4557,-0.3953,-0.2501,-0.2097,-0.1736,-0.0336,0.0,0.0,0.0,0.0,0.0,0.0,0.0,0.0,0.0,0.0515,0.0953,0.1118,0.215,0.3239,0.411,0.438,0.4491,0.4491,0.4491,0.4491,0.4491,0.4629,0.4691,0.4691,0.4822,0.4924,0.5069,0.5069,0.5124,0.5234,0.5234,0.5234,0.5254,0.5234,0.5262,0.5289,0.527,0.5297,-1.7044,-1.7676,-1.8633,-1.9492,-2.0137,-2.0723,-2.1309,-2.1777,-2.2051,-2.1914,-2.2227,-2.2422,-2.2148,-2.2441,-2.25,-2.1876,-2.1864,-2.1676,-2.1051,-2.0542,-1.9997,-1.9307,-1.8786,0.0,0.0,0.0,0.0,-1.8041,-1.7311,-1.6796,-1.6796,-1.6416,-1.6187,-1.6187,-1.5765,-1.5444,-1.5257,-1.515,-1.491,-1.4522,-1.4229,-1.4082,-1.4082,-1.4082,-1.3944,-1.3684,-1.3503,-1.314,-1.2654,-1.2705,-1.2363,-1.1846,-1.1323,-1.0461,-0.9429,-0.8686,-0.793,-0.7266,-0.7548,-0.7266,-0.6679,-0.6286,-0.596,-0.5654,-0.5476,-0.5218,-0.4929,-0.4693,-0.4571,-0.4187,-0.2536,-0.2104,-0.1757,-0.0323,0.0,0.0,0.0,0.0,0.0,0.0,0.0,0.0,0.0,0.0572,0.1334,0.2171,0.2804,0.3405,0.411,0.438,0.4491,0.4491,0.4491,0.4491,0.4491,0.4546,0.4574,0.4574,0.4684,0.4794,0.4829,0.5014,0.5124,0.516,0.5242,0.5297,0.5297,0.5297,0.5297,0.5297,0.5297,0.5297,-1.8164,-1.8887,-1.9766,-2.082,-2.1367,-2.1717,-2.2051,-2.2324,-2.2441,-2.2168,-2.209,-2.2031,-2.1914,-2.1588,-2.137,-2.1569,-2.0902,-2.0359,-2.0522,-1.9624,-1.873,-1.8189,-1.7552,-1.6903,0.0,0.0,0.0,-1.7016,-1.6244,-1.5784,-1.5784,-1.5784,-1.5784,-1.5784,-1.5784,-1.5738,-1.5551,-1.5444,-1.5097,-1.4522,-1.4335,-1.4188,-1.4082,-1.4082,-1.3997,-1.3828,-1.373,-1.3416,-1.2983,-1.3074,-1.2715,-1.2081,-1.1241,-1.0254,-0.9173,-0.81,-0.7123,-0.646,-0.7006,-0.6798,-0.6313,-0.6409,-0.6229,-0.596,-0.5809,-0.5544,-0.5179,-0.4952,-0.4587,-0.3929,-0.258,-0.1981,-0.1436,-0.0281,0.0,0.0,0.0,0.0,0.0,0.0,0.0,0.0097,0.0351,0.0999,0.1809,0.2859,0.3186,0.3493,0.4067,0.427,0.4408,0.4491,0.4491,0.4491,0.4491,0.4491,0.4491,0.4491,0.4574,0.4664,0.4691,0.4857,0.4987,0.5097,0.5187,0.5242,0.5297,0.5297,0.5297,0.5297,0.5297,0.5297,-1.9609,-2.0,-2.0352,-2.1602,-2.2227,-2.2539,-2.2519,-2.2519,-2.25,-2.2422,-2.1717,-2.1268,0.0,0.0,-1.9879,-2.1913,-2.0168,-1.9245,-2.1185,-1.8958,-1.7221,0.0,0.0,0.0,0.0,0.0,0.0,-1.5758,0.0,-1.5784,-1.5784,-1.5784,-1.5784,-1.5784,-1.5784,-1.5784,-1.5784,-1.5538,-1.511,-1.4549,-1.4522,-1.4362,-1.4082,-1.4082,-1.4082,-1.4082,-1.3828,-1.3603,-1.3392,-1.3137,-1.2881,-1.2504,-1.1248,-1.0312,-0.9457,-0.8129,-0.7158,-0.6491,-0.6361,-0.6306,-0.63,-0.63,-0.63,-0.63,-0.63,-0.5937,-0.5519,-0.5526,-0.451,-0.3252,-0.259,-0.1753,-0.0913,-0.0176,0.0,0.0,0.0,0.0,0.0,0.0,0.0036,0.0313,0.1051,0.1704,0.2405,0.3147,0.3299,0.349,0.3952,0.4116,0.4283,0.4491,0.4491,0.4491,0.4491,0.4491,0.4491,0.4491,0.4491,0.4546,0.4691,0.4691,0.4829,0.5069,0.5097,0.516,0.5297,0.5297,0.5297,0.5297,0.5305,0.5313,-2.0215,-2.1113,-2.1934,-2.2266,-2.2676,-2.2847,-2.2578,-2.2519,-2.2246,-2.1269,-2.0938,-2.0469,0.0,0.0,0.0,-1.8977,-1.8371,0.0,-1.7886,-1.7066,0.0,-1.6003,0.0,-1.597,-1.545,-1.5745,0.0,0.0,-1.5784,-1.5784,-1.5784,-1.5784,-1.5784,-1.5784,-1.5784,-1.5784,-1.5784,-1.5538,-1.5217,-1.4843,-1.4629,-1.4362,-1.4082,-1.4082,-1.4082,-1.4082,-1.4039,-1.387,-1.3561,-1.2656,-1.2143,-1.1746,-0.9875,-0.8905,-0.8514,-0.7506,-0.6833,-0.6504,-0.647,-0.6388,-0.63,-0.63,-0.63,-0.6261,-0.606,-0.5872,-0.5517,-0.4589,-0.4047,-0.3366,-0.1853,-0.1288,-0.0898,-0.0176,0.0,0.0,0.0,0.0,0.0,0.0,0.0529,0.1196,0.1887,0.2598,0.3272,0.3931,0.3955,0.3954,0.4123,0.426,0.4387,0.4505,0.4491,0.4491,0.4491,0.4491,0.4491,0.4491,0.4491,0.4519,0.4546,0.4664,0.4746,0.4794,0.4987,0.5124,0.5152,0.5242,0.5297,0.5305,0.5454,0.5519,-2.125,-2.1953,-2.2559,-2.2734,-2.2925,-2.2945,-2.2383,-2.209,-2.1582,-2.0273,-1.9483,0.0,-1.8021,-1.7523,0.0,0.0,0.0,0.0,-1.7142,-1.6527,-1.5967,0.0,-1.6068,0.0,-1.5605,-1.5833,-1.5974,0.0,-1.5784,-1.5784,-1.5784,-1.5784,-1.5784,-1.5784,-1.5784,-1.5784,-1.5784,-1.5671,-1.5444,-1.515,-1.499,-1.475,-1.4512,-1.4335,-1.4282,-1.4269,0.0,-1.3349,-1.3052,-1.1886,-1.1284,-1.0895,-0.92,-0.8435,-0.8252,-0.7246,-0.6817,-0.6661,-0.6593,-0.6519,-0.647,-0.634,-0.63,-0.6183,-0.5667,-0.5677,-0.554,-0.4055,-0.3504,-0.3021,-0.1607,-0.0921,-0.0524,-0.011,0.0,0.0,0.0,0.0,0.0106,0.0427,0.113,0.1913,0.2721,0.3438,0.4027,0.4458,0.4431,0.44,0.4466,0.4412,0.4484,0.4645,0.466,0.4662,0.4593,0.4593,0.4559,0.4491,0.4491,0.4491,0.4491,0.4574,0.4629,0.4691,0.4849,0.4969,0.5101,0.5269,0.5365,0.5444,0.5627,0.5734,-2.2213,-2.2384,-2.2418,-2.2635,-2.2604,-2.2337,-2.1556,-2.1,-2.0292,-1.9081,0.0,-1.6745,-1.6656,-1.5402,-1.5079,-1.7103,0.0,-1.5649,-1.7487,-1.6608,-1.5879,-1.613,-1.5927,-1.5784,-1.5784,-1.5784,-1.5784,-1.5784,-1.5784,-1.5784,-1.5784,-1.5784,-1.5784,-1.5784,-1.5784,-1.5784,-1.5784,-1.5784,-1.5685,-1.5391,-1.5391,-1.5244,-1.4995,-1.4656,-1.4435,-1.4235,0.0,0.0,-1.21,-1.0895,-1.0289,-0.9985,-0.8807,-0.8324,-0.8221,-0.726,-0.6903,-0.6869,-0.6776,-0.6715,-0.6654,-0.6416,-0.6327,-0.6165,-0.5285,-0.5356,-0.538,-0.3626,-0.2878,-0.241,-0.1454,-0.0599,0.0,0.0,0.0,0.0,0.0,0.0108,0.0357,0.0989,0.1763,0.2619,0.3464,0.4121,0.4588,0.4763,0.473,0.472,0.4845,0.4612,0.4553,0.4864,0.4887,0.4863,0.4735,0.4721,0.4667,0.4559,0.4552,0.4552,0.4552,0.4552,0.4608,0.4727,0.4755,0.4876,0.5093,0.5327,0.5492,0.5578,0.5815,0.5914,-2.1914,-2.1673,-2.1363,-2.0629,-2.0135,-1.9616,-1.8861,-1.8238,0.0,0.0,-1.5861,-1.5341,-1.4863,-1.4561,-1.4661,-1.5522,-1.5262,-1.5345,-1.6364,-1.6116,-1.5832,0.0,-1.5832,-1.5784,-1.5784,0.0,0.0,0.0,0.0,-1.5784,-1.5784,-1.5784,-1.5784,-1.5784,-1.5784,-1.5784,-1.5784,-1.5784,-1.5685,-1.5391,-1.5391,-1.5244,-1.4995,-1.4656,-1.4073,-1.3304,0.0,0.0,-1.1133,-0.9923,-0.9323,-0.9017,-0.7797,-0.7356,-0.7312,-0.7153,-0.6984,-0.6883,-0.6856,-0.6803,-0.6668,-0.6532,-0.6477,-0.6291,-0.5308,-0.4963,-0.4516,-0.2661,-0.1983,-0.1575,-0.0528,-0.012,0.0,0.0,0.0,0.0,0.0,0.057,0.1127,0.1232,0.2466,0.3576,0.375,0.4327,0.4747,0.479,0.473,0.4817,0.5092,0.4891,0.4771,0.4884,0.4887,0.4881,0.4884,0.4877,0.487,0.4843,0.4843,0.4843,0.4843,0.4843,0.4843,0.4873,0.4986,0.5053,0.5111,0.5424,0.5532,0.5442,0.5871,0.5925,-2.0998,-2.0737,-2.0466,-2.0031,-1.9519,-1.8852,-1.7854,0.0,0.0,0.0,-1.4329,-1.3737,-1.3204,-1.3304,0.0,-1.4006,-1.4338,-1.4807,-1.565,-1.5564,0.0,-1.5792,-1.5784,-1.5784,0.0,0.0,0.0,0.0,0.0,-1.5784,-1.5784,-1.5784,-1.5784,-1.5784,-1.5784,-1.5784,-1.5784,-1.5296,-1.5231,-1.5618,-1.4524,-1.4215,-1.4617,-1.3765,-1.3017,-1.2339,-1.1647,0.0,-0.9975,-0.8855,-0.8315,-0.8113,-0.7363,-0.7098,-0.7098,-0.7098,-0.7051,-0.6997,-0.6997,-0.695,-0.682,-0.6164,-0.5899,-0.5657,-0.4758,-0.4383,-0.38,-0.1788,-0.1475,-0.148,-0.0324,0.0,0.0,0.0,0.0,0.0116,0.0616,0.1039,0.1623,0.2499,0.3295,0.399,0.4442,0.473,0.4909,0.5007,0.492,0.4929,0.512,0.5111,0.517,0.5333,0.5379,0.5345,0.527,0.527,0.5237,0.5155,0.5148,0.5148,0.5148,0.5148,0.5148,0.5148,0.5212,0.5269,0.5269,0.5499,0.5564,0.5498,0.5854,0.5917,-1.977,-1.9604,-1.9392,-1.9163,-1.8643,-1.7934,-1.6864,-1.6054,0.0,-1.3841,-1.291,-1.2187,-1.1883,-1.2096,-1.2467,0.0,-1.3521,-1.4255,-1.5257,-1.5204,-1.5244,0.0,-1.5784,0.0,0.0,0.0,0.0,0.0,0.0,0.0,-1.5784,-1.5784,-1.5784,-1.5784,-1.5594,-1.5499,-1.5499,-1.4484,-1.434,-1.5105,-1.3499,-1.3125,-1.3896,-1.2822,-1.1994,-1.14,-1.0491,0.0,0.0,-0.805,-0.7614,-0.7464,-0.72,-0.7098,-0.7098,-0.7098,-0.7098,-0.7098,-0.7098,-0.6966,-0.6675,-0.5822,-0.5431,-0.5053,-0.4005,-0.3626,-0.3137,-0.1155,-0.1112,-0.139,-0.0283,0.0,0.0,0.0,0.0161,0.0476,0.1204,0.168,0.2287,0.3624,0.4003,0.4374,0.5084,0.5094,0.5067,0.5203,0.5105,0.5029,0.5181,0.5342,0.5545,0.5798,0.5804,0.5745,0.5603,0.5616,0.5555,0.5405,0.5426,0.5446,0.5446,0.5412,0.5412,0.544,0.5412,0.5392,0.5392,0.5519,0.5586,0.555,0.5829,0.5911,-1.8442,-1.8041,-1.7684,-1.6777,-1.5957,-1.5185,-1.4555,0.0,-1.2526,-1.204,-1.1409,-1.1044,-1.126,-1.13,-1.173,-1.2985,0.0,-1.3788,-1.519,-1.5378,-1.5471,-1.5792,0.0,0.0,0.0,0.0,0.0,0.0,0.0,0.0,0.0,-1.5784,-1.5784,-1.5784,-1.4914,-1.4436,-1.4436,-1.3366,-1.2872,-1.2969,-1.2775,-1.2727,-1.2823,-1.249,-1.1664,-1.0593,0.0,0.0,0.0,-0.7781,-0.7587,-0.7385,-0.7197,-0.7098,-0.7098,-0.7098,-0.7098,-0.7098,-0.7098,-0.6561,-0.5808,-0.5708,-0.5567,-0.5145,-0.328,-0.2715,-0.2418,-0.1087,-0.0742,-0.069,-0.0122,0.0,0.0,0.0,0.0619,0.1211,0.129,0.2499,0.3634,0.3794,0.4412,0.4972,0.5165,0.5094,0.5094,0.5358,0.5159,0.5129,0.5428,0.5538,0.5648,0.5867,0.5852,0.5745,0.5603,0.5705,0.5664,0.5412,0.5528,0.5569,0.5569,0.5467,0.546,0.5569,0.5467,0.5392,0.5392,0.5535,0.5528,0.5432,0.5888,0.5909,-1.722,-1.6998,-1.6683,-1.6319,-1.5589,-1.4861,-1.4229,-1.316,-1.2131,-1.1612,-1.1067,-1.0776,-1.104,-1.1094,-1.1424,-1.2478,-1.2518,-1.2852,-1.4162,-1.4335,-1.4589,-1.5231,-1.5458,0.0,0.0,0.0,0.0,0.0,0.0,0.0,0.0,-1.4532,-1.4914,-1.4914,-1.3896,-1.3318,-1.3318,-1.229,-1.2096,-1.2678,-1.1424,-1.1179,-1.1755,-1.0852,-1.0035,-0.9356,0.0,0.0,0.0,-0.7669,-0.7547,-0.7398,-0.7204,-0.7098,-0.7098,-0.7098,-0.6738,-0.6251,-0.6251,-0.5625,-0.4781,-0.4202,-0.3961,-0.3784,-0.2973,-0.2293,-0.164,-0.0926,-0.0711,-0.0582,-0.0125,0.0,0.012,0.0677,0.1052,0.1605,0.2629,0.3381,0.4051,0.4632,0.5012,0.5246,0.5331,0.5257,0.5262,0.5396,0.529,0.5328,0.5583,0.5746,0.5913,0.6196,0.6138,0.6095,0.6033,0.6081,0.6067,0.5945,0.6434,0.6544,0.6033,0.6441,0.6478,0.6027,0.5972,0.589,0.5766,0.5827,0.5779,0.563,0.5823,0.5844,-1.6178,-1.6142,-1.6082,-1.6082,-1.5543,-1.4861,-1.4229,-1.316,-1.2131,-1.1509,-1.0969,-1.0653,-1.0854,-1.0942,-1.1249,-1.2051,-1.2078,-1.2412,-1.356,-1.3733,-1.4068,0.0,0.0,0.0,0.0,0.0,0.0,0.0,0.0,0.0,0.0,-1.3125,-1.3511,-1.3811,-1.2834,-1.2242,-1.2242,-1.1219,-1.1082,-1.1765,-1.0306,-1.0019,-1.069,-0.9673,-0.9019,-0.8668,0.0,0.0,0.0,-0.7638,-0.7536,-0.7421,-0.7173,-0.7098,-0.7048,-0.6782,-0.6251,-0.5675,-0.5359,-0.4692,-0.3757,-0.3135,-0.2688,-0.2457,-0.2422,-0.1866,-0.116,-0.0815,-0.0598,-0.0425,-0.0084,0.0,0.0164,0.0764,0.1337,0.2049,0.3275,0.3915,0.4481,0.5188,0.5331,0.5279,0.5353,0.5358,0.5369,0.5407,0.5413,0.5455,0.5669,0.5871,0.6114,0.6363,0.6431,0.6416,0.6368,0.6402,0.6395,0.6306,0.6878,0.6939,0.64,0.6856,0.6872,0.63,0.6252,0.6118,0.5925,0.5925,0.5908,0.58,0.5847,0.5895,-1.5324,-1.5605,-1.5784,-1.5784,-1.5391,-1.4861,-1.4229,-1.316,-1.2131,-1.1509,-1.0969,-1.0586,-1.06,-1.0827,-1.1182,-1.1819,-1.2104,-1.2719,-1.3921,-1.4082,-1.4309,0.0,0.0,0.0,0.0,0.0,0.0,0.0,0.0,0.0,0.0,-1.1755,-1.1707,-1.2678,-1.1755,-1.1219,-1.1219,-1.0158,-0.9624,-0.9624,-0.9624,-0.9624,-0.9624,-0.9335,-0.9031,0.0,0.0,0.0,0.0,-0.7719,-0.7597,-0.7563,-0.7213,-0.7098,-0.701,-0.6074,-0.5719,-0.5586,-0.4648,-0.3712,-0.2911,-0.2911,-0.224,-0.1436,-0.1436,-0.1255,-0.1031,-0.0762,-0.0353,0.0,0.0,0.0,0.0,0.0,0.1386,0.2684,0.2726,0.4035,0.5186,0.5186,0.5099,0.5056,0.517,0.5186,0.523,0.5391,0.5413,0.5455,0.5669,0.5871,0.6114,0.6363,0.6571,0.6634,0.6525,0.6607,0.6573,0.632,0.6429,0.6511,0.6511,0.6375,0.63,0.63,0.6112,0.5919,0.58,0.58,0.58,0.5806,0.5919,0.6112,-1.4416,-1.471,-1.4883,-1.4683,-1.4349,-1.3961,-1.3574,-1.2719,-1.1891,-1.1503,-1.0969,-1.0653,-1.0854,-1.0801,-1.1122,-1.2315,-1.2371,0.0,0.0,0.0,0.0,-1.275,0.0,0.0,0.0,0.0,0.0,0.0,0.0,0.0,0.0,-1.0256,-1.0592,-1.1658,-1.0641,-1.0109,-1.0109,-0.9575,-0.9335,-0.9335,-0.913,-0.9072,-0.9023,-0.8783,0.0,0.0,0.0,0.0,0.0,-0.7828,-0.7746,-0.763,-0.6724,-0.6328,-0.6236,-0.5171,-0.4382,-0.3828,-0.3502,-0.2756,-0.1961,-0.1932,-0.174,-0.1417,-0.1261,-0.1166,-0.1031,-0.0628,-0.0268,0.0,0.0,0.0,0.03,0.156,0.2267,0.3019,0.4277,0.496,0.5353,0.5353,0.5284,0.5268,0.5347,0.5382,0.542,0.5418,0.5442,0.5591,0.5883,0.6075,0.6348,0.6688,0.6896,0.6898,0.6647,0.6675,0.6661,0.6566,0.713,0.7193,0.6668,0.7108,0.7108,0.645,0.6356,0.6261,0.6156,0.6156,0.6156,0.6156,0.6204,0.6252,-1.3587,-1.4055,-1.4309,-1.4135,-1.3868,-1.3493,-1.3133,-1.2462,-1.1686,-1.1002,-1.0516,-1.0257,-1.0393,-1.0412,-1.0784,-1.2041,-1.1983,-1.1879,0.0,0.0,0.0,-1.1898,0.0,0.0,0.0,0.0,0.0,0.0,0.0,0.0,0.0,0.0,-0.992,-1.0592,-0.9969,-0.9575,-0.9575,-0.9335,-0.9187,-0.9187,-0.8924,-0.8825,-0.8775,-0.8528,0.0,0.0,0.0,0.0,0.0,-0.743,-0.7179,-0.7063,-0.5879,-0.5412,-0.5266,-0.4229,-0.3521,-0.2954,-0.2573,-0.204,-0.1506,-0.1487,-0.1426,-0.1278,-0.1036,-0.0896,-0.0763,-0.0359,-0.0135,0.009,0.0442,0.0528,0.0921,0.2418,0.3056,0.3614,0.4732,0.5214,0.5436,0.5436,0.5398,0.5413,0.5413,0.5431,0.5458,0.5424,0.5474,0.5695,0.6285,0.6355,0.6573,0.718,0.7176,0.7024,0.6885,0.6865,0.6844,0.679,0.7244,0.7453,0.7244,0.7386,0.7275,0.6951,0.6671,0.6443,0.63,0.63,0.6454,0.6756,0.6454,0.63,0.0,-1.34,-1.3921,-1.3895,-1.3694,-1.3293,-1.2824,-1.2211,0.0,-1.0254,-0.9705,-0.9428,-0.9476,-0.97,-1.0233,-1.1179,-1.1106,-1.1147,0.0,-1.1401,0.0,0.0,0.0,0.0,0.0,0.0,0.0,0.0,0.0,0.0,0.0,0.0,-0.9575,-0.9575,-0.9575,-0.9583,-0.9583,-0.9286,-0.9187,-0.9137,-0.8874,-0.8726,-0.8726,-0.8478,0.0,0.0,0.0,0.0,0.0,-0.6654,-0.6171,-0.5961,-0.4801,-0.4292,-0.4201,-0.3251,-0.2917,-0.2776,-0.1819,-0.1513,-0.149,-0.1441,-0.1281,-0.0989,-0.0766,-0.0539,-0.0359,-0.009,0.0045,0.0314,0.1166,0.1436,0.1749,0.2777,0.3674,0.43,0.4389,0.4981,0.5518,0.5518,0.5474,0.5435,0.5435,0.5435,0.5435,0.5424,0.548,0.5846,0.677,0.6592,0.6725,0.7658,0.7401,0.718,0.7122,0.7122,0.7024,0.6896,0.6876,0.7204,0.797,0.7146,0.6996,0.7621,0.6857,0.6429,0.63,0.63,0.6679,0.7411,0.6641,0.63,-0.9823,0.0,-1.2368,-1.2104,-1.1997,-1.1868,0.0,-1.1071,-1.0371,-1.0047,-0.9313,-0.8821,-0.906,-0.9096,-0.9441,-1.0621,-1.085,-1.0866,-1.0824,0.0,0.0,0.0,0.0,0.0,0.0,0.0,0.0,0.0,0.0,0.0,0.0,0.0,-0.9575,-0.9575,-0.9385,-0.9286,-0.9286,-0.9031,-0.8783,-0.8584,-0.8336,-0.8187,-0.8187,-0.8137,0.0,0.0,0.0,0.0,-0.6736,-0.6454,-0.5892,-0.5038,-0.393,-0.3477,-0.3378,-0.229,-0.1944,-0.1894,-0.1645,-0.1442,-0.1234,-0.1022,-0.0804,-0.0553,-0.0468,-0.046,-0.0359,-0.009,0.0539,0.1122,0.1346,0.1972,0.2777,0.376,0.4121,0.4478,0.5196,0.5531,0.5648,0.5648,0.5621,0.5648,0.5648,0.5648,0.5616,0.5481,0.5491,0.5604,0.5972,0.6025,0.6368,0.7318,0.7723,0.7825,0.7497,0.7146,0.6923,0.6889,0.6817,0.6833,0.7,0.6798,0.6709,0.6791,0.6481,0.6334,0.63,0.63,0.6416,0.657,0.6377,0.63,-0.8711,-0.9811,-1.0925,-1.0779,-1.0707,-1.067,-1.0549,-0.9982,-0.9375,-0.8931,-0.8418,-0.8111,-0.8353,-0.8438,-0.8862,-1.0126,-1.0244,0.0,0.0,0.0,0.0,0.0,0.0,0.0,0.0,0.0,0.0,0.0,0.0,0.0,0.0,0.0,-0.9377,-0.9229,-0.908,-0.908,-0.9187,-0.8832,-0.8528,-0.8379,-0.8137,-0.7988,-0.7988,-0.749,0.0,0.0,0.0,0.0,-0.5632,-0.5131,-0.4576,-0.3974,-0.2871,-0.2471,-0.2421,-0.1817,-0.1617,-0.1617,-0.1617,-0.1406,-0.1144,-0.0829,-0.0239,0.0376,0.038,0.0797,0.1197,0.0831,0.1475,0.2298,0.2731,0.3222,0.3848,0.4714,0.4924,0.5062,0.5597,0.5729,0.5812,0.5812,0.5855,0.5893,0.5893,0.5893,0.5855,0.5686,0.5669,0.5802,0.6147,0.6065,0.6281,0.7107,0.7308,0.7321,0.7245,0.7347,0.7268,0.6926,0.6851,0.6972,0.7343,0.6944,0.6627,0.6518,0.6436,0.6556,0.6834,0.6493,0.6493,0.6834,0.6454,0.63,-0.8296,-0.8938,-0.9614,-0.9691,-0.9787,-0.9739,-0.9467,-0.9079,-0.8537,-0.7754,-0.7485,-0.7468,-0.7667,-0.786,-0.8383,-0.9587,0.0,0.0,-0.9484,-0.9567,0.0,0.0,0.0,0.0,0.0,0.0,0.0,0.0,0.0,0.0,0.0,0.0,0.0,-0.8825,-0.8775,-0.8775,-0.8832,-0.8535,-0.8287,-0.8081,-0.7889,-0.769,-0.7484,-0.6581,-0.6137,0.0,0.0,0.0,-0.4475,-0.3572,-0.3123,-0.2871,-0.1969,-0.1617,-0.1617,-0.1617,-0.1617,-0.1566,-0.1516,-0.1347,-0.1029,-0.0532,0.0431,0.1386,0.1535,0.2446,0.3263,0.2352,0.2723,0.3597,0.4328,0.4631,0.4936,0.5581,0.5739,0.5739,0.5739,0.586,0.5931,0.5931,0.6013,0.6083,0.6083,0.6083,0.6051,0.5947,0.5931,0.6122,0.6636,0.6343,0.6332,0.6999,0.6795,0.665,0.6833,0.7584,0.7718,0.6916,0.7004,0.731,0.7862,0.7139,0.6723,0.6746,0.6746,0.7041,0.76,0.6908,0.6908,0.7569,0.6908,0.6634,-0.7263,-0.774,-0.8258,-0.883,-0.9172,-0.9322,-0.9126,-0.8599,-0.8084,-0.795,-0.746,-0.7233,-0.7697,-0.7813,-0.8053,0.0,0.0,-0.9302,0.0,0.0,0.0,0.0,0.0,0.0,0.0,0.0,0.0,0.0,0.0,0.0,0.0,0.0,0.0,-0.8825,-0.8577,-0.8031,-0.7179,-0.7982,-0.7832,-0.6686,-0.6686,-0.6182,-0.5277,-0.5127,-0.5027,0.0,0.0,-0.4275,-0.3425,-0.3274,-0.2672,-0.1817,-0.1667,-0.1617,-0.1617,-0.1617,-0.1617,-0.1516,-0.1061,-0.0898,-0.0639,0.0797,0.1384,0.1712,0.2634,0.3695,0.4545,0.4342,0.4388,0.4509,0.4639,0.5251,0.5863,0.5988,0.6034,0.6034,0.6034,0.6045,0.6056,0.6056,0.6072,0.6083,0.6083,0.6083,0.6078,0.6062,0.6056,0.6098,0.6216,0.6029,0.6196,0.6918,0.721,0.7268,0.7054,0.7724,0.7796,0.6895,0.7501,0.7635,0.6944,0.6791,0.7053,0.7837,0.7837,0.7902,0.8,0.7886,0.7894,0.8016,0.7886,0.8243,-0.669,-0.7049,-0.7445,-0.7796,-0.8415,-0.8827,-0.8547,-0.8172,-0.784,-0.7736,-0.7496,-0.7374,-0.7652,0.0,-0.8284,-0.9023,0.0,0.0,0.0,0.0,0.0,0.0,0.0,0.0,0.0,0.0,0.0,0.0,0.0,0.0,0.0,0.0,0.0,0.0,-0.7385,-0.6781,-0.5727,-0.6226,-0.6126,-0.5527,-0.5527,-0.5277,-0.4772,-0.4225,-0.3924,-0.3924,0.0,-0.2773,-0.232,-0.232,-0.207,-0.1617,-0.1617,-0.1617,-0.1617,-0.1617,-0.1516,-0.1314,-0.096,-0.0301,0.0449,0.1307,0.2404,0.3437,0.3917,0.483,0.5687,0.5687,0.5664,0.5625,0.5567,0.5893,0.6165,0.61,0.6083,0.6083,0.6083,0.6138,0.6187,0.6187,0.6236,0.6274,0.6274,0.6274,0.6252,0.6192,0.6565,0.6822,0.6756,0.6689,0.6793,0.7111,0.6846,0.6629,0.668,0.7361,0.7577,0.701,0.7353,0.7361,0.6939,0.7411,0.7828,0.8188,0.8689,0.8926,0.886,0.8869,0.8869,0.8869,0.886,0.9105,-0.652,-0.6785,-0.7032,-0.7204,-0.7835,-0.8333,-0.801,-0.7853,-0.7725,-0.7589,-0.7573,-0.7588,0.0,-0.8076,0.0,-0.9469,-0.9855,0.0,0.0,0.0,0.0,0.0,0.0,0.0,0.0,0.0,0.0,0.0,0.0,0.0,0.0,0.0,0.0,0.0,-0.6032,-0.5527,-0.4425,-0.4425,-0.4425,-0.4425,-0.4425,-0.4275,-0.4024,-0.3224,-0.2823,-0.2773,-0.1969,-0.1617,-0.1617,-0.1617,-0.1617,-0.1617,-0.1617,-0.1617,-0.1617,-0.1516,-0.1364,-0.1162,-0.0808,0.0151,0.131,0.1814,0.3274,0.4834,0.5085,0.5737,0.6387,0.6387,0.6387,0.6365,0.6328,0.6306,0.6285,0.6192,0.617,0.617,0.617,0.6241,0.6306,0.6306,0.6377,0.6387,0.6387,0.6387,0.6404,0.6323,0.6838,0.7185,0.7085,0.7238,0.7354,0.7354,0.6852,0.6587,0.6869,0.7448,0.7647,0.7334,0.7398,0.7319,0.7054,0.7753,0.8218,0.8341,0.9058,0.9367,0.9252,0.9252,0.9252,0.9252,0.9491,0.9708,-0.6979,-0.6978,-0.7041,-0.7618,-0.7821,-0.7861,-0.7801,-0.7693,-0.7632,-0.7765,-0.7781,-0.7834,0.0,-0.839,-0.8916,-0.9431,-0.9626,0.0,0.0,0.0,0.0,0.0,0.0,0.0,0.0,0.0,0.0,0.0,0.0,0.0,0.0,0.0,0.0,0.0,0.0,-0.4425,-0.3324,-0.3324,-0.3324,-0.3324,-0.3324,-0.2773,-0.1817,-0.1768,-0.1718,-0.1718,-0.1617,-0.1617,-0.1617,-0.1617,-0.1617,-0.1617,-0.1617,-0.1617,-0.1566,-0.1314,-0.1213,-0.1112,-0.0606,0.0303,0.1411,0.267,0.3877,0.4985,0.5987,0.6337,0.6387,0.6387,0.6387,0.6387,0.6376,0.6376,0.6371,0.636,0.636,0.636,0.636,0.6371,0.6376,0.6376,0.6381,0.6387,0.6387,0.6387,0.6381,0.6376,0.642,0.647,0.6459,0.7046,0.7498,0.7498,0.7982,0.8404,0.8598,0.8683,0.8489,0.7984,0.8237,0.7929,0.6884,0.7054,0.7614,0.8476,0.8563,0.8607,0.8591,0.8591,0.8591,0.8591,0.9452,1.036,-0.65,-0.6566,-0.6638,-0.7006,-0.7477,-0.7839,-0.8023,-0.8125,-0.8207,-0.8234,-0.8217,-0.8279,0.0,0.0,-0.8889,-0.9308,0.0,0.0,0.0,0.0,0.0,0.0,0.0,0.0,0.0,0.0,0.0,0.0,0.0,0.0,0.0,0.0,0.0,0.0,0.0,-0.3274,-0.2221,-0.2221,-0.2221,-0.2221,-0.2221,-0.1969,-0.1617,-0.1617,-0.1617,-0.1617,-0.1617,-0.1617,-0.1617,-0.1617,-0.1617,-0.1617,-0.1617,-0.1617,-0.1566,-0.1314,-0.1112,-0.0808,0.0252,0.1411,0.262,0.3827,0.4931,0.5887,0.6287,0.6387,0.6387,0.6387,0.6387,0.6387,0.6387,0.6387,0.6387,0.6387,0.6387,0.6387,0.6387,0.6387,0.6387,0.6387,0.6387,0.6387,0.6387,0.6387,0.6387,0.6387,0.6836,0.7135,0.7135,0.7384,0.755,0.755,0.7759,0.7868,0.7879,0.8434,0.866,0.8333,0.872,0.8375,0.7099,0.8147,0.9038,0.9553,1.0086,1.0592,1.1101,1.1101,1.1101,1.1144,1.1488,1.1832,-0.6208,-0.6242,-0.6402,-0.6711,-0.7154,-0.7614,-0.808,-0.8301,-0.843,-0.8434,-0.8153,-0.8048,-0.8456,0.0,0.0,0.0,0.0,0.0,0.0,0.0,0.0,0.0,0.0,0.0,0.0,0.0,0.0,0.0,0.0,0.0,0.0,0.0,0.0,0.0,0.0,-0.232,-0.1617,-0.1617,-0.1617,-0.1617,-0.1617,-0.1617,-0.1617,-0.1617,-0.1617,-0.1617,-0.1617,-0.1617,-0.1617,-0.1617,-0.1617,-0.1617,-0.1617,-0.1566,-0.1465,-0.1162,-0.0707,-0.005,0.0958,0.2368,0.3827,0.4583,0.5536,0.6387,0.6387,0.6387,0.6387,0.6387,0.6387,0.6387,0.6387,0.6387,0.6387,0.6387,0.6387,0.6387,0.6387,0.6387,0.6387,0.6387,0.6387,0.6387,0.6387,0.6387,0.6487,0.6736,0.7235,0.7577,0.7577,0.7826,0.8081,0.8329,0.8525,0.8512,0.817,0.8783,0.9013,0.8625,0.9155,0.8918,0.7731,0.9072,0.9938,1.0121,1.089,1.1536,1.2068,1.2068,1.2068,1.2068,1.2374,1.2505,-0.6184,-0.6139,-0.6407,-0.6866,-0.6944,-0.7095,-0.7875,-0.8111,-0.8154,-0.8265,-0.7443,-0.7027,-0.8064,-0.7501,0.0,0.0,0.0,0.0,0.0,0.0,0.0,0.0,0.0,0.0,0.0,0.0,0.0,0.0,0.0,0.0,0.0,0.0,0.0,0.0,0.0,0.0,-0.1617,-0.1617,-0.1617,-0.1617,-0.1617,-0.1617,-0.1617,-0.1617,-0.1617,-0.1617,-0.1617,-0.1617,-0.1617,-0.1617,-0.1617,-0.1617,-0.1617,-0.1415,-0.1162,-0.0909,0.005,0.126,0.1512,0.3022,0.4784,0.4834,0.5536,0.6387,0.6387,0.6387,0.6387,0.6387,0.6387,0.6387,0.6387,0.6387,0.6387,0.6387,0.6387,0.6387,0.6387,0.6387,0.6387,0.6387,0.6387,0.6387,0.6387,0.6387,0.6686,0.7478,0.7577,0.7577,0.7633,0.8329,0.9122,0.992,1.0708,1.0855,1.0068,1.0019,0.9673,0.8874,0.9575,0.9656,0.8824,0.96,1.001,1.001,1.0473,1.0694,1.074,1.074,1.074,1.074,1.1696,1.2118,-0.5236,-0.5645,-0.625,-0.5999,-0.6215,-0.6546,-0.6793,-0.7553,-0.8069,-0.7452,-0.6381,-0.5665,-0.586,0.0,0.0,0.0,0.0,0.0,0.0,0.0,0.0,0.0,0.0,0.0,0.0,0.0,0.0,0.0,0.0,0.0,0.0,0.0,0.0,0.0,0.0,0.0,-0.1617,-0.1617,-0.1617,-0.1617,-0.1617,-0.1617,-0.1617,-0.1617,-0.1617,-0.1617,-0.1617,-0.1617,-0.1617,-0.1617,-0.1617,-0.1617,-0.1617,-0.1415,-0.106,-0.005,0.0706,0.1462,0.3224,0.4279,0.4935,0.5687,0.6137,0.6387,0.6387,0.6387,0.6387,0.6387,0.6387,0.6387,0.6387,0.6387,0.6387,0.6387,0.6387,0.6387,0.6387,0.6387,0.6387,0.6387,0.6387,0.6387,0.6387,0.6387,0.6686,0.7478,0.7577,0.7783,0.8379,0.8676,0.8874,0.9122,0.9862,1.0265,1.0019,1.0511,1.0757,1.0502,1.0699,1.0302,0.9121,0.985,1.0551,1.1112,1.1244,1.1781,1.2677,1.2677,1.2677,1.2677,1.2962,1.3099,-0.498,-0.5388,-0.5829,-0.5304,-0.5365,-0.5613,-0.5779,-0.6443,-0.6918,-0.6399,-0.531,-0.4564,-0.4893,-0.4614,0.0,0.0,0.0,0.0,0.0,0.0,0.0,0.0,0.0,0.0,0.0,0.0,0.0,0.0,0.0,0.0,0.0,0.0,0.0,0.0,0.0,0.0,-0.1617,-0.1617,-0.1617,-0.1617,-0.1617,-0.1617,-0.1617,-0.1617,-0.1617,-0.1617,-0.1617,-0.1617,-0.1617,-0.1617,-0.1617,-0.1617,-0.1617,-0.1111,-0.0303,0.0504,0.1562,0.2821,0.4279,0.5085,0.5536,0.6187,0.6387,0.6387,0.6387,0.6387,0.6387,0.6387,0.6387,0.6387,0.6387,0.6387,0.6387,0.6387,0.6387,0.6387,0.6387,0.6387,0.6387,0.6387,0.6387,0.6387,0.6387,0.6387,0.6686,0.7478,0.7875,0.828,0.8726,0.9072,0.927,0.927,1.0019,1.0364,1.0019,1.0462,1.0708,1.0708,1.0708,1.0502,1.001,1.065,1.1278,1.1768,1.196,1.2468,1.3228,1.3415,1.3508,1.3508,1.3728,1.3821,-0.4956,-0.5074,-0.5225,-0.463,-0.4384,-0.4379,-0.474,-0.4811,-0.4884,-0.5178,0.0,-0.3662,-0.4644,0.0,0.0,0.0,0.0,0.0,0.0,0.0,0.0,0.0,0.0,0.0,0.0,0.0,0.0,0.0,0.0,0.0,0.0,0.0,0.0,0.0,-0.1617,0.0,-0.1617,-0.1617,-0.1617,0.0,-0.1617,-0.1617,-0.1617,-0.1617,-0.1617,-0.1617,-0.1617,-0.1617,-0.1617,-0.1617,-0.1566,-0.1465,-0.1415,-0.0454,0.0907,0.1058,0.2668,0.4834,0.4935,0.5586,0.6387,0.6387,0.6387,0.6387,0.6387,0.6387,0.6387,0.6398,0.6403,0.6403,0.6419,0.6419,0.6419,0.6419,0.6403,0.6387,0.6387,0.6387,0.6387,0.6387,0.6387,0.6392,0.6398,0.6403,0.6703,0.7503,0.8287,0.8825,0.8825,0.9418,0.992,0.9969,1.0659,1.0806,1.0167,1.0117,1.0117,1.0117,1.0117,1.0462,1.1149,1.1688,1.1932,1.198,1.2467,1.2759,1.2807,1.3255,1.3448,1.3437,1.3968,1.4256,-0.3011,-0.3494,-0.4142,-0.3623,-0.3542,-0.3444,-0.2658,-0.2509,-0.279,-0.3801,-0.3015,-0.223,-0.2453,0.0,0.0,0.0,0.0,0.0,0.0,0.0,0.0,0.0,0.0,0.0,0.0,0.0,0.0,0.0,0.0,0.0,0.0,0.0,0.0,-0.1617,-0.1617,-0.1617,-0.1617,-0.1617,-0.1617,0.0,-0.1617,-0.1617,-0.1617,-0.1617,-0.1617,-0.1617,-0.1617,-0.1617,-0.1617,-0.1617,-0.1213,-0.0606,-0.0202,0.0706,0.1915,0.3171,0.4128,0.4935,0.5787,0.6187,0.6387,0.6387,0.6387,0.6387,0.6387,0.6387,0.6403,0.65,0.6578,0.66,0.6698,0.6725,0.6725,0.6725,0.6578,0.6387,0.6387,0.6387,0.6387,0.6387,0.6387,0.6419,0.6562,0.6578,0.6833,0.7648,0.8356,0.8825,0.8825,0.8973,0.932,0.992,1.0167,1.0462,1.0904,1.0953,1.0953,1.0953,1.0953,1.1002,1.1198,1.1296,1.159,1.198,1.2127,1.237,1.2807,1.2905,1.2953,1.2953,1.3437,1.3678,-0.2626,-0.2981,-0.3331,-0.2652,-0.2553,-0.2496,-0.1903,-0.1795,-0.1962,-0.2632,-0.2242,-0.1795,0.0,0.0,0.0,0.0,0.0,0.0,0.0,0.0,0.0,0.0,0.0,0.0,0.0,0.0,0.0,0.0,0.0,0.0,0.0,-0.1617,-0.1617,-0.1617,-0.1617,-0.1617,-0.1617,-0.1617,-0.1617,-0.1617,-0.1617,-0.1617,-0.1617,-0.1617,-0.1617,-0.1617,-0.1617,-0.1364,-0.1011,-0.1011,-0.0555,0.0252,0.0755,0.1712,0.2919,0.3977,0.488,0.5636,0.6187,0.6387,0.6387,0.6387,0.6387,0.6387,0.6387,0.6425,0.6489,0.66,0.666,0.6719,0.6785,0.6801,0.6801,0.6801,0.6703,0.6611,0.6611,0.6611,0.6611,0.6611,0.6611,0.6632,0.6698,0.7067,0.7477,0.7891,0.8911,0.9673,0.9673,0.9977,1.0348,1.0662,1.0703,1.0866,1.1149,1.1198,1.1198,1.1198,1.1198,1.1198,1.1198,1.1198,1.1345,1.159,1.1639,1.1736,1.2029,1.2273,1.2419,1.2419,1.3147,1.3497,-0.2551,-0.2676,-0.2573,-0.1883,-0.175,-0.1795,-0.1795,-0.1795,-0.1795,-0.1795,-0.1795,0.0,0.0,0.0,0.0,0.0,0.0,0.0,0.0,0.0,0.0,0.0,0.0,0.0,0.0,0.0,0.0,0.0,0.0,0.0,-0.1617,-0.1617,-0.1617,-0.1617,-0.1617,-0.1617,-0.1617,-0.1617,-0.1617,-0.1617,-0.1617,-0.1516,-0.1415,-0.1415,-0.1415,-0.1415,-0.1415,-0.0959,-0.0202,-0.0202,0.0353,0.121,0.1711,0.2766,0.4024,0.4529,0.5445,0.6419,0.6419,0.643,0.6452,0.6452,0.6452,0.6452,0.6452,0.6567,0.666,0.6698,0.6785,0.6872,0.6915,0.6926,0.6926,0.6926,0.6926,0.6904,0.6823,0.6801,0.6806,0.6828,0.685,0.6855,0.6839,0.7411,0.7986,0.8091,0.9279,1.0204,1.0369,1.0984,1.1386,1.1332,1.1314,1.135,1.1321,1.1302,1.1302,1.1302,1.1274,1.1246,1.1246,1.1217,1.1198,1.1198,1.1198,1.1198,1.1198,1.1639,1.1883,1.1883,1.2905,1.3389,-0.1329,-0.1508,-0.17,-0.1674,-0.175,-0.1795,-0.1795,-0.1795,-0.1795,0.0,-0.1795,0.0,0.0,0.0,0.0,0.0,0.0,0.0,0.0,0.0,0.0,0.0,0.0,0.0,0.0,0.0,0.0,0.0,0.0,0.0,-0.1617,-0.1617,-0.1617,-0.1617,-0.1617,-0.1617,-0.1617,-0.1617,-0.1617,-0.1617,-0.1617,-0.1213,-0.0555,-0.0555,-0.0555,-0.0555,-0.0555,-0.0101,0.0655,0.0655,0.141,0.2567,0.3118,0.4175,0.5381,0.5937,0.63,0.6594,0.6594,0.6665,0.6752,0.6752,0.6752,0.6752,0.6752,0.6763,0.6823,0.7078,0.715,0.721,0.7366,0.7421,0.7421,0.7421,0.7421,0.7307,0.6893,0.6801,0.6834,0.6942,0.704,0.7128,0.698,0.7067,0.739,0.8186,0.8342,0.8734,0.9474,0.9683,0.9988,1.0647,1.0699,1.0992,1.1686,1.1737,1.1737,1.1737,1.1567,1.1472,1.1472,1.1293,1.1198,1.1198,1.1198,1.1198,1.1198,1.1296,1.1296,1.1345,1.2419,1.2905,-0.1231,-0.1396,-0.1554,-0.1674,-0.1737,-0.1774,-0.1791,-0.1795,-0.1795,-0.1795,0.0,0.0,0.0,0.0,0.0,0.0,0.0,0.0,0.0,0.0,0.0,0.0,0.0,0.0,0.0,0.0,0.0,0.0,0.0,-0.1617,-0.1617,-0.1617,-0.1617,-0.1617,-0.1617,-0.1617,-0.1617,-0.1617,-0.1617,-0.1617,-0.1162,-0.0757,-0.0404,0.005,0.0252,0.0252,0.0252,0.0706,0.1462,0.1462,0.2267,0.3531,0.4126,0.4875,0.5701,0.6384,0.6632,0.6627,0.6698,0.6757,0.6801,0.6801,0.6801,0.6801,0.6801,0.6893,0.7073,0.7182,0.7308,0.7383,0.7491,0.7519,0.7519,0.7519,0.7519,0.7459,0.7247,0.7203,0.722,0.7274,0.7323,0.7345,0.729,0.7675,0.812,0.8507,0.9327,1.0046,1.0427,1.0833,1.1159,1.1432,1.1423,1.1535,1.178,1.1813,1.1813,1.1813,1.1737,1.169,1.169,1.1482,1.1378,1.1378,1.1255,1.1198,1.1198,1.1198,1.1198,1.1198,1.198,1.2516,-0.1272,-0.1395,-0.149,-0.1625,-0.1693,-0.1791,-0.1775,0.0,-0.1786,0.0,0.0,0.0,0.0,0.0,0.0,0.0,0.0,0.0,0.0,0.0,0.0,0.0,0.0,0.0,0.0,0.0,0.0,0.0,0.0,-0.1617,-0.1617,-0.1617,-0.1617,-0.1617,-0.1617,-0.1617,-0.1617,-0.1415,-0.1314,-0.1263,-0.0454,0.0,0.0252,0.0806,0.131,0.1613,0.126,0.1562,0.2322,0.2483,0.3251,0.4322,0.4969,0.5532,0.5991,0.6579,0.6763,0.6725,0.6817,0.6866,0.6893,0.6893,0.6915,0.6937,0.6937,0.7084,0.7308,0.7341,0.7426,0.7573,0.76,0.7611,0.7611,0.7611,0.7611,0.7589,0.7529,0.754,0.7557,0.7524,0.7546,0.7615,0.7869,0.8439,0.902,0.9483,1.0581,1.1465,1.1746,1.2247,1.2521,1.2323,1.2304,1.2209,1.1992,1.1973,1.1973,1.1973,1.1874,1.1898,1.1898,1.1699,1.1595,1.1595,1.1435,1.1302,1.1198,1.1198,1.1198,1.1198,1.1736,1.2273,-0.1164,-0.1262,-0.1355,-0.1491,-0.1602,-0.1735,-0.1794,0.0,0.0,0.0,0.0,0.0,0.0,0.0,0.0,0.0,0.0,0.0,0.0,0.0,0.0,0.0,0.0,0.0,0.0,0.0,0.0,0.0,0.0,-0.1617,-0.1617,-0.1617,-0.1617,-0.1617,-0.1617,-0.1617,-0.1617,-0.0858,-0.0454,-0.0454,0.0353,0.1159,0.1866,0.1917,0.2622,0.378,0.2471,0.237,0.3184,0.3805,0.445,0.5025,0.5693,0.6263,0.6732,0.6796,0.6872,0.697,0.6975,0.7046,0.7193,0.7193,0.7214,0.725,0.725,0.7399,0.7524,0.7638,0.7682,0.772,0.7823,0.785,0.785,0.785,0.785,0.779,0.7568,0.7611,0.766,0.754,0.7611,0.7951,0.8755,0.8962,0.9599,1.1273,1.1618,1.2012,1.2879,1.3041,1.3013,1.2813,1.2739,1.2644,1.2372,1.2354,1.2354,1.2354,1.2175,1.2071,1.2071,1.1864,1.1803,1.1803,1.1794,1.1595,1.1198,1.1198,1.1198,1.1198,1.1736,1.2273,-0.1119,-0.1217,-0.1327,-0.1408,-0.1508,-0.1591,-0.1651,-0.1762,-0.1808,0.0,0.0,0.0,0.0,0.0,0.0,0.0,0.0,0.0,0.0,0.0,0.0,0.0,0.0,0.0,0.0,0.0,0.0,0.0,0.0,0.0,-0.1617,-0.1617,-0.1617,-0.1617,-0.1617,-0.1364,-0.0858,-0.005,0.0353,0.0404,0.121,0.1715,0.2017,0.2521,0.3229,0.3984,0.3478,0.3451,0.3802,0.4442,0.485,0.512,0.5857,0.6391,0.6823,0.6975,0.7013,0.6997,0.7122,0.7177,0.7221,0.7247,0.7301,0.7277,0.7277,0.7421,0.7513,0.7475,0.7578,0.7693,0.7655,0.7758,0.7872,0.7872,0.7872,0.785,0.7763,0.778,0.7796,0.7752,0.8262,0.8823,0.9134,0.9719,1.0375,1.103,1.1518,1.197,1.2261,1.28,1.3098,1.3022,1.3013,1.2928,1.2852,1.272,1.2654,1.2654,1.2446,1.2278,1.2278,1.2081,1.1968,1.1968,1.1888,1.168,1.1397,1.1397,1.1331,1.1198,1.1736,1.2273,-0.1029,-0.1119,-0.1235,-0.1336,-0.1407,-0.1483,-0.1605,0.0,-0.1754,0.0,0.0,0.0,0.0,0.0,0.0,0.0,0.0,0.0,0.0,0.0,0.0,0.0,0.0,0.0,0.0,0.0,0.0,0.0,0.0,0.0,-0.1617,-0.1617,-0.1465,-0.1213,-0.1465,-0.1213,-0.0404,0.0404,0.0806,0.0806,0.1866,0.2421,0.2421,0.2977,0.3481,0.4034,0.4264,0.4355,0.4457,0.5058,0.5387,0.5536,0.6231,0.672,0.6937,0.715,0.7161,0.7051,0.7182,0.721,0.7226,0.7247,0.7301,0.7277,0.7277,0.7421,0.7508,0.747,0.7578,0.7693,0.7649,0.7752,0.7872,0.7872,0.7872,0.7872,0.7872,0.7872,0.7872,0.7872,0.8421,0.9031,0.97,1.0368,1.1027,1.1692,1.2184,1.2522,1.2522,1.2944,1.3249,1.3183,1.3173,1.3145,1.3127,1.3003,1.2927,1.2927,1.2673,1.255,1.255,1.2297,1.2184,1.2184,1.2043,1.1874,1.1676,1.1586,1.1444,1.1302,1.1766,1.237,0.0,0.0,0.0,0.0,0.0,0.0,-0.1646,0.0,0.0,0.0,0.0,0.0,0.0,0.0,0.0,0.0,0.0,0.0,0.0,0.0,0.0,0.0,0.0,0.0,0.0,0.0,0.0,0.0,0.0,-0.1617,-0.1617,-0.1617,-0.1263,-0.0454,-0.1162,-0.1162,-0.0353,0.0454,0.0857,0.0907,0.2471,0.3181,0.3184,0.3184,0.3484,0.4045,0.4732,0.5029,0.5089,0.576,0.6076,0.6295,0.6945,0.721,0.721,0.721,0.721,0.721,0.721,0.721,0.721,0.7215,0.7241,0.7277,0.7282,0.7426,0.7546,0.766,0.7698,0.7731,0.7839,0.7867,0.7867,0.7872,0.7872,0.7872,0.7872,0.7872,0.7872,0.7872,0.7933,0.8538,1.0482,1.0853,1.1511,1.3384,1.3693,1.3693,1.3693,1.3693,1.3618,1.3419,1.34,1.3315,1.3107,1.3136,1.3136,1.3136,1.2946,1.2832,1.2832,1.2569,1.2391,1.2391,1.2391,1.2288,1.209,1.1686,1.1529,1.151,1.1835,1.2565,-0.0927,0.0,0.0,0.0,0.0,0.0,0.0,0.0,0.0,0.0,0.0,0.0,0.0,0.0,0.0,0.0,0.0,0.0,0.0,0.0,0.0,0.0,0.0,0.0,0.0,0.0,0.0,0.0,-0.1617,-0.1617,-0.1617,-0.1617,-0.1516,-0.1263,-0.0353,0.0252,0.0454,0.1866,0.2523,0.2523,0.2977,0.3203,0.3297,0.3297,0.3836,0.4825,0.5006,0.5585,0.646,0.6652,0.6567,0.6337,0.6977,0.721,0.721,0.721,0.721,0.721,0.721,0.721,0.7226,0.7258,0.7307,0.7293,0.7442,0.7491,0.7524,0.7562,0.7633,0.7731,0.7839,0.7812,0.7769,0.785,0.7872,0.7872,0.7872,0.7872,0.7872,0.7872,0.8421,0.9335,1.0604,1.1329,1.2234,1.3504,1.3693,1.3693,1.3693,1.3693,1.3665,1.3608,1.3608,1.358,1.3523,1.3381,1.3296,1.3296,1.3098,1.3041,1.3041,1.2786,1.2673,1.2673,1.2521,1.2354,1.2307,1.2043,1.1761,1.151,1.2239,1.3098,0.0,0.0,0.0,0.0,0.0,0.0,0.0,-0.1331,0.0,0.0,0.0,0.0,0.0,0.0,0.0,0.0,0.0,0.0,0.0,0.0,0.0,0.0,0.0,0.0,0.0,0.0,0.0,-0.1617,-0.1617,-0.1617,-0.1617,-0.1617,-0.1313,-0.0605,0.0,0.0605,0.131,0.2219,0.2734,0.2757,0.3063,0.33,0.336,0.336,0.385,0.4794,0.5038,0.5732,0.6666,0.698,0.6929,0.671,0.7043,0.721,0.721,0.721,0.721,0.721,0.721,0.721,0.7221,0.7236,0.7296,0.7293,0.7421,0.7475,0.7529,0.7578,0.7682,0.7785,0.7856,0.7823,0.779,0.7856,0.7872,0.7872,0.7872,0.7872,0.7872,0.7872,0.8665,0.964,1.0604,1.1571,1.2535,1.3564,1.3693,1.3693,1.3693,1.3693,1.3693,1.3693,1.3693,1.3693,1.3693,1.358,1.3514,1.3514,1.3315,1.3202,1.3202,1.3003,1.2908,1.2823,1.2644,1.2531,1.2382,1.2184,1.2183,1.2354,1.272,1.3498,0.0,0.0,0.0,0.0,0.0,0.0,-0.1304,-0.1337,-0.1341,0.0,0.0,0.0,0.0,0.0,0.0,0.0,0.0,0.0,0.0,0.0,0.0,0.0,0.0,0.0,0.0,-0.1617,-0.1617,-0.1617,-0.1516,-0.1465,-0.1465,-0.1364,-0.0706,0.0605,0.0151,0.0555,0.1967,0.2071,0.2194,0.2229,0.2964,0.3362,0.3422,0.3422,0.3799,0.445,0.5056,0.5691,0.6359,0.6945,0.721,0.721,0.721,0.721,0.721,0.721,0.721,0.721,0.7226,0.7232,0.7232,0.7248,0.7269,0.7298,0.7315,0.7453,0.7562,0.7687,0.7796,0.7872,0.7872,0.7872,0.7872,0.7872,0.7872,0.7872,0.7872,0.7994,0.8055,0.8055,0.8726,0.964,1.0793,1.1631,1.2535,1.3564,1.3693,1.3693,1.3693,1.3693,1.3693,1.3693,1.3693,1.3693,1.3693,1.3693,1.3693,1.3693,1.3523,1.3419,1.3419,1.3211,1.3079,1.2899,1.2842,1.2663,1.2382,1.2184,1.2565,1.3513,1.3265,1.3696,0.0,-0.1212,-0.1269,0.0,0.0,0.0,0.0,-0.1155,-0.125,0.0,0.0,0.0,0.0,0.0,0.0,0.0,0.0,0.0,0.0,0.0,0.0,0.0,0.0,0.0,0.0,-0.1617,-0.1617,-0.1617,-0.1011,-0.0656,-0.0656,0.0,0.0202,-0.0151,0.0958,0.1665,0.2017,0.2715,0.305,0.3062,0.3265,0.3425,0.348,0.348,0.4105,0.521,0.5337,0.601,0.7011,0.7143,0.721,0.721,0.721,0.721,0.721,0.721,0.721,0.7226,0.7269,0.7301,0.7317,0.7415,0.7464,0.7502,0.76,0.7649,0.7693,0.7807,0.7856,0.7872,0.7872,0.7872,0.7872,0.7872,0.7872,0.7872,0.7872,0.8482,0.9031,0.9031,0.9153,0.9883,1.1631,1.2053,1.2535,1.3564,1.3693,1.3693,1.3693,1.3693,1.3693,1.3693,1.3693,1.3693,1.3693,1.3693,1.3693,1.3693,1.3655,1.3627,1.3627,1.3438,1.3306,1.3268,1.2937,1.2663,1.2382,1.2184,1.2644,1.375,1.3502,1.4005,0.0,0.0,-0.1309,-0.121,0.0,0.0,0.0,0.0,-0.1174,-0.1279,0.0,0.0,0.0,0.0,0.0,0.0,0.0,0.0,0.0,0.0,0.0,0.0,0.0,0.0,0.0,-0.1617,-0.1415,-0.1011,-0.0252,0.0202,0.0202,0.0605,0.0806,0.0807,0.1629,0.2251,0.266,0.3127,0.3382,0.3409,0.3439,0.3485,0.3542,0.3542,0.4055,0.4983,0.5258,0.5926,0.6765,0.7099,0.721,0.721,0.721,0.721,0.721,0.721,0.7192,0.7252,0.7312,0.732,0.7437,0.7497,0.7562,0.7622,0.7682,0.7741,0.7796,0.7856,0.7872,0.7872,0.7872,0.7872,0.7872,0.7872,0.7872,0.8055,0.8482,0.897,0.9579,1.0543,1.0725,1.1088,1.2053,1.2603,1.3144,1.3633,1.3693,1.3693,1.3693,1.3693,1.3693,1.3693,1.3693,1.3693,1.3693,1.3693,1.3693,1.3693,1.3693,1.3693,1.3693,1.3589,1.3495,1.3391,1.2975,1.271,1.2606,1.2335,1.2875,1.3986,1.375,1.4263,0.0,0.0,0.0,0.0,0.0,-0.1238,0.0,0.0,0.0,-0.1303,0.0,0.0,0.0,0.0,0.0,0.0,0.0,0.0,0.0,0.0,0.0,0.0,0.0,0.0,0.0,-0.1398,-0.1099,-0.0252,0.0549,0.0997,0.1007,0.1159,0.1515,0.2028,0.2213,0.265,0.3338,0.3398,0.3452,0.3496,0.3507,0.354,0.3589,0.3589,0.3977,0.4704,0.5202,0.5815,0.6487,0.6988,0.721,0.721,0.721,0.7226,0.7243,0.7243,0.7269,0.7315,0.7342,0.747,0.7557,0.7578,0.7655,0.7736,0.7736,0.7796,0.7872,0.7872,0.7872,0.7872,0.7872,0.7872,0.7872,0.7872,0.7872,0.8116,0.8848,0.9153,0.9822,1.1571,1.2053,1.2234,1.2475,1.3144,1.3693,1.3693,1.3693,1.3693,1.3693,1.3693,1.3693,1.3693,1.3693,1.3693,1.3693,1.3693,1.3693,1.3693,1.3693,1.3693,1.3693,1.3693,1.3599,1.3391,1.306,1.2927,1.288,1.2717,1.3182,1.4213,1.3976,1.447,0.0,0.0,0.0,0.0,-0.1397,0.0,0.0,0.0,-0.1185,-0.1158,0.0,0.0,0.0,0.0,0.0,0.0,0.0,0.0,0.0,0.0,0.0,0.0,0.0,0.0,0.0,0.0,-0.0382,0.0603,0.1252,0.1674,0.1861,0.2523,0.2695,0.2118,0.2799,0.3242,0.3401,0.3458,0.3491,0.3496,0.355,0.358,0.3589,0.3589,0.4201,0.5314,0.5369,0.6042,0.7099,0.7154,0.721,0.721,0.721,0.722,0.7312,0.7312,0.7394,0.7513,0.7622,0.7671,0.7698,0.7796,0.7839,0.785,0.785,0.7861,0.7872,0.7872,0.7872,0.7872,0.7872,0.7872,0.7872,0.7872,0.7872,0.7933,0.8055,0.8726,0.964,1.0725,1.1631,1.2475,1.3384,1.3633,1.3693,1.3693,1.3693,1.3693,1.3693,1.3693,1.3693,1.3693,1.3693,1.3693,1.3693,1.3693,1.3693,1.3693,1.3693,1.3693,1.3693,1.3693,1.3599,1.3391,1.3343,1.3221,1.3089,1.3318,1.3717,1.4223,1.4191,1.477,0.0,0.0,0.0,0.0,0.0,0.0,0.0,0.0,-0.1159,0.0,0.0,0.0,0.0,0.0,0.0,0.0,0.0,0.0,0.0,0.0,0.0,0.0,0.0,0.0,0.0,0.0,0.0,0.0,0.0,0.2517,0.2666,0.3061,0.314,0.2801,0.3176,0.3436,0.3461,0.3521,0.3548,0.355,0.3575,0.3589,0.3589,0.3589,0.3866,0.4369,0.5091,0.5704,0.6204,0.6932,0.7198,0.7258,0.7258,0.729,0.7277,0.7277,0.7459,0.7633,0.7682,0.7747,0.7807,0.7856,0.7872,0.7872,0.7872,0.7872,0.7872,0.7872,0.7872,0.7872,0.7872,0.7872,0.7872,0.7872,0.7872,0.8055,0.8604,0.9031,0.9761,1.1329,1.1933,1.2543,1.3504,1.3693,1.3693,1.3693,1.3693,1.3693,1.3693,1.3693,1.3693,1.3693,1.3693,1.3693,1.3693,1.3693,1.3693,1.3693,1.3693,1.3693,1.3693,1.3693,1.3646,1.3561,1.3447,1.3343,1.3249,1.3326,1.378,1.4634,1.4625,1.5083,-0.1258,0.0,0.0,0.0,0.0,0.0,0.0,0.0,0.0,0.0,0.0,0.0,0.0,0.0,0.0,0.0,0.0,0.0,0.0,0.0,0.0,0.0,0.0,0.0,0.0,0.0,0.0,0.0,0.0,0.0,0.3168,0.3289,0.333,0.3346,0.3444,0.3504,0.3521,0.3564,0.3589,0.3589,0.3589,0.3589,0.3589,0.3589,0.3698,0.3921,0.4927,0.5497,0.5747,0.6812,0.7274,0.7331,0.7331,0.7347,0.7437,0.7437,0.7568,0.7747,0.7747,0.7801,0.7872,0.7872,0.7872,0.7872,0.7872,0.7872,0.7872,0.7872,0.7872,0.7872,0.7872,0.7872,0.7872,0.7872,0.7872,0.8116,0.8787,0.9092,0.9822,1.1511,1.1993,1.2543,1.3504,1.3693,1.3693,1.3693,1.3693,1.3693,1.3693,1.3693,1.3693,1.3693,1.3693,1.3693,1.3693,1.3693,1.3693,1.3693,1.3693,1.3693,1.3693,1.3693,1.3693,1.3693,1.3551,1.3476,1.3476,1.3596,1.412,1.4966,1.5142,1.5618,0.0,0.0,0.0,0.0441,0.0,0.0,0.0,0.0,0.0822,0.0,0.0,0.0,0.0,0.0,0.0,0.0,0.0,0.0,0.0,0.0,0.0,0.0,0.0,0.0,0.0,0.0,0.0,0.0,0.0,0.0,0.3162,0.3289,0.3349,0.3409,0.3466,0.3526,0.3583,0.3586,0.3589,0.3589,0.3589,0.3589,0.3589,0.3589,0.3921,0.448,0.5146,0.576,0.6417,0.7044,0.7404,0.7513,0.7513,0.7584,0.7693,0.7693,0.7763,0.7867,0.7867,0.7867,0.7872,0.7872,0.7872,0.7872,0.7872,0.7872,0.7872,0.7872,0.7872,0.7872,0.7872,0.7872,0.7872,0.7872,0.7872,0.7933,0.7933,0.8665,0.9579,1.0664,1.1571,1.2543,1.3504,1.3693,1.3693,1.3693,1.3693,1.3693,1.3693,1.3693,1.3693,1.3693,1.3693,1.3693,1.3693,1.3693,1.3693,1.3693,1.3693,1.3693,1.3693,1.3693,1.3693,1.3693,1.3684,1.3674,1.3674,1.4631,1.5156,1.5203,1.5556,1.6357,0.0,0.0,-0.1154,-0.0242,0.0,0.0,0.0,0.0,0.0,0.0,0.0,0.0,0.0,0.0,0.0,0.0,0.0,0.0,0.0,0.0,0.0,0.0,0.0,0.0,0.0,0.0,0.0,0.0,0.0,0.0,0.0,0.3327,0.3392,0.3412,0.3507,0.3567,0.3589,0.3589,0.3589,0.3589,0.3589,0.3589,0.3589,0.3589,0.3698,0.3924,0.4591,0.5252,0.5913,0.6498,0.7115,0.7638,0.7638,0.7709,0.7807,0.7731,0.7774,0.7872,0.7872,0.7872,0.7872,0.7872,0.7872,0.7872,0.7872,0.7872,0.7872,0.7872,0.7872,0.7949,0.8032,0.8054,0.8075,0.8095,0.8111,0.83,0.8986,0.9425,1.0114,1.1861,1.242,1.2978,1.3914,1.4099,1.4005,1.3731,1.3693,1.3693,1.3693,1.3693,1.3693,1.3693,1.3693,1.3693,1.3693,1.3693,1.3693,1.3693,1.3693,1.3693,1.3693,1.3693,1.3693,1.3693,1.3693,1.3693,1.3693,1.444,1.5049,1.552,1.7074,1.7811,-0.1499,-0.1392,0.0,0.0,-0.0199,0.0,0.0901,0.0,0.0,0.0,0.0,0.0,0.0,0.0,0.0,0.0,0.0,0.0,0.0,0.0,0.0,0.0,0.0,0.0,0.0,0.0,0.2561,0.2897,0.0,0.0,0.0,0.0,0.3412,0.3412,0.3526,0.3589,0.3589,0.3589,0.36,0.3619,0.3619,0.363,0.3651,0.3651,0.3651,0.3711,0.4383,0.5053,0.5727,0.6314,0.7055,0.7763,0.7763,0.7807,0.7861,0.779,0.7807,0.7872,0.7872,0.7872,0.7872,0.7872,0.7872,0.7877,0.7982,0.7999,0.7999,0.7999,0.797,0.8008,0.8108,0.8147,0.8265,0.8661,0.8742,0.906,1.0136,1.0644,1.1277,1.2666,1.3178,1.3618,1.4182,1.4307,1.4194,1.3854,1.3807,1.3778,1.3703,1.3693,1.3693,1.3693,1.3693,1.3693,1.3693,1.3693,1.3693,1.3693,1.3693,1.3693,1.3693,1.3693,1.3693,1.3693,1.3618,1.3618,1.3693,1.4499,1.5258,1.6172,1.798,1.8988]},{"header":{"parameterUnit":"m.s-1","parameterCategory":1,"la1":30.6,"la2":29.2853,"lo1":-89.7004,"lo2":-87.6739,"dy":0.0162,"dx":0.0183,"nx":112,"ny":82,"refTime":"2025-02-27T18:00:00:Z","depth":0,"parameterNumber":3,"parameterNumberName":"V-component_of_WINDS"},"data":[0.0,0.0,0.0,0.0,0.0,0.0,0.0,0.0,0.0,0.0,0.0,0.0,0.0,0.0,0.0,0.0,0.0,0.0,0.0,0.0,0.0,0.0,0.0,0.0,0.0,0.0,0.0,0.0,0.0,0.0,0.0,0.0,0.0,0.0,0.0,0.0,0.0,0.0,0.0,0.0,0.0,0.0,0.0,0.0,0.0,0.0,0.0,0.0,0.0,0.0,0.0,0.0,0.0,0.0,0.0,0.0,0.0,0.0,0.0,0.0,0.0,0.0,0.0,0.0,0.0,0.0,0.0,0.0,0.0,0.0,0.0,0.0,0.0,0.0,0.0,0.0,0.0,0.0,0.0,0.0,0.0,0.0,0.0,0.0,0.0,0.0,0.0,0.0,0.0,0.0,0.0,1.8116,1.961,2.0443,2.0323,1.958,1.8237,1.6075,0.0,0.0,0.0,0.0,0.0,0.0,0.0,0.0,0.0,0.0,0.0,0.0,0.0,0.0,0.0,0.0,0.0,0.0,0.0,0.0,0.0,0.0,0.0,0.0,0.0,0.0,0.0,0.0,0.0,0.0,0.0,0.0,0.0,0.0,0.0,0.0,0.0,0.0,0.0,0.0,0.0,0.0,0.0,0.0,0.0,0.0,0.0,0.0,0.0,0.0,0.0,0.0,0.0,0.0,0.0,0.0,0.0,0.0,0.0,0.0,0.0,0.0,0.0,0.0,0.0,0.0,0.0,0.0,0.0,0.0,0.0,0.0,0.0,0.0,0.0,0.0,0.0,0.0,0.0,0.0,0.0,0.0,0.0,0.0,0.0,0.0,0.0,0.0,0.0,0.0,0.0,0.0,0.0,0.0,0.0,0.0,0.0,0.0,0.0,0.0,0.0,0.0,0.0,0.0,1.7184,2.0255,2.0539,2.0494,2.0477,1.918,1.7731,1.6258,0.0,0.0,0.0,0.0,0.0,0.0,0.0,0.0,0.0,0.0,0.0,0.0,0.0,0.0,0.0,0.0,0.0,0.0,0.0,0.0,0.0,0.0,0.0,0.0,0.0,0.0,0.0,0.0,0.0,0.0,0.0,0.0,0.0,0.0,0.0,0.0,0.0,0.0,0.0,0.0,0.0,0.0,0.0,0.0,0.0,0.0,0.0,0.0,0.0,0.0,0.0,0.0,0.0,0.0,0.0,0.0,0.0,0.0,0.0,0.0,0.0,0.0,0.0,0.0,0.0,0.0,0.0,0.0,0.0,0.0,0.0,0.0,0.0,0.0,0.0,0.0,0.0,0.0,0.0,0.0,0.0,0.0,0.0,0.0,0.0,0.0,0.0,0.0,0.0,0.0,0.0,0.0,0.0,0.0,0.0,0.0,0.0,0.0,0.0,0.0,0.0,0.0,0.0,1.6519,1.8119,2.0814,2.0925,2.0778,2.0678,1.9327,1.7861,1.6466,1.4027,0.0,0.0,0.0,0.0,0.0,0.0,0.0,0.0,0.0,0.0,0.0,0.0,0.0,0.0,0.0,0.0,0.0,0.0,0.0,0.0,0.0,0.0,0.0,0.0,0.0,0.0,0.0,0.0,0.0,0.0,0.0,0.0,0.0,0.0,0.0,0.0,0.0,0.0,0.0,0.0,0.0,0.0,0.0,0.0,0.0,0.0,0.0,0.0,0.0,0.0,0.0,0.0,0.0,0.0,0.0,0.0,0.0,0.0,0.0,0.0,0.0,0.0,0.0,0.0,0.0,0.0,0.0,0.0,0.0,0.0,0.0,0.0,0.0,0.0,0.0,0.0,0.0,0.0,0.0,0.0,0.0,0.0,0.0,0.0,0.0,0.0,0.0,0.0,0.0,0.0,0.0,0.0,0.0,0.0,0.0,0.0,0.0,0.0,0.0,0.0,0.0,0.0,1.8667,1.9258,2.0958,2.1103,2.0959,2.0654,1.9134,1.7627,1.6307,1.349,0.0,0.0,0.0,0.0,0.0,0.0,0.0,0.0,0.0,0.0,0.0,0.0,0.0,0.0,0.0,0.0,0.0,0.0,0.0,0.0,0.0,0.0,0.0,0.0,0.0,0.0,0.0,0.0,0.0,0.0,0.0,0.0,0.0,0.0,0.0,0.0,0.0,0.0,0.0,0.0,0.0,0.0,0.0,0.0,0.0,0.0,0.0,0.0,0.0,0.0,0.0,0.0,0.0,0.0,0.0,0.0,0.0,0.0,0.0,0.0,0.0,0.0,0.0,0.0,0.0,0.0,0.0,0.0,0.0,0.0,0.0,0.0,0.0,0.0,0.0,0.0,0.0,0.0,0.0,0.0,0.0,0.0,0.0,0.0,0.0,0.0,0.0,0.0,0.0,0.0,0.0,0.0,0.0,0.0,0.0,0.0,0.0,0.0,0.0,0.0,0.0,0.0,1.8945,2.0452,2.1213,2.1167,2.0815,2.0111,1.8038,1.636,1.5517,1.2261,0.0,0.0,0.0,0.0,0.0,0.0,0.0,0.0,0.0,0.0,0.0,0.0,0.0,0.0,0.0,0.0,0.0,0.0,0.0,0.0,0.0,0.0,0.0,0.0,0.0,0.0,0.0,0.0,0.0,0.0,0.0,0.0,0.0,0.0,0.0,0.0,0.0,0.0,0.0,0.0,0.0,0.0,0.0,0.0,0.0,0.0,0.0,0.0,0.0,0.0,0.0,0.0,0.0,0.0,0.0,0.0,0.0,0.0,0.0,0.0,0.0,0.0,0.0,0.0,0.0,0.0,0.0,0.0,0.0,0.0,0.0,0.0,0.0,0.0,0.0,0.0,0.0,0.0,0.0,0.0,0.0,0.0,0.0,0.0,0.0,0.0,0.0,0.0,0.0,0.0,0.0,0.0,0.0,0.0,0.0,0.0,0.0,0.0,0.0,0.0,0.0,0.0,1.8241,1.9585,0.0,2.0999,2.0488,2.0215,1.8161,1.6358,1.5066,0.0,0.0,0.0,0.0,0.0,0.0,0.0,0.0,0.0,0.0,0.0,0.0,0.0,0.0,0.0,0.0,0.0,0.0,0.0,0.0,0.0,0.0,0.0,0.0,0.0,0.0,0.0,0.0,0.0,0.0,0.0,0.0,0.0,0.0,0.0,0.0,0.0,0.0,0.0,0.0,0.0,0.0,0.0,0.0,0.0,0.0,0.0,0.0,0.0,0.0,0.0,0.0,0.0,0.0,0.0,0.0,0.0,0.0,0.0,0.0,0.0,0.0,0.0,0.0,0.0,0.0,0.0,0.0,0.0,0.0,0.0,0.0,0.0,0.0,0.0,0.0,0.0,0.0,0.0,0.0,0.0,0.0,0.0,0.0,0.0,0.0,0.0,0.0,0.0,0.0,0.0,0.0,0.0,0.0,0.0,0.0,0.0,0.0,0.0,0.0,0.0,0.0,1.7029,1.835,1.9726,0.0,2.1022,2.0395,2.0152,1.7889,1.5903,1.4539,0.0,0.0,0.0,0.0,0.0,0.0,0.0,0.0,0.0,0.0,0.0,0.0,0.0,0.0,0.0,0.0,0.0,0.0,0.0,0.0,0.0,0.0,0.0,0.0,0.0,0.0,0.0,0.0,0.0,0.0,0.0,0.0,0.0,0.0,0.0,0.0,0.0,0.0,0.0,0.0,0.0,0.0,0.0,0.0,0.0,0.0,0.0,0.0,0.0,0.0,0.0,0.0,0.0,0.0,0.0,0.0,0.0,0.0,0.0,0.0,0.0,0.0,0.0,0.0,0.0,0.0,0.0,0.0,0.0,0.0,0.0,0.0,0.0,0.0,0.0,0.0,0.0,0.0,0.0,0.0,0.0,0.0,0.0,0.0,0.0,0.0,0.0,0.0,0.0,0.0,0.0,0.0,0.0,0.0,0.0,0.0,0.0,0.0,0.0,0.0,0.0,0.0,1.7299,1.9508,2.1181,2.1912,2.1329,2.0579,1.9855,1.6974,1.4827,0.0,0.0,0.0,0.0,0.0,0.0,0.0,0.0,0.0,0.0,0.0,0.0,0.0,0.0,0.0,0.0,0.0,0.0,0.0,0.0,0.0,0.0,0.0,0.0,0.0,0.0,0.0,0.0,0.0,0.0,0.0,0.0,0.0,0.0,0.0,0.0,0.0,0.0,0.0,0.0,0.0,0.0,0.0,0.0,0.0,0.0,0.0,0.0,0.0,0.0,0.0,0.0,0.0,0.0,0.0,0.0,0.0,0.0,0.0,0.0,0.0,0.0,0.0,0.0,0.0,0.0,0.0,0.0,0.0,0.0,0.0,0.0,0.0,0.0,0.0,0.0,0.0,0.0,0.0,0.0,0.0,0.0,0.0,0.0,0.0,0.0,0.0,0.0,0.0,0.0,0.0,0.0,0.0,0.0,0.0,0.0,0.0,0.0,0.0,0.0,0.0,0.0,0.0,1.6733,1.8836,2.0679,2.2124,2.0989,1.999,1.9624,1.6893,1.4556,1.3073,0.0,0.0,0.0,0.0,0.0,0.0,0.0,0.0,0.0,0.0,0.0,0.0,0.0,0.0,0.0,0.0,0.0,0.0,0.0,0.0,0.0,0.0,0.0,0.0,0.0,0.0,0.0,0.0,0.0,0.0,0.0,0.0,0.0,0.0,0.0,0.0,0.0,0.0,0.0,0.0,0.0,0.0,0.0,0.0,0.0,0.0,0.0,0.0,0.0,0.0,0.0,0.0,0.0,0.0,0.0,0.0,0.0,0.0,0.0,0.0,0.0,0.0,0.0,0.0,0.0,0.0,0.0,0.0,0.0,0.0,0.0,0.0,0.0,0.0,0.0,0.0,0.0,0.0,0.0,0.0,0.0,0.0,0.0,0.0,0.0,0.0,0.0,0.0,0.0,0.0,0.0,0.0,0.0,0.0,0.0,0.0,0.0,0.0,0.0,0.0,0.0,0.0,1.6179,1.8291,2.0102,2.1477,2.0399,1.9562,1.9437,1.6954,1.4678,1.3024,0.0,0.0,0.0,0.0,0.0,0.0,0.0,0.0,0.0,0.0,0.0,0.0,0.0,0.0,0.0,0.0,0.0,0.0,0.0,0.0,0.0,0.0,0.0,0.0,0.0,0.0,0.0,0.0,0.0,0.0,0.0,0.0,0.0,0.0,0.0,0.0,0.0,0.0,0.0,0.0,0.0,0.0,0.0,0.0,0.0,0.0,0.0,0.0,0.0,0.0,0.0,0.0,0.0,0.0,0.0,0.0,0.0,0.0,0.0,0.0,0.0,0.0,0.0,0.0,0.0,0.0,0.0,0.0,0.0,0.0,0.0,0.0,0.0,0.0,0.0,0.0,0.0,0.0,0.0,0.0,0.0,0.0,0.0,0.0,0.0,0.0,0.0,0.0,0.0,0.0,0.0,0.0,0.0,0.0,0.0,0.0,0.0,0.0,0.0,0.0,0.0,0.0,1.5615,1.7855,1.9579,2.0325,1.974,1.9292,1.9281,1.7147,1.5148,1.3566,0.0,0.0,0.0,0.0,0.0,0.0,0.0,0.0,0.0,0.0,0.0,0.0,0.0,0.0,0.0,0.0,0.0,0.0,0.0,0.0,0.0,0.0,0.0,0.0,0.0,0.0,0.0,0.0,0.0,0.0,0.0,0.0,0.0,0.0,0.0,0.0,0.0,0.0,0.0,0.0,0.0,0.0,0.0,0.0,0.0,0.0,0.0,0.0,0.0,0.0,0.0,0.0,0.0,0.0,0.0,0.0,0.0,0.0,0.0,0.0,1.5524,0.0,0.0,0.0,0.0,0.0,0.0,0.0,0.0,0.0,0.0,0.0,0.0,0.0,0.0,0.0,0.0,0.0,0.0,0.0,0.0,0.0,0.0,0.0,0.0,0.0,0.0,0.0,0.0,0.0,0.0,0.0,0.0,0.0,0.0,0.0,0.0,0.0,0.0,0.0,0.0,0.0,1.4917,1.7521,1.9579,2.0325,1.974,1.9247,1.9087,1.7529,1.5848,1.413,0.0,0.0,0.0,0.0,0.0,0.0,0.0,0.0,0.0,0.0,0.0,0.0,0.0,0.0,0.0,0.0,0.0,0.0,0.0,0.0,0.0,0.0,0.0,0.0,0.0,0.0,0.0,0.0,0.0,0.0,0.0,0.0,0.0,0.0,0.0,0.0,0.0,0.0,0.0,0.0,0.0,0.0,0.0,0.0,0.0,0.0,0.0,0.0,0.0,0.0,0.0,0.0,0.0,0.0,0.0,0.0,0.0,0.0,0.0,0.0,0.0,1.7033,0.0,0.0,0.0,0.0,0.0,0.0,0.0,0.0,0.0,0.0,0.0,0.0,0.0,0.0,0.0,0.0,0.0,0.0,0.0,0.0,0.0,0.0,0.0,0.0,0.0,0.0,0.0,0.0,0.0,0.0,0.0,0.0,0.0,0.0,0.0,0.0,0.0,0.0,0.0,0.0,1.4692,1.7166,1.8955,1.9303,1.8993,1.8719,1.863,1.7569,1.6204,1.4592,1.3362,0.0,0.0,0.0,0.0,0.0,0.0,0.0,0.0,0.0,0.0,0.0,0.0,0.0,0.0,0.0,0.0,0.0,0.0,0.0,0.0,0.0,0.0,0.0,0.0,0.0,0.0,0.0,0.0,0.0,0.0,0.0,0.0,0.0,0.0,0.0,0.0,0.0,0.0,0.0,0.0,0.0,0.0,0.0,0.0,0.0,0.0,0.0,0.0,0.0,0.0,0.0,0.0,0.0,0.0,2.2318,2.1775,2.2635,2.2741,2.2271,2.1205,2.0849,2.0908,0.0,0.0,0.0,0.0,0.0,0.0,0.0,0.0,0.0,0.0,0.0,0.0,0.0,0.0,0.0,0.0,0.0,0.0,0.0,0.0,0.0,0.0,0.0,0.0,0.0,2.065,1.9564,0.0,0.0,0.0,0.0,0.0,0.0,0.0,0.0,0.0,0.0,0.0,0.0,1.4776,1.6899,1.8307,1.8218,1.8211,1.82,1.82,1.7604,1.6634,1.5323,1.4272,1.2534,0.0,0.0,0.0,0.0,0.0,0.0,0.0,0.0,0.0,0.0,0.0,0.0,0.0,0.0,0.0,0.0,0.0,0.0,0.0,0.0,0.0,0.0,0.0,0.0,0.0,0.0,0.0,0.0,0.0,0.0,0.0,0.0,1.7787,1.789,0.0,0.0,0.0,0.0,0.0,0.0,0.0,0.0,0.0,0.0,0.0,0.0,0.0,0.0,2.241,2.3265,2.3676,2.3711,2.4541,2.4906,2.4813,2.5212,2.5325,2.5243,2.5534,0.0,2.0988,2.0745,0.0,0.0,0.0,0.0,0.0,0.0,0.0,0.0,0.0,0.0,0.0,0.0,0.0,0.0,0.0,0.0,0.0,0.0,0.0,0.0,0.0,0.0,2.3448,2.2724,2.2548,2.2137,0.0,1.8132,1.5505,1.3686,0.0,0.0,0.0,0.0,0.0,0.0,0.0,0.0,1.5077,1.7082,1.8432,1.8307,1.8229,1.82,1.82,1.8097,1.773,1.7036,1.56,1.4321,1.3299,1.1254,0.0,0.0,0.0,0.0,0.0,0.0,0.0,0.0,0.0,0.0,0.0,0.0,0.0,0.0,0.0,0.0,0.0,0.0,0.0,0.0,0.0,0.0,0.0,0.0,0.0,0.0,0.0,0.0,0.0,1.9039,2.0406,1.9545,1.982,1.9579,0.0,0.0,0.0,0.0,0.0,0.0,0.0,0.0,0.0,2.2418,2.2946,2.3755,2.4974,2.5778,2.6205,2.6205,2.6999,2.7139,2.6697,2.6982,2.6923,2.6657,2.6615,2.5745,2.431,2.3409,2.1857,2.0013,0.0,0.0,0.0,0.0,0.0,1.9859,2.1661,0.0,0.0,0.0,0.0,0.0,0.0,0.0,0.0,0.0,0.0,0.0,0.0,0.0,0.0,2.4338,2.4361,2.4109,2.3219,2.1779,1.9723,0.0,1.6164,1.5513,1.2791,0.0,0.0,0.0,0.0,0.0,1.6509,1.7875,1.8726,1.8643,1.8593,1.8536,1.8536,1.8526,1.8061,1.6869,1.6152,1.5034,1.3407,1.2291,1.1106,0.0,0.0,0.0,0.0,0.0,0.0,0.0,0.0,0.0,0.0,0.0,0.0,0.0,0.0,0.0,0.0,0.0,0.0,0.0,0.0,0.0,0.0,0.0,0.0,0.0,0.0,0.0,0.0,2.0923,2.2268,2.1118,2.1682,2.1575,0.0,0.0,0.0,0.0,0.0,0.0,2.2453,2.3371,2.424,2.5057,2.5718,2.6481,2.7372,2.7957,2.8283,2.8333,2.893,2.8895,2.8313,2.8592,2.8488,2.8113,2.7686,2.7532,2.7407,2.5833,2.4404,2.3072,2.2239,2.1434,2.0802,2.141,2.1733,2.2074,2.3667,2.4277,2.4267,2.3736,0.0,2.1759,2.0487,0.0,0.0,0.0,0.0,2.2722,2.3478,0.0,2.4789,2.5403,2.5546,2.5335,2.4687,2.4539,2.3335,0.0,1.9019,1.8346,1.5001,0.0,0.0,0.0,0.0,1.7095,1.7742,1.854,1.9023,1.893,1.886,1.8816,1.8798,1.8816,1.8208,1.6829,1.6578,1.562,1.3738,1.3208,1.2394,1.1239,0.0,0.0,0.0,0.0,0.0,0.0,0.0,0.0,0.0,0.0,0.0,0.0,0.0,0.0,0.0,0.0,0.0,0.0,0.0,0.0,0.0,0.0,0.0,0.0,0.0,0.0,0.0,0.0,0.0,2.2578,2.3233,0.0,0.0,0.0,0.0,2.2496,2.3922,2.4798,2.4833,2.6247,2.7451,2.8241,2.8327,2.877,2.9715,2.9766,2.9868,2.9983,3.0018,3.0018,2.9983,3.027,3.0362,3.0349,3.0122,2.9584,2.8798,2.7436,2.6428,2.561,2.4757,2.3964,2.3325,2.3363,2.3462,2.3714,2.4686,2.5143,2.525,2.5348,2.4222,2.285,2.2821,2.2241,0.0,0.0,2.3554,2.4452,2.534,2.5607,2.5602,2.5607,2.5598,2.5585,2.5451,2.5388,2.4536,0.0,2.1295,2.0413,1.7747,0.0,1.6854,1.5938,1.654,1.7354,1.8095,1.8756,1.9146,1.9014,1.893,1.886,1.8807,1.8798,1.8483,1.7764,1.7013,1.6353,1.5781,1.4056,1.3117,1.3167,1.1412,0.0,0.0,0.0,0.0,0.0,0.0,0.0,0.0,0.0,0.0,0.0,0.0,0.0,0.0,0.0,0.0,0.0,0.0,0.0,0.0,0.0,0.0,0.0,0.0,0.0,0.0,0.0,0.0,2.4887,2.6006,0.0,2.573,2.5661,2.5661,2.5661,2.6626,2.7178,2.7178,2.8178,2.8834,2.9143,2.9695,3.0144,3.049,3.1046,3.1324,3.1393,3.1445,3.1545,3.1756,3.1213,3.127,3.1792,3.1005,3.0711,3.0772,3.0288,2.8723,2.6579,2.6296,2.6068,2.5822,2.5863,2.5974,2.6115,2.6467,2.6364,2.6005,2.5614,2.5066,2.4574,2.4603,2.4382,2.4202,2.4592,2.4945,2.5312,2.5586,2.566,2.5689,2.5677,2.5673,2.5666,2.5587,2.5561,2.5249,2.42,2.3452,2.2383,2.037,2.0272,2.0145,1.9307,1.9789,2.0144,1.9922,2.0078,2.0011,1.9449,1.9331,1.9285,1.9238,1.8731,1.8104,1.739,1.6587,1.5863,1.5219,1.4539,1.37,1.2684,1.2037,1.0784,0.0,0.0,0.0,0.0,0.0,0.0,0.0,0.0,0.0,0.0,0.0,0.0,0.0,0.0,0.0,0.0,0.0,0.0,0.0,0.0,0.0,0.0,0.0,0.0,0.0,0.0,2.6868,2.6868,2.8454,2.9248,2.8523,2.8454,2.8454,2.8454,2.8903,2.9179,2.9179,3.011,3.0662,3.0662,3.1458,3.1928,3.1946,3.2505,3.2698,3.2456,3.2563,3.2599,3.252,3.2088,3.2244,3.2803,3.1989,3.1826,3.2184,3.1924,3.0533,2.8554,2.8073,2.7736,2.7493,2.7246,2.7228,2.7304,2.7425,2.7268,2.6868,2.6125,2.5913,2.584,2.5581,2.5508,2.5517,2.5551,2.5618,2.5656,2.5623,2.5663,2.5696,2.5694,2.5691,2.5685,2.5629,2.5613,2.5583,2.5466,2.491,2.3962,2.2484,2.2527,2.2502,2.1633,2.1594,2.1481,2.0921,2.0573,2.0196,1.9646,1.9599,1.9548,1.9493,1.8771,1.7987,1.7164,1.6375,1.5588,1.4849,1.4512,1.3869,1.281,1.2474,1.1381,0.9491,0.0,0.0,0.0,0.0,0.0,0.0,0.0,0.0,0.0,0.0,0.0,0.0,0.0,0.0,0.0,0.0,0.0,0.0,0.0,0.0,0.0,0.0,0.0,2.3949,2.6561,2.8489,2.8523,3.0524,3.1593,3.0886,3.0817,3.0817,3.0817,3.0817,3.0817,3.0817,3.2145,3.2938,3.2938,3.3697,3.4135,3.4198,3.4198,3.3856,3.3239,3.3347,3.2983,3.2249,3.2941,3.3291,3.3314,3.3117,3.3052,3.3039,3.2221,3.1886,3.1701,3.007,2.9004,2.8269,2.7455,2.7174,2.7235,2.7542,2.7824,2.7886,2.7035,2.6721,2.6609,2.5797,2.5542,2.5533,2.552,2.555,2.5597,2.5696,2.5703,2.57,2.57,2.5697,2.5694,2.5694,2.5633,2.5603,2.5601,2.5517,2.5103,2.4114,2.3957,2.3613,2.2661,2.1727,0.0,2.1029,2.0209,1.966,1.9622,1.9669,1.9644,1.952,1.8964,1.8159,1.7168,1.6415,1.5687,1.4975,1.4045,1.3614,1.3702,1.2859,1.2026,1.1254,0.0,0.0,0.0,0.0,0.0,0.0,0.0,0.0,0.0,0.0,0.0,0.0,0.0,0.0,0.0,0.0,0.0,0.0,0.0,0.0,0.0,0.0,2.692,2.7096,2.8834,3.0455,3.1524,3.2731,3.3406,3.3179,3.3164,3.3164,3.3164,3.3164,3.3164,3.3164,3.3544,3.3766,3.3766,3.3992,3.4096,3.4135,3.4135,3.4032,3.3863,3.3405,3.3209,3.3283,3.2753,3.2941,3.3648,3.3359,3.381,3.4748,3.3893,3.3547,3.3336,3.1187,3.0213,2.9936,2.9137,2.8877,2.8848,2.8562,2.8505,2.8482,2.7841,2.7619,2.7464,2.6648,2.6381,2.6235,2.5677,2.5508,2.5535,2.5623,2.565,2.5702,2.5702,2.5699,2.5699,2.5699,2.5695,2.5646,2.5618,2.5552,2.5421,2.5034,2.4884,2.4454,2.358,0.0,0.0,2.1236,2.0859,2.0458,1.9867,1.9821,1.9821,1.9806,1.9043,1.8235,0.0,1.6588,1.6113,1.5971,1.5114,1.4391,1.3764,1.2972,1.2407,0.0,0.0,0.0,0.0,0.0,0.0,0.0,0.0,0.0,0.0,0.0,0.0,0.0,0.0,0.0,0.0,0.0,0.0,0.0,0.0,0.0,0.0,2.764,2.9399,3.0484,3.1432,3.2486,3.3731,3.4559,3.5007,3.5007,3.4731,3.4579,3.4579,3.4249,3.4096,3.4096,3.4407,3.4579,3.4579,3.4855,3.5007,3.5007,3.5007,3.4869,3.4579,3.4194,3.3905,3.3652,3.3278,3.3322,0.0,3.3703,3.4147,3.4934,3.481,3.4736,0.0,0.0,0.0,0.0,0.0,2.986,2.9642,2.9429,2.9378,2.9346,2.8729,2.8552,2.8397,2.7503,2.7232,2.7073,2.6223,2.6008,2.5962,2.5673,2.5634,2.5696,2.5703,2.5702,2.5701,2.5701,2.57,2.5698,2.5644,0.0,0.0,2.5454,2.5318,2.5042,2.4492,2.4043,2.3358,0.0,2.1943,2.1377,2.0549,2.0473,2.0364,1.9958,1.9171,0.0,0.0,0.0,1.6501,1.5891,1.5356,0.0,0.0,0.0,0.0,0.0,0.0,0.0,0.0,1.283,1.2771,0.0,0.0,0.0,0.0,0.0,0.0,0.0,0.0,0.0,0.0,0.0,0.0,0.0,0.0,0.0,0.0,3.0233,3.166,3.3686,3.4213,3.4658,3.5366,3.6021,3.64,3.6422,3.5766,3.5318,3.5318,3.4697,3.4372,3.4372,0.0,0.0,0.0,0.0,3.6284,3.6284,3.6326,3.6036,3.5318,3.5356,3.4847,3.3882,3.4217,3.4175,3.3858,3.414,3.429,3.4401,3.5083,3.5343,3.5231,3.3819,3.2667,3.1749,3.1177,3.0518,0.0,0.0,0.0,0.0,2.9637,2.9437,2.9287,2.8397,2.8165,2.7972,2.7073,2.6815,2.6647,2.6054,2.5782,2.5728,2.582,2.5781,2.5703,2.5703,2.5702,2.57,2.57,2.5646,2.5572,2.5522,2.5441,2.5343,2.5207,2.4441,0.0,2.3776,2.3046,2.2255,2.1477,0.0,0.0,2.0169,1.9558,1.9097,1.8812,1.8141,1.7064,1.5454,1.5492,1.5496,1.5395,1.5411,1.6163,1.7696,1.7657,1.7673,1.7696,1.511,1.4695,0.0,0.0,0.0,0.0,0.0,0.0,0.0,0.0,0.0,0.0,0.0,0.0,0.0,0.0,0.0,3.0518,3.2435,3.4147,3.5395,3.6613,3.7238,3.6947,3.7028,3.7141,3.7249,3.6559,3.6077,3.6077,3.5939,3.587,3.587,3.6008,0.0,3.6077,3.6215,3.6284,3.6284,3.66,3.6565,3.6077,0.0,0.0,3.5433,3.4925,3.4706,3.4664,3.4734,3.4937,3.5231,3.4661,3.4439,3.4476,3.486,3.3707,3.1849,3.2426,3.1836,3.0816,3.0996,3.0744,3.0304,3.0332,3.0366,3.0172,2.9326,2.9055,0.0,2.801,2.7241,2.6861,2.7525,2.6658,2.5824,2.6561,2.6211,2.5703,2.5703,2.5703,2.5703,2.5702,2.57,2.5653,2.5574,2.5473,2.515,2.4446,2.4192,2.3794,2.3102,2.2853,2.269,2.2498,2.2512,2.2166,2.1261,2.1065,2.0399,1.8952,1.8809,1.8262,1.7234,1.7902,1.8009,1.7286,1.7294,1.7443,1.7774,1.7703,1.7997,1.8607,1.7212,1.6747,0.0,0.0,0.0,0.0,0.0,0.0,0.0,0.0,0.0,0.0,0.0,2.7841,2.9702,0.0,3.1799,3.3715,3.4977,3.6005,3.682,3.7955,3.8504,3.8,3.7954,3.7976,3.8043,3.7353,3.6904,3.6904,3.6904,3.6904,3.6904,3.7082,3.7206,3.7206,3.6991,3.69,3.69,3.7113,3.7113,3.69,3.6724,3.6576,3.6398,3.6056,3.5575,3.5055,3.5138,3.5014,3.481,3.4847,3.486,3.4922,3.5789,3.4822,3.3076,3.3531,3.3077,3.2166,3.1982,3.1475,3.0897,3.0675,3.0598,3.052,3.0095,2.994,2.9785,2.89,2.8354,2.8125,2.8654,2.7862,2.7025,2.7537,2.6992,2.6211,2.5781,2.5703,2.5703,2.5703,2.5703,2.5699,2.5595,2.5522,2.53,2.4825,2.473,2.4543,2.412,2.4043,2.3889,2.3471,2.3432,2.3086,2.2235,2.2119,2.1741,2.088,2.0868,2.052,1.9638,2.006,1.9945,1.9134,1.9124,1.9132,1.9081,1.9527,1.9858,2.0215,2.0036,1.9497,0.0,0.0,0.0,0.0,0.0,0.0,0.0,0.0,2.62,2.8247,2.9431,3.0668,3.2598,3.3558,3.4709,3.6694,3.7204,3.7498,3.8072,3.889,3.9286,3.9021,3.8837,3.8756,3.8801,3.8168,3.7719,3.7719,3.7719,3.7719,3.7719,3.7952,3.8093,3.8093,3.7709,3.7505,3.7505,3.7578,3.7578,3.7505,3.7578,3.745,3.7123,3.7209,3.6666,3.5644,3.5483,3.492,3.4167,3.4934,3.5268,3.5306,3.5974,3.5491,3.4488,3.4673,3.4289,3.3559,3.2934,3.231,3.1661,3.0853,3.0588,3.0588,3.0598,3.0598,3.0443,2.9747,2.9437,2.9407,2.9788,2.9189,2.8546,2.8944,2.8242,2.7266,2.6406,2.6055,2.5898,2.5742,2.5703,2.5662,2.5611,2.5564,2.5487,2.5395,2.5335,2.5308,2.5308,2.5308,2.5038,2.4394,2.4317,2.3971,2.3115,2.2844,2.269,2.2704,2.2742,2.2479,2.1743,2.1793,2.1527,2.0862,2.0909,2.0929,2.0883,2.1568,2.1865,2.1764,2.2335,2.1835,2.6759,2.5252,2.4508,2.5,2.5169,2.5947,0.0,0.0,2.9939,3.1481,3.2903,3.4167,3.5059,3.5893,3.6728,3.7618,3.8352,3.8817,3.9016,3.9685,4.0201,4.0295,3.9737,3.9363,3.9537,3.8905,3.8479,3.8479,3.8479,3.8479,3.8479,3.8231,3.8093,3.8093,3.7709,3.7505,3.7505,3.7843,3.7843,3.7505,3.7843,3.8032,3.7957,3.7957,3.7728,3.7278,3.5964,3.492,3.413,3.4266,3.4339,3.4364,3.4439,3.4847,3.5454,3.616,3.5588,3.4384,3.3715,3.3092,3.2349,3.0965,3.052,3.0525,3.0588,3.0598,3.0598,3.0482,2.9901,2.9683,3.1273,3.0479,2.9681,3.1366,3.0508,2.9062,2.8203,2.7383,2.6641,2.5859,2.5703,2.5703,2.5702,2.5632,2.5556,2.5424,2.5352,2.5308,2.5308,2.5308,2.5269,2.5192,2.5154,2.4803,2.3943,2.3141,2.269,2.2704,2.2728,2.2683,2.2568,2.2647,2.2608,2.2531,2.2538,2.2541,2.2538,2.2628,2.2654,2.258,2.2647,2.2517,2.8434,2.7232,2.6623,0.0,2.7909,2.8635,3.0345,3.1393,3.2442,3.3931,3.5081,3.622,3.7381,3.7855,3.8294,0.0,3.9436,3.9639,3.9722,3.9985,4.0068,3.9783,4.012,4.0353,4.0165,3.9778,3.9551,3.9551,3.9876,4.0067,4.0067,4.0099,4.0136,4.0136,3.977,3.9363,3.8891,3.9077,3.8806,3.8185,3.8368,3.8433,3.8433,3.8433,3.8151,3.7593,3.6491,3.561,3.4971,3.5429,3.507,3.4253,3.4748,3.4945,3.5051,3.5764,3.5783,3.5433,3.5164,3.4416,3.348,3.2887,3.2044,3.1249,3.1303,3.097,3.0598,3.0598,3.0327,3.0376,3.1663,3.1456,3.1125,3.1991,3.125,3.0117,2.9258,2.7969,2.6875,2.6523,2.6055,2.5703,2.5703,2.5649,2.5566,2.551,2.5414,2.5332,2.5308,2.5308,2.5308,2.5308,2.5308,2.5149,2.4798,2.4428,2.4216,2.4206,2.4221,2.4215,2.4215,2.4284,2.4084,2.3574,2.3574,2.3303,2.2794,2.3327,2.351,2.3482,2.3937,2.4088,2.8924,2.8416,0.0,2.9364,3.0311,3.1258,3.2205,3.3423,3.4709,3.5971,3.6874,3.7743,3.8802,3.9174,3.9503,4.0011,4.0113,4.0113,4.0113,4.0034,3.9842,3.9402,4.01,4.0605,4.0504,4.0647,4.0742,4.0742,4.1156,4.1379,4.1379,4.1535,4.1578,4.1578,4.1277,4.0818,4.023,4.001,3.9606,3.9019,3.8799,3.8689,3.8689,3.8689,3.8309,3.7616,3.7054,3.6435,3.5836,3.6432,3.5962,3.4922,3.5343,3.5266,3.4974,3.5177,3.5597,3.6073,3.5894,3.522,3.4403,3.4064,3.3136,3.2116,3.2122,3.1563,3.0931,3.0931,3.0786,3.0802,3.1777,3.2002,3.214,3.2733,3.2226,3.1367,3.0508,2.9141,2.793,2.7461,2.6641,2.6055,2.6055,2.5813,2.5636,2.5609,2.5496,2.5391,2.5332,2.5313,2.5308,2.5308,2.5308,2.5308,2.5308,2.5283,2.5311,2.5311,2.5264,2.5284,2.5274,2.5321,2.5035,2.4401,2.4401,2.4088,2.3463,2.4088,2.4394,2.4339,2.4924,2.5181,2.8263,2.8383,2.9314,3.0751,3.2239,3.3672,3.5126,3.6096,3.6931,3.7686,3.843,3.8937,3.8971,3.9605,4.0079,4.0113,4.0113,4.0113,4.0113,3.9864,3.9698,3.9698,3.9546,3.9761,0.0,4.1532,4.216,4.216,4.216,4.218,4.218,4.1804,4.1578,4.1578,4.1277,4.1095,4.1058,4.0304,3.99,3.9827,3.9056,3.8689,3.8689,3.8689,3.8248,3.7507,3.7616,3.723,3.6468,3.6652,3.6681,3.6569,3.5789,3.5601,3.5661,3.4921,3.5248,3.6007,3.5365,3.5127,3.4863,3.3462,3.3023,3.2952,3.297,3.2381,3.1751,3.1751,3.1192,3.0802,3.1777,3.2002,3.2454,3.4217,3.3945,3.3086,3.2305,3.1406,3.0273,2.8594,2.7578,2.6953,2.6953,2.6245,2.5685,2.5601,2.5535,2.5459,2.5412,2.5327,2.5308,2.5308,2.5308,2.5308,2.5308,2.5283,2.5311,2.5311,2.5247,2.5187,2.5198,2.5198,2.5187,2.5164,2.5164,2.5164,2.5121,2.5164,2.5159,2.5153,2.5197,2.5191,2.9447,3.0615,3.2273,3.3761,3.4878,3.5893,3.6907,3.7719,3.8193,3.7956,3.8497,3.8836,3.8362,3.887,3.9466,3.9771,4.0268,4.0767,4.1094,4.1089,4.0661,3.9694,4.0633,0.0,0.0,0.0,0.0,4.2501,4.2846,4.3051,4.3051,4.2904,4.2866,4.2866,4.2732,4.2433,4.1919,4.1625,4.0965,3.99,3.9093,3.8689,3.8689,3.8689,3.8573,3.8375,3.8398,3.8028,3.741,3.797,3.763,3.6731,3.7181,3.6784,3.5972,3.5837,3.5772,3.5714,3.5895,3.5714,3.5391,3.5423,3.4687,3.3788,3.3857,3.366,3.323,3.212,3.2019,3.2072,3.1343,3.1571,3.2179,3.2889,3.3203,3.332,3.3047,3.1875,3.0742,3.0156,2.8867,2.7851,2.7851,2.7572,2.7155,2.6474,2.5864,2.5437,2.5412,2.5327,2.5308,2.5308,2.5308,2.5308,2.5308,2.5298,2.5293,2.5293,2.5273,2.5252,2.5285,2.5209,2.5187,2.522,2.5203,2.5191,2.5191,2.5191,2.5191,2.5191,2.5191,2.5191,3.1461,3.2713,3.4235,3.5971,3.7009,3.7709,3.8193,3.8667,3.887,3.8396,3.8261,3.8159,3.7956,3.7963,3.8355,3.9316,3.9939,4.0612,4.1273,4.1492,4.1217,4.0261,4.1224,4.1705,0.0,0.0,0.0,4.2922,4.3303,4.3515,4.3515,4.3515,4.3515,4.3515,4.3515,4.324,4.2727,4.2433,4.1479,3.99,3.9386,3.8982,3.8689,3.8689,3.8719,3.878,3.8773,3.8553,3.8247,3.8793,3.8419,3.7599,3.8103,3.7773,3.6965,3.6535,3.622,3.5948,3.6044,3.5806,3.5577,3.6115,3.5552,3.4687,3.4713,3.4518,3.4141,3.3385,3.3161,3.2891,3.1888,3.1813,3.2077,3.2186,3.2578,3.3047,3.3359,3.2539,3.1797,3.1797,3.0664,2.9609,2.9256,2.8615,2.8067,2.7783,2.6921,2.6095,2.5498,2.5346,2.5322,2.5308,2.5308,2.5308,2.5308,2.5308,2.5308,2.5308,2.5293,2.5316,2.5311,2.528,2.5215,2.5193,2.5214,2.5203,2.5191,2.5191,2.5191,2.5191,2.5191,2.5191,3.3964,3.4641,3.525,3.7415,3.8497,3.9039,3.9005,3.9005,3.8971,3.8836,3.7709,3.6931,0.0,0.0,3.69,3.8632,3.9264,3.9898,4.0805,4.1242,4.1447,0.0,0.0,0.0,0.0,0.0,0.0,4.3441,0.0,4.3515,4.3515,4.3515,4.3515,4.3515,4.3515,4.3515,4.3515,4.269,4.1515,3.9974,3.99,3.946,3.8689,3.8689,3.8689,3.8689,3.878,3.8818,3.8892,3.8979,3.9064,3.9063,3.8589,3.8486,3.8464,3.7048,3.6611,3.6577,3.5846,3.5538,3.55,3.55,3.55,3.55,3.55,3.5008,3.4602,3.5391,3.4551,3.3397,3.3376,3.2766,3.2174,3.2187,3.2187,3.2422,3.3164,3.3359,3.3359,3.3359,3.2734,3.1912,3.1076,2.9443,2.8571,2.9324,2.8678,2.7435,2.5674,2.545,2.5423,2.5308,2.5308,2.5308,2.5308,2.5308,2.5308,2.5308,2.5308,2.5298,2.5311,2.5311,2.5285,2.5198,2.5193,2.522,2.5191,2.5191,2.5191,2.5191,2.5229,2.5268,3.5013,3.6569,3.799,3.8565,3.9276,3.9673,3.9106,3.9005,3.8531,3.684,3.6174,3.5453,0.0,0.0,0.0,3.7547,3.9964,0.0,4.2524,4.2776,0.0,4.21,0.0,4.2572,4.2306,4.2822,0.0,0.0,4.3515,4.3515,4.3515,4.3515,4.3515,4.3515,4.3515,4.3515,4.3515,4.269,4.1809,4.0781,4.0194,3.946,3.8689,3.8689,3.8689,3.8689,3.8704,3.8765,3.8833,3.9096,3.9259,3.9338,3.9608,3.9356,3.8803,3.8613,3.7786,3.6654,3.6462,3.6,3.55,3.55,3.55,3.5507,3.5502,3.5811,3.6104,3.5761,3.5866,3.5779,3.4638,3.3725,3.2917,3.2343,3.2187,3.2266,3.2461,3.25,3.25,3.25,3.23,3.2243,3.2602,3.169,3.0803,3.0372,2.9541,2.8358,2.6596,2.6337,2.6039,2.5385,2.5308,2.5308,2.5308,2.5308,2.5308,2.5308,2.5308,2.5303,2.5298,2.5316,2.5301,2.5252,2.5215,2.5187,2.5181,2.5203,2.5191,2.5229,2.5797,2.6103,3.6806,3.8024,3.9073,3.9377,3.9808,3.9842,3.8768,3.8261,3.7381,3.5115,3.4262,0.0,3.2261,3.4298,0.0,0.0,0.0,0.0,4.283,4.3196,4.3281,0.0,4.3119,0.0,4.2873,4.3206,4.3445,0.0,4.3515,4.3515,4.3515,4.3515,4.3515,4.3515,4.3515,4.3515,4.3515,4.3057,4.2433,4.1625,4.1185,4.0524,3.9738,3.9386,3.9239,3.9203,0.0,3.8906,3.9007,3.9337,3.9514,3.9623,4.005,3.9899,3.9459,3.9338,3.8661,3.7777,3.7392,3.6969,3.6462,3.5731,3.55,3.552,3.5527,3.5842,3.6259,3.6298,3.6394,3.6359,3.5901,3.5183,3.4332,3.3515,3.3008,3.2734,3.2734,3.2461,3.2304,3.2653,3.2363,3.2444,3.364,3.271,3.1934,3.2232,3.1526,3.0347,2.8599,2.7658,2.6974,2.651,2.6428,2.6269,2.5885,2.5885,2.5692,2.5308,2.5308,2.5308,2.5308,2.5293,2.5283,2.5311,2.5241,2.5417,2.5789,2.5756,2.5935,2.6318,2.6759,2.6975,3.8865,3.9263,3.9423,4.0109,4.026,3.9783,3.8295,3.7308,3.6048,3.3726,0.0,3.1577,3.1491,3.3031,3.4888,3.6677,0.0,4.1441,4.2479,4.3123,4.348,4.3429,4.3463,4.3515,4.3515,4.3515,4.3515,4.3515,4.3515,4.3515,4.3515,4.3515,4.3515,4.3515,4.3515,4.3515,4.3515,4.3515,4.3094,4.2286,4.2286,4.1882,4.1058,4.0267,3.9932,3.9921,0.0,0.0,3.9272,3.9623,3.9785,3.9862,4.0139,4.0242,4.0183,3.9653,3.94,3.9207,3.843,3.8084,3.7738,3.6154,3.5654,3.5643,3.5626,3.5575,3.573,3.6814,3.6567,3.617,3.7003,3.6597,3.582,3.5039,3.4219,3.3594,3.3711,3.3086,3.2771,3.3579,3.2961,3.2825,3.4396,3.3261,3.2648,3.4162,3.3654,3.255,3.103,2.9327,2.815,2.7939,2.7895,2.7582,2.6851,2.6774,2.6467,2.5692,2.5654,2.5654,2.5654,2.5654,2.5644,2.5662,2.5657,2.5992,2.6666,2.678,2.7145,2.7726,2.7956,2.7975,4.0151,4.0548,4.0712,4.1263,4.0942,4.0108,3.8564,3.7086,0.0,0.0,3.1812,3.1023,3.0475,3.2513,3.4855,3.6568,3.9246,4.1595,4.3049,4.3393,4.3497,0.0,4.3497,4.3515,4.3515,0.0,0.0,0.0,0.0,4.3515,4.3515,4.3515,4.3515,4.3515,4.3515,4.3515,4.3515,4.3515,4.3094,4.2286,4.2286,4.1882,4.1058,4.0267,4.0019,4.0199,0.0,0.0,3.9476,3.9797,3.9982,4.0052,4.0347,4.043,4.0438,4.0308,3.9861,3.9284,3.913,3.8584,3.7815,3.6808,3.65,3.6374,3.578,3.5593,3.581,3.6896,3.7056,3.6998,3.7223,3.664,3.5976,3.582,3.5117,3.4687,3.5391,3.4839,3.4435,3.5291,3.4717,3.4385,3.5309,3.4613,3.4046,3.4355,3.3654,3.297,3.2613,3.1102,2.9499,2.8055,2.7895,2.7857,2.7698,2.7659,2.7621,2.7467,2.7467,2.7467,2.7467,2.7467,2.7467,2.7462,2.7402,2.7429,2.7577,2.8234,2.8292,2.7832,2.9181,2.9449,4.0989,4.1253,4.1388,4.1644,4.1153,4.0085,3.818,0.0,0.0,0.0,3.0729,3.0056,2.9312,3.1823,0.0,3.5669,3.8094,4.0545,4.2565,4.2472,0.0,4.3387,4.3515,4.3515,0.0,0.0,0.0,0.0,0.0,4.3515,4.3515,4.3515,4.3515,4.3515,4.3515,4.3515,4.3515,4.3647,4.3463,4.291,4.3251,4.3107,4.2601,4.1898,4.1441,4.1159,4.0954,0.0,3.9824,4.0568,4.0642,4.0325,4.0468,4.0516,4.0516,4.0516,4.0246,3.9938,3.9938,3.9669,3.9176,3.8375,3.7508,3.6755,3.6448,3.6023,3.5775,3.6401,3.6533,3.665,3.7147,3.6992,3.668,3.668,3.6016,3.5351,3.5307,3.5258,3.5392,3.5733,3.5433,3.5361,3.6174,3.5625,3.5206,3.5626,3.5007,3.4257,3.3754,3.2965,3.1967,3.0633,3.0506,3.0314,2.989,2.989,2.9698,2.9236,2.9198,2.9198,2.9198,2.9198,2.9198,2.9198,2.9187,2.9137,2.9137,2.9492,2.948,2.9134,2.9941,3.0088,4.1682,4.1803,4.1945,4.205,4.1385,4.0162,3.7988,3.5953,0.0,3.0995,2.9868,2.9242,2.8776,3.1005,3.3456,0.0,3.6897,3.9166,4.1919,4.1772,4.1882,0.0,4.3515,0.0,0.0,0.0,0.0,0.0,0.0,0.0,4.3515,4.3515,4.3515,4.3515,4.3583,4.3617,4.3617,4.3923,4.3971,4.3714,4.4154,4.4308,4.4072,4.346,4.2886,4.236,4.2473,0.0,0.0,4.1412,4.1336,4.0768,4.0577,4.0516,4.0516,4.0516,4.0516,4.0516,4.0516,4.0539,4.0429,3.985,3.8644,3.7434,3.7325,3.6814,3.631,3.6505,3.6389,3.638,3.7108,3.7148,3.707,3.7266,3.6914,3.6325,3.5605,3.5781,3.6099,3.599,3.5832,3.5946,3.6759,3.6245,3.6052,3.7019,3.6323,3.5505,3.493,3.4708,3.4281,3.3526,3.3128,3.2583,3.1775,3.1852,3.1506,3.0462,3.0577,3.0692,3.0692,3.05,3.05,3.0654,3.05,3.0385,3.0385,3.0521,3.0508,3.0316,3.0702,3.0765,4.2286,4.2501,4.2693,4.3142,4.2118,4.0613,3.893,0.0,3.3392,3.1571,3.0014,2.915,2.982,3.0222,3.1688,3.5555,0.0,3.7881,4.1735,4.2249,4.2506,4.3387,0.0,0.0,0.0,0.0,0.0,0.0,0.0,0.0,0.0,4.3515,4.3515,4.3515,4.3779,4.3939,4.3939,4.4236,4.4341,4.4313,4.4369,4.4383,4.4355,4.3557,4.3341,4.3494,0.0,0.0,0.0,4.198,4.1698,4.1615,4.0816,4.0516,4.0516,4.0516,4.0516,4.0516,4.0516,4.0566,4.0681,4.0616,3.9926,3.9077,3.8454,3.8224,3.8166,3.8305,3.7805,3.7181,3.7265,3.6719,3.6328,3.7109,3.7807,3.8262,3.8142,3.7495,3.6892,3.6876,3.6256,3.5947,3.6748,3.6245,3.6245,3.7825,3.6709,3.5925,3.6592,3.5982,3.5412,3.5297,3.3834,3.2583,3.1775,3.2352,3.2122,3.05,3.1154,3.1583,3.1583,3.0808,3.0769,3.1583,3.0808,3.0385,3.0385,3.1192,3.1154,3.0417,3.1962,3.2276,4.2756,4.3013,4.3178,4.3359,4.2255,4.0691,3.9093,3.6156,3.333,3.1689,3.01,2.9208,3.0027,3.0173,3.1176,3.4284,3.4394,3.5312,3.8909,3.9386,4.0084,4.1846,4.247,0.0,0.0,0.0,0.0,0.0,0.0,0.0,0.0,4.3908,4.3779,4.3779,4.4072,4.425,4.425,4.4506,4.4559,4.4397,4.4777,4.4838,4.465,4.4557,4.4347,4.4017,0.0,0.0,0.0,4.2676,4.2261,4.1692,4.0854,4.0516,4.0516,4.0516,4.0537,4.0615,4.0615,4.0667,4.0775,4.0839,4.0667,4.0213,3.9419,3.8878,3.852,3.8583,3.8353,3.8081,3.8086,3.7422,3.6718,3.6517,3.7094,3.77,3.7603,3.77,3.7752,3.7724,3.7439,3.7328,3.7632,3.7406,3.7444,3.8096,3.7638,3.7317,3.7635,3.7334,3.707,3.7024,3.5489,3.4346,3.4,3.4269,3.4192,3.35,3.3688,3.3866,3.4,3.3527,3.352,3.3962,3.3654,3.3192,3.2699,3.3045,3.2776,3.1929,3.2609,3.2724,4.2702,4.3175,4.3447,4.3447,4.2272,4.0691,3.9093,3.6156,3.333,3.1727,3.0136,2.917,2.9721,3.0063,3.0907,3.3109,3.3183,3.41,3.7382,3.786,3.8652,0.0,0.0,0.0,0.0,0.0,0.0,0.0,0.0,0.0,0.0,4.4308,4.4192,4.414,4.4393,4.4519,4.4519,4.4788,4.4862,4.4688,4.5087,4.5192,4.4957,4.5267,4.5083,4.4595,0.0,0.0,0.0,4.3316,4.2739,4.2085,4.0939,4.0516,4.0485,4.053,4.0615,4.07,4.0703,4.0786,4.0882,4.0974,4.1006,4.0903,4.0318,3.9761,3.9358,3.9327,3.9175,3.8943,3.8672,3.8125,3.7539,3.6867,3.7124,3.7522,3.7435,3.7648,3.7861,3.781,3.7632,3.756,3.7787,3.7825,3.7903,3.8174,3.8212,3.8206,3.8215,3.8144,3.8067,3.8026,3.6944,3.6154,3.5885,3.6077,3.6038,3.5538,3.5591,3.5699,3.5839,3.5476,3.5354,3.55,3.5231,3.4699,3.3821,3.3821,3.3506,3.2891,3.316,3.343,4.2103,4.2873,4.3515,4.3515,4.2286,4.0691,3.9093,3.6156,3.333,3.1727,3.0136,2.8987,2.9023,2.9647,3.0723,3.2362,3.3256,3.4945,3.8248,3.8689,3.9313,0.0,0.0,0.0,0.0,0.0,0.0,0.0,0.0,0.0,0.0,4.465,4.4663,4.4397,4.465,4.4788,4.4788,4.5121,4.5277,4.5277,4.5277,4.5277,4.5277,4.5378,4.54,0.0,0.0,0.0,0.0,4.3778,4.3085,4.2893,4.117,4.0516,4.0531,4.0642,4.0694,4.0712,4.0791,4.0886,4.099,4.099,4.1033,4.1108,4.1108,4.1074,4.1081,4.1087,4.0506,3.9687,3.8828,3.8594,3.8594,3.8555,3.8491,3.8383,3.838,3.7597,3.6903,3.6903,3.6284,3.5974,3.6787,3.6903,3.7212,3.8057,3.8212,3.8206,3.8215,3.8144,3.8067,3.8026,3.7991,3.7623,3.6769,3.7469,3.7276,3.5615,3.6231,3.6692,3.6692,3.5923,3.55,3.55,3.4661,3.3782,3.2891,3.2891,3.2891,3.2929,3.3782,3.4661,3.9606,4.0414,4.0891,4.0341,3.9423,3.8358,3.7294,3.4945,3.2669,3.1604,3.0136,2.917,2.9721,2.9574,3.0454,3.372,3.399,0.0,0.0,0.0,0.0,4.0747,0.0,0.0,0.0,0.0,0.0,0.0,0.0,0.0,0.0,4.5098,4.4981,4.4676,4.4969,4.5132,4.5132,4.5288,4.5378,4.5378,4.538,4.5351,4.5361,4.5448,0.0,0.0,0.0,0.0,0.0,4.4393,4.3932,4.3833,4.2756,4.2342,4.2356,4.2499,4.2588,4.268,4.2708,4.2763,4.2767,4.2143,4.1956,4.189,4.127,4.1116,4.1081,4.1089,4.0937,4.0586,3.9726,3.9492,3.9335,3.864,3.8449,3.8358,3.8277,3.7998,3.7787,3.7787,3.7599,3.7483,3.7748,3.8295,3.8566,3.8251,3.8721,3.8858,3.8222,3.8627,3.8979,3.8922,3.9361,3.9123,3.77,3.7853,3.7777,3.7238,3.7333,3.744,3.7577,3.7218,3.678,3.6346,3.6045,3.5507,3.4692,3.4692,3.4692,3.4692,3.4962,3.5231,3.7331,3.8615,3.9313,3.8836,3.8102,3.7199,3.6083,3.4124,3.2327,3.1286,3.0008,2.927,2.9761,2.9713,3.0452,3.3196,3.3839,3.4868,0.0,0.0,0.0,4.1492,0.0,0.0,0.0,0.0,0.0,0.0,0.0,0.0,0.0,0.0,4.5213,4.4981,4.5203,4.5288,4.5288,4.5378,4.5408,4.5408,4.5381,4.54,4.541,4.5457,0.0,0.0,0.0,0.0,0.0,4.4699,4.4384,4.4284,4.355,4.3296,4.3274,4.3427,4.353,4.3611,4.3635,4.3468,4.3138,4.2591,4.2163,4.1816,4.1276,4.1084,4.1126,4.1131,4.1172,4.1054,4.0505,4.0348,4.0185,3.9535,3.9374,3.9326,3.9247,3.8949,3.8682,3.8682,3.8411,3.8212,3.8212,3.8644,3.8837,3.829,3.8953,3.9277,3.8593,3.9294,3.9813,3.9707,4.0185,4.0092,3.9046,3.8931,3.8815,3.8507,3.8385,3.8345,3.8385,3.8,3.7424,3.6612,3.6664,3.6308,3.55,3.55,3.5472,3.5376,3.5472,3.55,0.0,3.7066,3.8248,3.8175,3.7624,3.6648,3.5114,3.355,0.0,3.0758,2.9869,2.9343,2.9492,3.0076,3.0806,3.1679,3.3315,3.5355,0.0,3.9114,0.0,0.0,0.0,0.0,0.0,0.0,0.0,0.0,0.0,0.0,0.0,0.0,4.5288,4.5288,4.5288,4.5326,4.5326,4.5388,4.5408,4.5418,4.539,4.5419,4.5419,4.5466,0.0,0.0,0.0,0.0,0.0,4.4861,4.4614,4.4525,4.3839,4.3578,4.3626,4.3746,4.377,4.3818,4.3868,4.3333,4.2669,4.2593,4.1933,4.1199,4.1282,4.1207,4.1092,4.1172,4.1211,4.1171,4.1116,4.1108,4.1095,4.1,4.0968,4.0907,4.0898,4.02,3.9578,3.9578,3.8953,3.8367,3.8367,3.8367,3.8367,3.829,3.8992,3.9412,3.9145,3.9928,4.046,4.0334,4.0422,4.0462,4.0392,4.0392,4.0092,3.9361,3.9246,3.9108,3.8959,3.8324,3.7517,3.6438,3.655,3.6231,3.55,3.55,3.5391,3.5245,3.5398,3.55,3.188,0.0,3.3867,3.3256,3.2963,3.2719,0.0,3.1593,3.0883,3.0579,2.9994,2.9898,3.1211,3.1079,3.1873,3.5149,3.663,3.8049,4.0047,0.0,0.0,0.0,0.0,0.0,0.0,0.0,0.0,0.0,0.0,0.0,0.0,0.0,4.5288,4.5288,4.5367,4.5388,4.5388,4.54,4.5448,4.5486,4.5532,4.5559,4.5559,4.5568,0.0,0.0,0.0,0.0,4.5757,4.5561,4.5519,4.5542,4.5495,4.5453,4.546,4.5606,4.5662,4.5664,4.5673,4.5563,4.5257,4.4598,4.3352,4.2223,4.2888,4.2146,4.1092,4.1172,4.1168,4.1117,4.1111,4.1046,4.1,4.0921,4.0926,4.0888,4.0843,4.0641,4.0507,4.0507,4.0313,4.0191,4.0191,4.0191,3.9959,3.9307,3.9385,3.925,3.8524,3.9148,3.9648,3.9484,3.9964,4.0023,3.949,3.9515,3.9515,3.9323,3.8661,3.8262,3.8232,3.807,3.757,3.6642,3.6063,3.5692,3.55,3.55,3.5479,3.5451,3.5486,3.55,3.0255,3.1843,3.3375,3.2929,3.2829,3.2718,3.2347,3.1421,3.0547,3.0272,2.9973,3.0139,3.1449,3.1628,3.2647,3.5904,3.7574,0.0,0.0,0.0,0.0,0.0,0.0,0.0,0.0,0.0,0.0,0.0,0.0,0.0,0.0,0.0,4.5329,4.536,4.539,4.539,4.5408,4.5438,4.5457,4.5485,4.5568,4.5594,4.5594,4.5679,0.0,0.0,0.0,0.0,4.5866,4.5925,4.5944,4.6,4.6122,4.6184,4.6187,4.6253,4.63,4.63,4.63,4.6033,4.5571,4.468,4.3749,4.3045,4.3514,4.2961,4.2209,4.2296,4.224,4.2086,4.1668,4.1516,4.1384,4.098,4.0837,4.0859,4.079,4.1087,4.1351,4.1351,4.1661,4.1932,4.1932,4.1932,4.1661,4.0777,4.0661,4.0327,3.9367,3.9695,3.9939,3.98,4.0161,4.0238,3.9815,3.9399,3.9215,3.9277,3.8854,3.8554,3.8446,3.8162,3.7584,3.6731,3.6269,3.5811,3.5361,3.5465,3.5465,3.5361,3.5472,3.55,3.0169,3.2504,3.4668,3.4078,3.4132,3.4105,3.3289,3.2059,3.0913,3.0394,3.03,3.0666,3.1784,3.2581,3.378,3.6092,0.0,0.0,4.3909,4.501,0.0,0.0,0.0,0.0,0.0,0.0,0.0,0.0,0.0,0.0,0.0,0.0,0.0,4.54,4.541,4.541,4.5438,4.5495,4.5541,4.5538,4.5612,4.5646,4.564,4.574,4.5841,0.0,0.0,0.0,4.5954,4.6033,4.6105,4.6122,4.6247,4.63,4.63,4.63,4.63,4.6302,4.6303,4.5722,4.491,4.4294,4.3943,4.3806,4.3957,4.3916,4.3902,4.396,4.3743,4.3288,4.2515,4.2286,4.2094,4.1344,4.1164,4.1164,4.1164,4.1699,4.2202,4.2202,4.2783,4.3285,4.3285,4.3285,4.3053,4.2318,4.2202,4.1899,4.1029,4.0917,4.084,4.0731,4.0607,4.0552,4.0561,3.9712,3.9248,3.9477,3.9223,3.8969,3.8861,3.8285,3.7647,3.6848,3.6848,3.6435,3.5564,3.5745,3.5745,3.5611,3.5745,3.5797,3.2759,3.4734,3.5417,3.225,3.252,3.333,3.2493,3.2232,3.2123,3.2036,3.2154,3.2966,3.5263,3.5798,3.6705,0.0,0.0,4.3069,0.0,0.0,0.0,0.0,0.0,0.0,0.0,0.0,0.0,0.0,0.0,0.0,0.0,0.0,0.0,4.54,4.5448,4.5547,4.565,4.5556,4.5582,4.5764,4.5764,4.5796,4.5869,4.5886,4.5897,0.0,0.0,4.5973,4.6084,4.6095,4.6173,4.6253,4.6298,4.63,4.63,4.63,4.63,4.6303,4.6316,4.5733,4.5073,4.5657,4.5291,4.4811,4.551,4.5671,4.5634,4.5614,4.455,4.336,4.3228,4.3158,4.3079,4.2944,4.2937,4.2937,4.2937,4.3015,4.3092,4.3092,4.3208,4.3285,4.3285,4.3285,4.3247,4.3131,4.3092,4.3047,4.2872,4.2228,4.1769,4.1616,4.0893,4.0446,4.0523,4.0202,4.0109,4.0392,3.8813,3.795,3.8162,3.8031,3.7825,3.747,3.747,3.7377,3.7236,3.73,3.7339,3.7313,3.73,3.7183,3.1644,3.3525,3.4838,3.36,3.522,3.6768,3.5429,3.4876,3.4471,3.4014,3.3988,3.4694,3.6791,0.0,3.8973,4.245,0.0,0.0,0.0,0.0,0.0,0.0,0.0,0.0,0.0,0.0,0.0,0.0,0.0,0.0,0.0,0.0,0.0,0.0,4.5657,4.5711,4.5815,4.575,4.5764,4.584,4.584,4.5869,4.5885,4.5978,4.6005,4.6005,0.0,4.6167,4.6192,4.6192,4.6243,4.63,4.63,4.63,4.63,4.63,4.6303,4.6309,4.6318,4.6015,4.5701,4.6075,4.5874,4.5574,4.5927,4.5958,4.5899,4.5899,4.5311,4.4608,4.4142,4.4021,4.3866,4.3401,4.3285,4.3285,4.3285,4.3672,4.402,4.402,4.4369,4.4639,4.4639,4.4639,4.4485,4.4059,4.3926,4.3689,4.3265,4.284,4.2587,4.2495,4.1747,4.1268,4.1299,4.0707,4.0389,4.0531,3.9676,3.9237,3.9354,3.9268,3.8908,3.8315,3.8204,3.7908,3.7443,3.7481,3.7481,3.7481,3.7443,3.7384,3.152,3.2981,3.4565,3.5607,3.767,3.9202,3.8512,3.7547,3.6736,3.6485,3.6408,3.6884,0.0,3.9695,0.0,4.5031,4.6866,0.0,0.0,0.0,0.0,0.0,0.0,0.0,0.0,0.0,0.0,0.0,0.0,0.0,0.0,0.0,0.0,0.0,4.5815,4.584,4.5959,4.5959,4.5959,4.5959,4.5959,4.5973,4.5996,4.6098,4.6164,4.6167,4.6247,4.63,4.63,4.63,4.63,4.63,4.63,4.63,4.63,4.6303,4.6308,4.6313,4.6282,4.625,4.6192,4.6175,4.6095,4.5997,4.5969,4.5893,4.5807,4.5807,4.5807,4.5652,4.5026,4.4871,4.4717,4.4059,4.3904,4.3904,4.3904,4.4407,4.4871,4.4871,4.5374,4.5807,4.5807,4.5807,4.5568,4.4987,4.4754,4.4423,4.3806,4.3543,4.3365,4.3365,4.2656,4.2184,4.2179,4.1445,4.1012,4.1069,4.066,4.0476,4.0523,4.0356,3.9945,3.924,3.9041,3.8646,3.7991,3.7991,3.7991,3.7991,3.7892,3.7877,3.5492,3.5691,3.5599,3.7236,3.7194,3.7385,3.967,3.8895,3.815,3.9717,4.0032,4.03,0.0,4.3415,4.5342,4.6355,4.7312,0.0,0.0,0.0,0.0,0.0,0.0,0.0,0.0,0.0,0.0,0.0,0.0,0.0,0.0,0.0,0.0,0.0,0.0,4.5959,4.6091,4.6091,4.6091,4.6091,4.6091,4.6167,4.6253,4.6294,4.6296,4.6296,4.63,4.63,4.63,4.63,4.63,4.63,4.63,4.63,4.6302,4.6309,4.6312,4.6315,4.6285,4.6249,4.6189,4.6134,4.6048,4.598,4.5861,4.5814,4.5807,4.5807,4.5807,4.5807,4.5729,4.5729,4.5691,4.5613,4.5613,4.5613,4.5613,4.5691,4.5729,4.5729,4.5768,4.5807,4.5807,4.5807,4.5768,4.5729,4.5684,4.5677,4.5599,4.4801,4.4212,4.4212,4.3333,4.2736,4.2737,4.268,4.2679,4.2817,4.1176,4.0321,4.0592,4.0523,4.0342,4.009,4.0072,4.0062,3.9986,3.9986,3.9986,3.9986,3.9751,3.9524,3.3834,3.4379,3.4961,3.6681,3.8022,3.9184,4.0104,4.1079,4.1979,4.261,4.2772,4.284,0.0,0.0,4.6541,4.7336,0.0,0.0,0.0,0.0,0.0,0.0,0.0,0.0,0.0,0.0,0.0,0.0,0.0,0.0,0.0,0.0,0.0,0.0,0.0,4.6095,4.6236,4.6236,4.6236,4.6236,4.6236,4.6247,4.63,4.63,4.63,4.63,4.63,4.63,4.63,4.63,4.63,4.63,4.63,4.63,4.6302,4.6309,4.6315,4.6282,4.6249,4.6189,4.6137,4.6052,4.5947,4.5874,4.5821,4.5807,4.5807,4.5807,4.5807,4.5807,4.5807,4.5807,4.5807,4.5807,4.5807,4.5807,4.5807,4.5807,4.5807,4.5807,4.5807,4.5807,4.5807,4.5807,4.5807,4.5807,4.5742,4.5696,4.5696,4.534,4.5115,4.5115,4.4286,4.3513,4.3035,4.2889,4.2805,4.2869,4.2154,4.1866,4.214,4.1911,4.1408,4.0771,4.0642,4.0231,3.9525,3.9525,3.9525,3.9513,3.9414,3.9313,3.3293,3.3883,3.4966,3.6656,3.86,4.0342,4.1327,4.2955,4.4402,4.4958,4.5089,4.5068,4.5073,0.0,0.0,0.0,0.0,0.0,0.0,0.0,0.0,0.0,0.0,0.0,0.0,0.0,0.0,0.0,0.0,0.0,0.0,0.0,0.0,0.0,0.0,4.6192,4.63,4.63,4.63,4.63,4.63,4.63,4.63,4.63,4.63,4.63,4.63,4.63,4.63,4.63,4.63,4.63,4.63,4.6302,4.6305,4.6313,4.6284,4.625,4.6201,4.615,4.6052,4.6022,4.5917,4.5807,4.5807,4.5807,4.5807,4.5807,4.5807,4.5807,4.5807,4.5807,4.5807,4.5807,4.5807,4.5807,4.5807,4.5807,4.5807,4.5807,4.5807,4.5807,4.5807,4.5807,4.5793,4.5757,4.568,4.5585,4.5585,4.5543,4.5538,4.5494,4.4901,4.4307,4.3815,4.3656,4.357,4.3608,4.354,4.335,4.3022,4.2679,4.2205,4.1559,4.1364,4.0904,4.0098,4.0098,4.0098,4.0098,4.0005,3.9964,3.4846,3.4814,3.5878,3.7502,3.8639,4.0239,4.3551,4.4303,4.4811,4.6577,4.6992,4.7017,4.6929,4.7695,0.0,0.0,0.0,0.0,0.0,0.0,0.0,0.0,0.0,0.0,0.0,0.0,0.0,0.0,0.0,0.0,0.0,0.0,0.0,0.0,0.0,0.0,4.63,4.63,4.63,4.63,4.63,4.63,4.63,4.63,4.63,4.63,4.63,4.63,4.63,4.63,4.63,4.63,4.63,4.6306,4.6313,4.628,4.625,4.6194,4.6186,4.6112,4.6002,4.5997,4.5917,4.5807,4.5807,4.5807,4.5807,4.5807,4.5807,4.5807,4.5807,4.5807,4.5807,4.5807,4.5807,4.5807,4.5807,4.5807,4.5807,4.5807,4.5807,4.5807,4.5807,4.5807,4.5764,4.5602,4.5585,4.5585,4.5616,4.5494,4.5341,4.5213,4.5033,4.4998,4.5181,4.5192,4.5267,4.539,4.5288,4.4472,4.2891,4.2644,4.2509,4.2509,4.2397,4.2302,4.229,4.229,4.229,4.229,4.1995,4.1916,3.3776,3.4423,3.5905,3.761,4.0977,4.4126,4.5116,4.5748,4.6651,4.8414,4.8882,4.8774,4.816,0.0,0.0,0.0,0.0,0.0,0.0,0.0,0.0,0.0,0.0,0.0,0.0,0.0,0.0,0.0,0.0,0.0,0.0,0.0,0.0,0.0,0.0,0.0,4.63,4.63,4.63,4.63,4.63,4.63,4.63,4.63,4.63,4.63,4.63,4.63,4.63,4.63,4.63,4.63,4.63,4.6306,4.6277,4.625,4.6205,4.6188,4.6098,4.6012,4.5986,4.5899,4.5841,4.5807,4.5807,4.5807,4.5807,4.5807,4.5807,4.5807,4.5807,4.5807,4.5807,4.5807,4.5807,4.5807,4.5807,4.5807,4.5807,4.5807,4.5807,4.5807,4.5807,4.5807,4.5764,4.5602,4.5585,4.559,4.5485,4.5429,4.539,4.5341,4.5186,4.5136,4.5192,4.508,4.5022,4.5042,4.4995,4.4847,4.4584,4.4429,4.3946,4.3163,4.3088,4.2661,4.1791,4.1791,4.1791,4.1791,4.1745,4.1702,3.5157,3.6321,3.8151,4.0632,4.3302,4.5711,4.7068,4.7731,4.8454,4.9864,4.9992,4.9673,4.9132,4.9041,0.0,0.0,0.0,0.0,0.0,0.0,0.0,0.0,0.0,0.0,0.0,0.0,0.0,0.0,0.0,0.0,0.0,0.0,0.0,0.0,0.0,0.0,4.63,4.63,4.63,4.63,4.63,4.63,4.63,4.63,4.63,4.63,4.63,4.63,4.63,4.63,4.63,4.63,4.63,4.6276,4.6249,4.6208,4.6184,4.6125,4.6012,4.5969,4.5917,4.5834,4.5807,4.5807,4.5807,4.5807,4.5807,4.5807,4.5807,4.5807,4.5807,4.5807,4.5807,4.5807,4.5807,4.5807,4.5807,4.5807,4.5807,4.5807,4.5807,4.5807,4.5807,4.5807,4.5764,4.5602,4.5535,4.5503,4.5419,4.5351,4.5311,4.5311,4.5192,4.5114,4.5192,4.5091,4.5033,4.5033,4.5033,4.5042,4.5154,4.5007,4.4612,4.3919,4.3868,4.3482,4.2766,4.2708,4.2679,4.2679,4.2567,4.2537,3.7644,3.9204,4.143,4.4997,4.5531,4.6003,4.9225,4.9964,5.0153,5.087,0.0,5.0022,4.9941,0.0,0.0,0.0,0.0,0.0,0.0,0.0,0.0,0.0,0.0,0.0,0.0,0.0,0.0,0.0,0.0,0.0,0.0,0.0,0.0,0.0,4.63,0.0,4.63,4.63,4.63,0.0,4.63,4.63,4.63,4.63,4.63,4.63,4.63,4.63,4.63,4.63,4.6302,4.6305,4.6306,4.6248,4.6202,4.6199,4.6095,4.5997,4.5986,4.5911,4.5807,4.5807,4.5807,4.5807,4.5807,4.5807,4.5807,4.5884,4.5923,4.5923,4.6039,4.6039,4.6039,4.6039,4.5923,4.5807,4.5807,4.5807,4.5807,4.5807,4.5807,4.5845,4.5884,4.5923,4.588,4.5756,4.5541,4.54,4.54,4.5281,4.5213,4.5203,4.5045,4.501,4.5159,4.517,4.517,4.517,4.517,4.5091,4.4926,4.4789,4.4725,4.4712,4.4578,4.4496,4.4482,4.4391,4.4333,4.4296,4.4131,4.4039,3.5301,3.7572,4.0688,4.4188,4.6976,4.9255,5.0712,5.1071,5.1096,5.1148,5.1122,5.1084,5.1074,0.0,0.0,0.0,0.0,0.0,0.0,0.0,0.0,0.0,0.0,0.0,0.0,0.0,0.0,0.0,0.0,0.0,0.0,0.0,0.0,4.63,4.63,4.63,4.63,4.63,4.63,0.0,4.63,4.63,4.63,4.63,4.63,4.63,4.63,4.63,4.63,4.63,4.6312,4.6285,4.6249,4.6205,4.6171,4.6063,4.6026,4.5986,4.5886,4.5834,4.5807,4.5807,4.5807,4.5807,4.5807,4.5807,4.5923,4.6619,4.6806,4.696,4.7657,4.785,4.785,4.785,4.6806,4.5807,4.5807,4.5807,4.5807,4.5807,4.5807,4.6039,4.6689,4.6806,4.6769,4.6643,4.5926,4.54,4.54,4.5371,4.5301,4.5213,4.5159,4.5091,4.4986,4.4974,4.4974,4.4974,4.4974,4.4962,4.4914,4.4889,4.4815,4.4712,4.4672,4.4605,4.4482,4.4454,4.444,4.444,4.4296,4.4222,3.6977,3.9536,4.233,4.5822,4.8722,5.0798,5.1293,5.1414,5.1369,5.13,5.1357,5.1414,0.0,0.0,0.0,0.0,0.0,0.0,0.0,0.0,0.0,0.0,0.0,0.0,0.0,0.0,0.0,0.0,0.0,0.0,0.0,4.63,4.63,4.63,4.63,4.63,4.63,4.63,4.63,4.63,4.63,4.63,4.63,4.63,4.63,4.63,4.63,4.6308,4.6317,4.6317,4.6286,4.6249,4.6166,4.614,4.6079,4.6039,4.5952,4.5905,4.5834,4.5807,4.5807,4.5807,4.5807,4.5807,4.5807,4.6078,4.6542,4.696,4.7386,4.7811,4.8275,4.8392,4.8392,4.8392,4.7695,4.7038,4.7038,4.7038,4.7038,4.7038,4.7038,4.7192,4.7657,4.7643,4.7541,4.7474,4.6935,4.6505,4.6505,4.644,4.6199,4.5726,4.5677,4.5478,4.4926,4.4914,4.4914,4.4914,4.4914,4.4914,4.4914,4.4914,4.4877,4.4815,4.4802,4.4776,4.4699,4.4632,4.4592,4.4592,4.4383,4.4318,3.8274,4.1515,4.4457,4.7932,5.0126,5.1414,5.1414,5.1414,5.1414,5.1414,5.1414,0.0,0.0,0.0,0.0,0.0,0.0,0.0,0.0,0.0,0.0,0.0,0.0,0.0,0.0,0.0,0.0,0.0,0.0,0.0,4.63,4.63,4.63,4.63,4.63,4.63,4.63,4.63,4.63,4.63,4.63,4.6303,4.6306,4.6306,4.6306,4.6306,4.6306,4.6279,4.6289,4.6289,4.6249,4.6195,4.6101,4.605,4.5996,4.5988,4.6007,4.6039,4.6039,4.6116,4.6271,4.6271,4.6271,4.6271,4.6271,4.6728,4.7386,4.7657,4.8275,4.8894,4.9204,4.9281,4.9281,4.9281,4.9281,4.9126,4.8546,4.8392,4.843,4.8585,4.874,4.8778,4.8662,4.8499,4.8369,4.8351,4.8018,4.775,4.7754,4.7577,4.7201,4.653,4.6455,4.6164,4.5407,4.5331,4.5331,4.5331,4.5217,4.5103,4.5103,4.499,4.4914,4.4914,4.4914,4.4914,4.4914,4.4802,4.4738,4.4738,4.4454,4.431,3.2903,3.8369,4.4499,4.7939,5.0126,5.1414,5.1414,5.1414,5.1414,0.0,5.1414,0.0,0.0,0.0,0.0,0.0,0.0,0.0,0.0,0.0,0.0,0.0,0.0,0.0,0.0,0.0,0.0,0.0,0.0,0.0,4.63,4.63,4.63,4.63,4.63,4.63,4.63,4.63,4.63,4.63,4.63,4.6312,4.6286,4.6286,4.6286,4.6286,4.6286,4.6289,4.6206,4.6206,4.615,4.61,4.6027,4.5983,4.5896,4.5867,4.6292,4.6922,4.6922,4.7424,4.8043,4.8043,4.8043,4.8043,4.8043,4.8121,4.8546,4.997,5.0473,5.0898,5.2414,5.2801,5.2801,5.2801,5.2801,5.1989,4.9049,4.8392,4.8624,4.9397,5.0094,5.0318,4.9668,4.9498,4.9451,4.9246,4.8546,4.8001,4.79,4.7858,4.7756,4.7533,4.7521,4.7374,4.7087,4.7074,4.7074,4.7074,4.6392,4.6013,4.6013,4.5293,4.4914,4.4914,4.4914,4.4914,4.4914,4.4889,4.4889,4.4877,4.4592,4.4454,3.5252,3.9976,4.4504,4.7939,4.9735,5.0789,5.1297,5.1414,5.1414,5.1414,0.0,0.0,0.0,0.0,0.0,0.0,0.0,0.0,0.0,0.0,0.0,0.0,0.0,0.0,0.0,0.0,0.0,0.0,0.0,4.63,4.63,4.63,4.63,4.63,4.63,4.63,4.63,4.63,4.63,4.63,4.6313,4.6283,4.6287,4.625,4.6249,4.6249,4.6249,4.6245,4.6188,4.6188,4.6155,4.6154,4.6575,4.6385,4.6015,4.6911,4.7192,4.7154,4.7657,4.8082,4.8392,4.8392,4.8392,4.8392,4.8392,4.9049,4.9931,5.0705,5.1594,5.2531,5.3304,5.3498,5.3498,5.3498,5.3498,5.3072,5.1563,5.1254,5.137,5.1757,5.2105,5.226,5.1873,5.1738,5.1631,5.1529,5.0632,4.9937,4.9859,4.9372,4.8819,4.8314,4.8276,4.8049,4.7466,4.7378,4.7378,4.7378,4.7074,4.6885,4.6885,4.6051,4.5634,4.5634,4.5141,4.4914,4.4914,4.4914,4.4914,4.4914,4.4712,4.4565,3.6423,3.9937,4.2669,4.6534,4.8486,4.9733,5.0828,0.0,5.1141,0.0,0.0,0.0,0.0,0.0,0.0,0.0,0.0,0.0,0.0,0.0,0.0,0.0,0.0,0.0,0.0,0.0,0.0,0.0,0.0,4.63,4.63,4.63,4.63,4.63,4.63,4.63,4.63,4.6306,4.6309,4.6311,4.6287,4.6289,4.6288,4.6204,4.6192,4.6183,4.6194,4.6184,4.6231,4.6418,4.6488,4.6479,4.7279,4.7177,4.6687,4.7949,4.8121,4.785,4.8508,4.8856,4.9049,4.9049,4.9204,4.9359,4.9359,5.0403,5.1594,5.1826,5.284,5.3884,5.4078,5.4155,5.4155,5.4155,5.4155,5.4,5.3575,5.3652,5.3768,5.3536,5.3691,5.376,5.3447,5.3281,5.3186,5.3105,5.23,5.1713,5.165,5.1011,5.022,4.9424,4.9349,4.8969,4.8098,4.8022,4.8022,4.8022,4.7845,4.7719,4.7719,4.6923,4.6506,4.6506,4.5862,4.5331,4.4914,4.4914,4.4914,4.4914,4.4776,4.4632,3.2323,3.5055,3.7632,4.2708,4.587,4.8172,4.9811,0.0,0.0,0.0,0.0,0.0,0.0,0.0,0.0,0.0,0.0,0.0,0.0,0.0,0.0,0.0,0.0,0.0,0.0,0.0,0.0,0.0,0.0,4.63,4.63,4.63,4.63,4.63,4.63,4.63,4.63,4.6281,4.6287,4.6287,4.6249,4.6196,4.6212,4.621,4.6176,4.6095,4.6184,4.6189,4.6258,4.7034,4.7291,4.7312,4.8102,4.8385,4.8283,4.8353,4.8894,4.9591,4.9629,5.0132,5.0782,5.0782,5.1331,5.1997,5.1997,5.2647,5.3536,5.4349,5.4658,5.4929,5.5664,5.5857,5.5857,5.5857,5.5857,5.5432,5.3846,5.4155,5.4503,5.3652,5.4155,5.4422,5.3388,5.3196,5.3084,5.2754,5.2679,5.2551,5.2385,5.2305,5.195,5.1154,5.1092,5.0713,4.9855,4.9779,4.9779,4.9779,4.9059,4.8642,4.8642,4.7808,4.734,4.734,4.7302,4.6506,4.4914,4.4914,4.4914,4.4914,4.4776,4.4632,3.1074,3.3806,3.6851,4.0327,4.3177,4.5558,4.7276,4.8913,5.0202,0.0,0.0,0.0,0.0,0.0,0.0,0.0,0.0,0.0,0.0,0.0,0.0,0.0,0.0,0.0,0.0,0.0,0.0,0.0,0.0,0.0,4.63,4.63,4.63,4.63,4.63,4.6308,4.6281,4.625,4.6249,4.6248,4.6195,4.6218,4.6206,4.6181,4.6176,4.6117,4.6119,4.6434,4.6995,4.7213,4.7644,4.8205,4.9026,4.8959,4.8546,4.9629,4.99,4.9784,5.0279,5.0666,5.0975,5.1563,5.195,5.219,5.219,5.2801,5.3459,5.3188,5.3923,5.4735,5.4465,5.52,5.6012,5.6012,5.6012,5.5857,5.5238,5.5354,5.547,5.5161,5.5284,5.5316,5.4949,5.4769,5.4649,5.452,5.39,5.3441,5.3375,5.2807,5.2291,5.1987,5.195,5.185,5.1547,5.1016,5.0751,5.0751,4.9917,4.9476,4.9476,4.8679,4.8225,4.8225,4.7681,4.6847,4.571,4.571,4.5445,4.4914,4.4776,4.4632,2.9474,3.2051,3.5369,3.8258,4.0288,4.2474,4.5948,0.0,4.8718,0.0,0.0,0.0,0.0,0.0,0.0,0.0,0.0,0.0,0.0,0.0,0.0,0.0,0.0,0.0,0.0,0.0,0.0,0.0,0.0,0.0,4.63,4.63,4.6305,4.6312,4.6305,4.6312,4.6287,4.6248,4.6204,4.6204,4.6212,4.6187,4.6187,4.6193,4.6158,4.6113,4.6406,4.6829,4.7369,4.7623,4.8216,4.9064,4.9846,4.9783,4.9359,5.0473,5.055,5.0171,5.0705,5.0898,5.1014,5.1563,5.195,5.219,5.219,5.2801,5.342,5.3149,5.3923,5.4735,5.4426,5.5161,5.6012,5.6012,5.6012,5.6012,5.6012,5.6012,5.6012,5.6012,5.5932,5.5837,5.5724,5.5604,5.5437,5.5301,5.4674,5.4237,5.4237,5.3656,5.3139,5.2873,5.2836,5.2722,5.2404,5.1912,5.1609,5.1609,5.0827,5.0334,5.0334,4.9551,4.9097,4.9097,4.8528,4.7845,4.7049,4.6468,4.5899,4.5331,4.489,4.4605,0.0,0.0,0.0,0.0,0.0,0.0,4.5712,0.0,0.0,0.0,0.0,0.0,0.0,0.0,0.0,0.0,0.0,0.0,0.0,0.0,0.0,0.0,0.0,0.0,0.0,0.0,0.0,0.0,0.0,4.63,4.63,4.63,4.6311,4.6287,4.6313,4.6313,4.6288,4.6248,4.6203,4.6202,4.6184,4.6219,4.6258,4.6258,4.6197,4.623,4.6989,4.7351,4.7423,4.8212,4.9039,4.9917,5.0619,5.0898,5.0898,5.0898,5.0898,5.0898,5.0898,5.0898,5.0898,5.0937,5.1525,5.219,5.2229,5.284,5.3691,5.4503,5.4774,5.5006,5.578,5.5973,5.5973,5.6012,5.6012,5.6012,5.6012,5.6012,5.6012,5.6012,5.6003,5.5875,5.5543,5.5511,5.5339,5.4956,5.492,5.492,5.492,5.492,5.4617,5.3821,5.3745,5.3404,5.257,5.2442,5.2442,5.2442,5.1684,5.123,5.123,5.041,4.9931,4.9931,4.9931,4.9514,4.8717,4.7087,4.6241,4.6165,4.5154,4.4551,2.7406,0.0,0.0,0.0,0.0,0.0,0.0,0.0,0.0,0.0,0.0,0.0,0.0,0.0,0.0,0.0,0.0,0.0,0.0,0.0,0.0,0.0,0.0,0.0,0.0,0.0,0.0,0.0,4.63,4.63,4.63,4.63,4.6303,4.6311,4.6249,4.6249,4.6248,4.6212,4.622,4.622,4.6193,4.653,4.715,4.715,4.7423,4.7922,4.8139,4.8547,4.9069,4.928,4.9882,5.0699,5.0852,5.0898,5.0898,5.0898,5.0898,5.0898,5.0898,5.0898,5.1014,5.1641,5.1989,5.2306,5.2956,5.3304,5.3536,5.3807,5.431,5.5006,5.578,5.5586,5.5277,5.5857,5.6012,5.6012,5.6012,5.6012,5.6012,5.6012,5.5932,5.5787,5.552,5.5376,5.5183,5.4927,5.492,5.492,5.492,5.492,5.4806,5.4579,5.4579,5.4465,5.4238,5.3669,5.3328,5.3328,5.2532,5.2063,5.2063,5.1282,5.0827,5.0827,5.022,4.9779,4.9589,4.8528,4.739,4.6165,4.5087,4.4397,0.0,0.0,0.0,0.0,0.0,0.0,0.0,3.8102,0.0,0.0,0.0,0.0,0.0,0.0,0.0,0.0,0.0,0.0,0.0,0.0,0.0,0.0,0.0,0.0,0.0,0.0,0.0,4.63,4.63,4.63,4.63,4.63,4.627,4.6246,4.625,4.6246,4.6192,4.6197,4.6365,4.6755,4.6736,4.7189,4.8047,4.8047,4.8245,4.8671,4.896,4.9356,4.979,5.0062,5.0503,5.0966,5.0921,5.0898,5.0898,5.0898,5.0898,5.0898,5.0898,5.0898,5.0975,5.1486,5.1912,5.2306,5.2801,5.3188,5.3575,5.3923,5.4658,5.5393,5.5896,5.5664,5.5432,5.5896,5.6012,5.6012,5.6012,5.6012,5.6012,5.6012,5.5895,5.5735,5.552,5.5326,5.5116,5.4912,5.492,5.492,5.492,5.492,5.492,5.492,5.492,5.492,5.492,5.4465,5.42,5.42,5.3404,5.2949,5.2949,5.2153,5.1533,5.1192,5.0713,5.0258,4.9893,4.9097,4.7969,4.6512,4.5481,4.4849,0.0,0.0,0.0,0.0,0.0,0.0,3.8533,3.8297,3.8414,0.0,0.0,0.0,0.0,0.0,0.0,0.0,0.0,0.0,0.0,0.0,0.0,0.0,0.0,0.0,0.0,4.63,4.63,4.63,4.6303,4.6305,4.6305,4.6308,4.6245,4.6207,4.625,4.6247,4.6208,4.6282,4.6745,4.7487,4.7603,4.8086,4.8943,4.8943,4.8954,4.9017,4.9665,4.995,4.9988,5.0619,5.0898,5.0898,5.0898,5.0898,5.0898,5.0898,5.0898,5.0898,5.1014,5.1053,5.1053,5.1169,5.1718,5.2345,5.2461,5.3033,5.3807,5.4697,5.547,5.6012,5.6012,5.6012,5.6012,5.6012,5.6012,5.6012,5.6012,5.5995,5.5986,5.5986,5.5885,5.5735,5.5523,5.5314,5.5116,5.4912,5.492,5.492,5.492,5.492,5.492,5.492,5.492,5.492,5.492,5.492,5.492,5.492,5.4238,5.3821,5.3821,5.2987,5.2215,5.1495,5.1268,5.0789,4.9893,4.9097,4.8153,4.7124,4.6261,4.5687,0.0,3.4705,3.5251,0.0,0.0,0.0,0.0,3.3066,3.4704,0.0,0.0,0.0,0.0,0.0,0.0,0.0,0.0,0.0,0.0,0.0,0.0,0.0,0.0,0.0,0.0,4.63,4.63,4.63,4.6317,4.6284,4.6284,4.625,4.6249,4.6289,4.624,4.622,4.6206,4.6914,4.7324,4.7518,4.821,4.8982,4.9761,4.9761,5.0066,5.0631,5.0775,5.0778,5.0689,5.0828,5.0898,5.0898,5.0898,5.0898,5.0898,5.0898,5.0898,5.1014,5.1718,5.195,5.2066,5.2763,5.3111,5.3382,5.4078,5.4426,5.4735,5.5548,5.5896,5.6012,5.6012,5.6012,5.6012,5.6012,5.6012,5.6012,5.6012,5.5923,5.5837,5.5837,5.5817,5.5692,5.5314,5.5223,5.5116,5.4912,5.492,5.492,5.492,5.492,5.492,5.492,5.492,5.492,5.492,5.492,5.492,5.492,5.4769,5.4655,5.4655,5.3897,5.3366,5.3215,5.1888,5.0789,4.9893,4.9097,4.8455,4.795,4.7087,4.6532,0.0,0.0,3.7477,3.5761,0.0,0.0,0.0,0.0,3.3612,3.6618,0.0,0.0,0.0,0.0,0.0,0.0,0.0,0.0,0.0,0.0,0.0,0.0,0.0,0.0,0.0,4.63,4.6306,4.6317,4.6288,4.6249,4.6249,4.6207,4.6204,4.6243,4.6651,4.686,4.6839,4.771,4.8358,4.8748,4.9177,4.9839,5.0657,5.0657,5.0815,5.1164,5.1097,5.1024,5.0959,5.0914,5.0898,5.0898,5.0898,5.0898,5.0898,5.0898,5.1177,5.1602,5.2028,5.25,5.2917,5.3343,5.3807,5.4233,5.4658,5.5084,5.547,5.5896,5.6012,5.6012,5.6012,5.6012,5.6012,5.6012,5.6012,5.5986,5.5923,5.5847,5.5745,5.5531,5.5497,5.5425,5.5223,5.514,5.5014,5.4935,5.492,5.492,5.492,5.492,5.492,5.492,5.492,5.492,5.492,5.492,5.492,5.492,5.492,5.492,5.492,5.4503,5.4124,5.3707,5.204,5.0978,5.0561,4.9703,4.9122,4.8776,4.795,4.7392,0.0,0.0,0.0,0.0,0.0,3.5447,0.0,0.0,0.0,3.7321,0.0,0.0,0.0,0.0,0.0,0.0,0.0,0.0,0.0,0.0,0.0,0.0,0.0,0.0,0.0,4.576,4.5768,4.6249,4.5778,4.5692,4.6161,4.6196,4.6264,4.644,4.7135,4.7582,4.7735,4.8592,4.9372,4.9995,5.0151,5.0618,5.132,5.132,5.1252,5.119,5.1103,5.1037,5.0995,5.0929,5.0898,5.0898,5.0898,5.1014,5.113,5.113,5.1718,5.2461,5.2655,5.3149,5.3768,5.3923,5.4465,5.5045,5.5045,5.547,5.6012,5.6012,5.6012,5.6012,5.6012,5.6012,5.6012,5.6012,5.6012,5.5977,5.5866,5.5817,5.5703,5.5326,5.5223,5.5183,5.513,5.5014,5.492,5.492,5.492,5.492,5.492,5.492,5.492,5.492,5.492,5.492,5.492,5.492,5.492,5.492,5.492,5.492,5.492,5.492,5.4541,5.3707,5.2381,5.1609,5.1419,5.0534,4.9849,4.9362,4.8739,4.8268,0.0,0.0,0.0,0.0,4.0015,0.0,0.0,0.0,3.3925,3.2167,0.0,0.0,0.0,0.0,0.0,0.0,0.0,0.0,0.0,0.0,0.0,0.0,0.0,0.0,0.0,0.0,4.3787,4.6051,4.4123,4.3835,4.6095,4.622,4.6563,4.7335,4.7457,4.7859,4.8631,4.9449,4.9917,4.9995,5.0774,5.1203,5.132,5.132,5.1234,5.1092,5.1086,5.105,5.0914,5.0906,5.0898,5.0898,5.0898,5.137,5.2028,5.2028,5.2608,5.3459,5.4233,5.4581,5.4774,5.547,5.578,5.5857,5.5857,5.5935,5.6012,5.6012,5.6012,5.6012,5.6012,5.6012,5.6012,5.6012,5.6012,5.6003,5.5986,5.5885,5.5735,5.5497,5.5314,5.513,5.4956,5.4935,5.492,5.492,5.492,5.492,5.492,5.492,5.492,5.492,5.492,5.492,5.492,5.492,5.492,5.492,5.492,5.492,5.492,5.492,5.4541,5.3707,5.3518,5.3025,5.2253,5.1267,5.0312,4.9399,4.9287,4.9075,0.0,0.0,0.0,0.0,0.0,0.0,0.0,0.0,3.3183,0.0,0.0,0.0,0.0,0.0,0.0,0.0,0.0,0.0,0.0,0.0,0.0,0.0,0.0,0.0,0.0,0.0,0.0,0.0,0.0,4.3482,4.6056,4.6697,4.7122,4.7495,4.8451,4.9138,4.9488,5.0346,5.0735,5.0774,5.1125,5.132,5.132,5.132,5.1261,5.122,5.1114,5.1049,5.0991,5.0937,5.1215,5.1641,5.1641,5.1873,5.219,5.219,5.3072,5.431,5.4658,5.5122,5.5548,5.5896,5.6012,5.6012,5.6012,5.6012,5.6012,5.6012,5.6012,5.6012,5.6012,5.6012,5.6012,5.6012,5.6012,5.5986,5.5904,5.5837,5.5714,5.5376,5.5249,5.5154,5.4927,5.492,5.492,5.492,5.492,5.492,5.492,5.492,5.492,5.492,5.492,5.492,5.492,5.492,5.492,5.492,5.492,5.492,5.492,5.492,5.4731,5.4389,5.3935,5.3518,5.3139,5.2233,5.1428,5.0826,4.9771,4.9144,4.4357,0.0,0.0,0.0,0.0,0.0,0.0,0.0,0.0,0.0,0.0,0.0,0.0,0.0,0.0,0.0,0.0,0.0,0.0,0.0,0.0,0.0,0.0,0.0,0.0,0.0,0.0,0.0,0.0,0.0,4.6024,4.7033,4.7618,4.7852,4.9255,5.0112,5.0346,5.0969,5.132,5.132,5.132,5.132,5.132,5.132,5.1273,5.1256,5.1169,5.1229,5.1438,5.1307,5.1757,5.2577,5.2577,5.2693,5.2917,5.2917,5.3846,5.5122,5.5122,5.5509,5.6012,5.6012,5.6012,5.6012,5.6012,5.6012,5.6012,5.6012,5.6012,5.6012,5.6012,5.6012,5.6012,5.6012,5.6012,5.5977,5.5876,5.5827,5.5703,5.5339,5.5236,5.5154,5.4927,5.492,5.492,5.492,5.492,5.492,5.492,5.492,5.492,5.492,5.492,5.492,5.492,5.492,5.492,5.492,5.492,5.492,5.492,5.492,5.492,5.492,5.4352,5.4048,5.4048,5.3051,5.2469,5.2193,5.031,4.9345,0.0,0.0,0.0,4.0466,0.0,0.0,0.0,0.0,3.5889,0.0,0.0,0.0,0.0,0.0,0.0,0.0,0.0,0.0,0.0,0.0,0.0,0.0,0.0,0.0,0.0,0.0,0.0,0.0,0.0,0.0,4.5946,4.7033,4.7891,4.8748,4.9566,5.0424,5.1242,5.1281,5.132,5.132,5.132,5.132,5.132,5.132,5.1256,5.1211,5.1109,5.1554,5.2264,5.2183,5.2685,5.3459,5.3459,5.3962,5.4735,5.4735,5.5238,5.5973,5.5973,5.5973,5.6012,5.6012,5.6012,5.6012,5.6012,5.6012,5.6012,5.6012,5.6012,5.6012,5.6012,5.6012,5.6012,5.6012,5.6012,5.6003,5.6003,5.5895,5.5745,5.5508,5.5326,5.5154,5.4927,5.492,5.492,5.492,5.492,5.492,5.492,5.492,5.492,5.492,5.492,5.492,5.492,5.492,5.492,5.492,5.492,5.492,5.492,5.492,5.492,5.492,5.4882,5.4844,5.4844,5.3666,5.3074,5.3019,5.1082,4.9969,0.0,0.0,5.0377,4.4296,0.0,0.0,0.0,0.0,0.0,0.0,0.0,0.0,0.0,0.0,0.0,0.0,0.0,0.0,0.0,0.0,0.0,0.0,0.0,0.0,0.0,0.0,0.0,0.0,0.0,0.0,0.0,4.7579,4.8514,4.8787,5.0151,5.1008,5.132,5.132,5.132,5.132,5.132,5.132,5.132,5.132,5.1273,5.1295,5.1828,5.2158,5.2402,5.2923,5.3592,5.4349,5.4349,5.4851,5.5548,5.5006,5.5316,5.6012,5.6012,5.6012,5.6012,5.6012,5.6012,5.6012,5.6012,5.6012,5.6012,5.6012,5.6012,5.6119,5.6699,5.6854,5.7009,5.7598,5.7714,5.7687,5.7545,5.7474,5.7357,5.7022,5.6902,5.6778,5.6596,5.655,5.6171,5.5072,5.492,5.492,5.492,5.492,5.492,5.492,5.492,5.492,5.492,5.492,5.492,5.492,5.492,5.492,5.492,5.492,5.492,5.492,5.492,5.492,5.492,5.4365,5.4037,5.3904,5.2159,5.1003,5.283,5.3146,0.0,0.0,4.5703,0.0,3.9326,0.0,0.0,0.0,0.0,0.0,0.0,0.0,0.0,0.0,0.0,0.0,0.0,0.0,0.0,0.0,0.0,0.0,0.0,0.0,3.6629,4.0796,0.0,0.0,0.0,0.0,4.8787,4.8787,5.0424,5.132,5.132,5.132,5.1476,5.1749,5.1749,5.1904,5.2216,5.2216,5.2216,5.2251,5.2748,5.308,5.3365,5.385,5.4506,5.5238,5.5238,5.5548,5.5935,5.5432,5.5548,5.6012,5.6012,5.6012,5.6012,5.6012,5.6012,5.6051,5.6351,5.6467,5.6467,5.6467,5.6708,5.6979,5.7241,5.7512,5.7889,5.8384,5.8491,5.8442,5.8226,5.8135,5.8016,5.7728,5.7654,5.7551,5.7415,5.7384,5.6929,5.5564,5.5375,5.5261,5.4958,5.492,5.492,5.492,5.492,5.492,5.492,5.492,5.492,5.492,5.492,5.492,5.492,5.492,5.492,5.492,5.4617,5.4617,5.492,5.4349,5.41,5.4161,5.2969,5.1993]}]]